[[{"header":{"parameterUnit":"m.s-1","parameterCategory":1,"la1":31.0,"la2":29.5877,"lo1":-88.7671,"lo2":-86.6584,"dy":0.0162,"dx":0.0185,"nx":115,"ny":88,"refTime":"2026-05-01T00:00:00:Z","depth":0,"parameterNumber":2,"parameterNumberName":"U-component_of_WINDS"},"data":[0.0,0.0,0.0,0.0,0.0,0.0,0.0,0.0,0.0,0.0,0.0,0.0,0.0,0.0,0.0,0.0,0.0,0.0,0.0,0.0,0.0,0.0,0.0,0.0,0.0,0.0,0.0,0.0,0.0,0.0,0.0,0.0,0.0,0.0,0.0,0.0,0.0,0.0,0.0,0.0,0.0,0.0,0.0,0.0,0.0,0.0,0.0,0.0,0.0,0.0,0.0,0.0,0.0,0.0,0.0,0.0,0.0,0.0,0.0,0.0,0.0,0.0,0.0,0.0,0.0,0.0,0.0,0.0,0.0,0.0,0.0,0.0,0.0,0.0,0.0,0.0,0.0,0.0,0.0,0.0,0.0,0.0,0.0,0.0,0.0,0.0,0.0,0.0,0.0,0.0,0.0,0.0,0.0,0.0,0.0,0.0,0.0,0.0,0.0,0.0,0.0,0.0,0.0,0.0,0.0,0.0,0.0,0.0,0.0,0.0,0.0,0.0,0.0,0.0,0.0,0.0,0.0,0.0,0.0,0.0,0.0,0.0,0.0,0.0,0.0,0.0,0.0,0.0,0.0,0.0,0.0,0.0,0.0,0.0,0.0,0.0,0.0,0.0,0.0,0.0,0.0,0.0,0.0,0.0,0.0,0.0,0.0,0.0,0.0,0.0,0.0,0.0,0.0,0.0,0.0,0.0,0.0,0.0,0.0,0.0,0.0,0.0,0.0,0.0,0.0,0.0,0.0,0.0,0.0,0.0,0.0,0.0,0.0,0.0,0.0,0.0,0.0,0.0,0.0,0.0,0.0,0.0,0.0,0.0,0.0,0.0,0.0,0.0,0.0,0.0,0.0,0.0,0.0,0.0,0.0,0.0,0.0,0.0,0.0,0.0,0.0,0.0,0.0,0.0,0.0,0.0,0.0,0.0,0.0,0.0,0.0,0.0,0.0,0.0,0.0,0.0,0.0,0.0,0.0,0.0,0.0,0.0,0.0,0.0,0.0,0.0,0.0,0.0,0.0,0.0,0.0,0.0,0.0,0.0,0.0,0.0,0.0,0.0,0.0,0.0,0.0,0.0,0.0,0.0,0.0,0.0,0.0,0.0,0.0,0.0,0.0,0.0,0.0,0.0,0.0,0.0,0.0,0.0,0.0,0.0,0.0,0.0,0.0,0.0,0.0,0.0,0.0,0.0,0.0,0.0,0.0,0.0,0.0,0.0,0.0,0.0,0.0,0.0,0.0,0.0,0.0,0.0,0.0,0.0,0.0,0.0,0.0,0.0,0.0,0.0,0.0,0.0,0.0,0.0,0.0,0.0,0.0,0.0,0.0,0.0,0.0,0.0,0.0,0.0,0.0,0.0,0.0,0.0,0.0,0.0,0.0,0.0,0.0,0.0,0.0,0.0,0.0,0.0,0.0,0.0,0.0,0.0,0.0,0.0,0.0,0.0,0.0,0.0,0.0,0.0,0.0,0.0,0.0,0.0,0.0,0.0,0.0,0.0,0.0,0.0,0.0,0.0,0.0,0.0,0.0,0.0,0.0,0.0,0.0,0.0,0.0,0.0,0.0,0.0,0.0,0.0,0.0,0.0,0.0,0.0,0.0,0.0,0.0,0.0,0.0,0.0,0.0,0.0,0.0,0.0,0.0,0.0,0.0,0.0,0.0,0.0,0.0,0.0,0.0,0.0,0.0,0.0,0.0,0.0,0.0,0.0,0.0,0.0,0.0,0.0,0.0,0.0,0.0,0.0,0.0,0.0,0.0,0.0,0.0,0.0,0.0,0.0,0.0,0.0,0.0,0.0,0.0,0.0,0.0,0.0,0.0,0.0,0.0,0.0,0.0,0.0,0.0,0.0,0.0,0.0,0.0,0.0,0.0,0.0,0.0,0.0,0.0,0.0,0.0,0.0,0.0,0.0,0.0,0.0,0.0,0.0,0.0,0.0,0.0,0.0,0.0,0.0,0.0,0.0,0.0,0.0,0.0,0.0,0.0,0.0,0.0,0.0,0.0,0.0,0.0,0.0,0.0,0.0,0.0,0.0,0.0,0.0,0.0,0.0,0.0,0.0,0.0,0.0,0.0,0.0,0.0,0.0,0.0,0.0,0.0,0.0,0.0,0.0,0.0,0.0,0.0,0.0,0.0,0.0,0.0,0.0,0.0,0.0,0.0,0.0,0.0,0.0,0.0,0.0,0.0,0.0,0.0,0.0,0.0,0.0,0.0,0.0,0.0,0.0,0.0,0.0,0.0,0.0,0.0,0.0,0.0,0.0,0.0,0.0,0.0,0.0,0.0,0.0,0.0,0.0,0.0,0.0,0.0,0.0,0.0,0.0,0.0,0.0,0.0,0.0,0.0,0.0,0.0,0.0,0.0,0.0,0.0,0.0,0.0,0.0,0.0,0.0,0.0,0.0,0.0,0.0,0.0,0.0,0.0,0.0,0.0,0.0,0.0,0.0,0.0,0.0,0.0,0.0,0.0,0.0,0.0,0.0,0.0,0.0,0.0,0.0,0.0,0.0,0.0,0.0,0.0,0.0,0.0,0.0,0.0,0.0,0.0,0.0,0.0,0.0,0.0,0.0,0.0,0.0,0.0,0.0,0.0,0.0,0.0,0.0,0.0,0.0,0.0,0.0,0.0,0.0,0.0,0.0,0.0,0.0,0.0,0.0,0.0,0.0,0.0,0.0,0.0,0.0,0.0,0.0,0.0,0.0,0.0,0.0,0.0,0.0,0.0,0.0,0.0,0.0,0.0,0.0,0.0,0.0,0.0,0.0,0.0,0.0,0.0,0.0,0.0,0.0,0.0,0.0,0.0,0.0,0.0,0.0,0.0,0.0,0.0,0.0,0.0,0.0,0.0,0.0,0.0,0.0,0.0,0.0,0.0,0.0,0.0,0.0,0.0,0.0,0.0,0.0,0.0,0.0,0.0,0.0,0.0,0.0,0.0,0.0,0.0,0.0,0.0,0.0,0.0,0.0,0.0,0.0,0.0,0.0,0.0,0.0,0.0,0.0,0.0,0.0,0.0,0.0,0.0,0.0,0.0,0.0,0.0,0.0,0.0,0.0,0.0,0.0,0.0,0.0,0.0,0.0,0.0,0.0,0.0,0.0,0.0,0.0,0.0,0.0,0.0,0.0,0.0,0.0,0.0,0.0,0.0,0.0,0.0,0.0,0.0,0.0,0.0,0.0,0.0,0.0,0.0,0.0,0.0,0.0,0.0,0.0,0.0,0.0,0.0,0.0,0.0,0.0,0.0,0.0,0.0,0.0,0.0,0.0,0.0,0.0,0.0,0.0,0.0,0.0,0.0,0.0,0.0,0.0,0.0,0.0,0.0,0.0,0.0,0.0,0.0,0.0,0.0,0.0,0.0,0.0,0.0,0.0,0.0,0.0,0.0,0.0,0.0,0.0,0.0,0.0,0.0,0.0,0.0,0.0,0.0,0.0,0.0,0.0,0.0,0.0,0.0,0.0,0.0,0.0,0.0,0.0,0.0,0.0,0.0,0.0,0.0,0.0,0.0,0.0,0.0,0.0,0.0,0.0,0.0,0.0,0.0,0.0,0.0,0.0,0.0,0.0,0.0,0.0,0.0,0.0,0.0,0.0,0.0,0.0,0.0,0.0,0.0,0.0,0.0,0.0,0.0,0.0,0.0,0.0,0.0,0.0,0.0,0.0,0.0,0.0,0.0,0.0,0.0,0.0,0.0,0.0,0.0,0.0,0.0,0.0,0.0,0.0,0.0,0.0,0.0,0.0,0.0,0.0,0.0,0.0,0.0,0.0,0.0,0.0,0.0,0.0,0.0,0.0,0.0,0.0,0.0,0.0,0.0,0.0,0.0,0.0,0.0,0.0,0.0,0.0,0.0,0.0,0.0,0.0,0.0,0.0,0.0,0.0,0.0,0.0,0.0,0.0,0.0,0.0,0.0,0.0,0.0,0.0,0.0,0.0,0.0,0.0,0.0,0.0,0.0,0.0,0.0,0.0,0.0,0.0,0.0,0.0,0.0,0.0,0.0,0.0,0.0,0.0,0.0,0.0,0.0,0.0,0.0,0.0,0.0,0.0,0.0,0.0,0.0,0.0,0.0,0.0,0.0,0.0,0.0,0.0,0.0,0.0,0.0,0.0,0.0,0.0,0.0,0.0,0.0,0.0,0.0,0.0,0.0,0.0,0.0,0.0,0.0,0.0,0.0,0.0,0.0,0.0,0.0,0.0,0.0,0.0,0.0,0.0,0.0,0.0,0.0,0.0,0.0,0.0,0.0,0.0,0.0,0.0,3.5339,0.0,0.0,0.0,0.0,0.0,0.0,0.0,0.0,0.0,0.0,0.0,0.0,0.0,0.0,0.0,0.0,0.0,0.0,0.0,0.0,0.0,0.0,0.0,0.0,0.0,0.0,0.0,0.0,0.0,0.0,0.0,0.0,0.0,0.0,0.0,0.0,0.0,0.0,0.0,0.0,0.0,0.0,0.0,0.0,0.0,0.0,0.0,0.0,0.0,0.0,0.0,0.0,0.0,0.0,0.0,0.0,0.0,0.0,0.0,0.0,0.0,0.0,0.0,0.0,0.0,0.0,0.0,0.0,0.0,0.0,0.0,0.0,0.0,0.0,0.0,0.0,0.0,0.0,0.0,0.0,0.0,0.0,0.0,0.0,0.0,0.0,0.0,0.0,0.0,0.0,0.0,0.0,0.0,0.0,0.0,0.0,0.0,0.0,0.0,0.0,0.0,0.0,0.0,0.0,0.0,0.0,0.0,0.0,0.0,0.0,3.83,3.867,3.7877,3.7007,3.6175,0.0,0.0,0.0,0.0,0.0,0.0,0.0,0.0,0.0,0.0,0.0,0.0,0.0,0.0,0.0,0.0,0.0,0.0,0.0,0.0,0.0,0.0,0.0,0.0,0.0,0.0,0.0,0.0,0.0,0.0,0.0,0.0,0.0,0.0,0.0,0.0,0.0,0.0,0.0,0.0,0.0,0.0,0.0,0.0,0.0,0.0,0.0,0.0,0.0,0.0,0.0,0.0,0.0,0.0,0.0,0.0,0.0,0.0,0.0,0.0,0.0,0.0,0.0,0.0,0.0,0.0,0.0,0.0,0.0,0.0,0.0,0.0,0.0,0.0,0.0,0.0,0.0,0.0,0.0,0.0,0.0,0.0,0.0,0.0,0.0,0.0,0.0,0.0,0.0,0.0,0.0,0.0,0.0,0.0,0.0,0.0,0.0,0.0,0.0,0.0,0.0,0.0,0.0,0.0,0.0,0.0,0.0,0.0,0.0,0.0,0.0,0.0,3.9608,3.8661,3.7602,0.0,0.0,0.0,0.0,0.0,0.0,0.0,0.0,0.0,0.0,0.0,0.0,0.0,0.0,0.0,0.0,0.0,0.0,0.0,0.0,0.0,0.0,0.0,0.0,0.0,0.0,0.0,0.0,0.0,0.0,0.0,0.0,0.0,0.0,0.0,0.0,0.0,0.0,0.0,0.0,0.0,0.0,0.0,0.0,0.0,0.0,0.0,0.0,0.0,0.0,0.0,0.0,0.0,0.0,0.0,0.0,0.0,0.0,0.0,0.0,0.0,0.0,0.0,0.0,0.0,0.0,0.0,0.0,0.0,0.0,0.0,0.0,0.0,0.0,0.0,0.0,0.0,0.0,0.0,0.0,0.0,0.0,0.0,0.0,0.0,0.0,0.0,0.0,0.0,0.0,0.0,0.0,0.0,0.0,0.0,0.0,0.0,0.0,0.0,0.0,0.0,0.0,0.0,0.0,0.0,0.0,0.0,0.0,0.0,0.0,4.0823,4.3721,4.3085,0.0,4.024,0.0,0.0,0.0,0.0,0.0,0.0,0.0,0.0,0.0,0.0,0.0,0.0,0.0,0.0,0.0,0.0,0.0,0.0,0.0,0.0,0.0,0.0,0.0,0.0,0.0,0.0,0.0,0.0,0.0,0.0,0.0,0.0,0.0,0.0,0.0,0.0,0.0,0.0,0.0,0.0,0.0,0.0,0.0,0.0,0.0,0.0,0.0,0.0,0.0,0.0,0.0,0.0,0.0,0.0,0.0,0.0,0.0,0.0,0.0,0.0,0.0,0.0,0.0,0.0,0.0,0.0,0.0,0.0,0.0,0.0,0.0,0.0,0.0,0.0,0.0,0.0,0.0,0.0,0.0,0.0,0.0,0.0,0.0,0.0,0.0,0.0,0.0,0.0,0.0,0.0,0.0,0.0,0.0,0.0,0.0,0.0,0.0,0.0,0.0,0.0,0.0,0.0,0.0,0.0,0.0,0.0,0.0,0.0,0.0,0.0,0.0,4.4393,4.3239,4.1986,0.0,0.0,0.0,0.0,0.0,0.0,0.0,0.0,0.0,0.0,0.0,0.0,0.0,0.0,0.0,0.0,0.0,0.0,0.0,0.0,0.0,0.0,0.0,0.0,0.0,0.0,0.0,0.0,0.0,0.0,0.0,0.0,0.0,0.0,0.0,0.0,0.0,0.0,0.0,0.0,0.0,0.0,0.0,0.0,0.0,0.0,0.0,0.0,0.0,0.0,0.0,0.0,0.0,0.0,0.0,0.0,0.0,0.0,0.0,0.0,0.0,0.0,0.0,0.0,0.0,0.0,0.0,0.0,0.0,0.0,0.0,0.0,0.0,0.0,0.0,0.0,0.0,0.0,0.0,0.0,0.0,0.0,0.0,0.0,0.0,0.0,0.0,0.0,0.0,0.0,0.0,0.0,0.0,0.0,0.0,0.0,0.0,0.0,0.0,0.0,0.0,0.0,0.0,0.0,0.0,0.0,0.0,0.0,0.0,0.0,4.4013,0.0,4.5208,4.4182,4.2563,4.044,0.0,0.0,0.0,0.0,0.0,0.0,0.0,0.0,0.0,0.0,0.0,0.0,0.0,0.0,0.0,0.0,0.0,0.0,0.0,0.0,0.0,0.0,0.0,0.0,0.0,0.0,0.0,0.0,0.0,0.0,0.0,0.0,0.0,0.0,0.0,0.0,0.0,0.0,0.0,0.0,0.0,0.0,0.0,0.0,0.0,0.0,0.0,0.0,0.0,0.0,0.0,0.0,0.0,0.0,0.0,0.0,0.0,0.0,0.0,0.0,0.0,0.0,0.0,0.0,0.0,0.0,0.0,0.0,0.0,0.0,0.0,0.0,0.0,0.0,0.0,0.0,0.0,0.0,0.0,0.0,0.0,0.0,0.0,0.0,0.0,0.0,0.0,0.0,0.0,0.0,0.0,0.0,0.0,0.0,0.0,0.0,0.0,0.0,0.0,0.0,0.0,0.0,0.0,0.0,0.0,0.0,0.0,0.0,0.0,4.5943,4.5664,4.7258,4.7067,4.4662,0.0,0.0,0.0,0.0,0.0,0.0,0.0,0.0,0.0,0.0,0.0,0.0,0.0,0.0,0.0,0.0,0.0,0.0,0.0,0.0,0.0,0.0,0.0,0.0,0.0,0.0,0.0,0.0,0.0,0.0,0.0,0.0,0.0,0.0,0.0,0.0,0.0,0.0,0.0,0.0,0.0,0.0,0.0,0.0,0.0,0.0,0.0,0.0,0.0,0.0,0.0,0.0,0.0,0.0,0.0,0.0,0.0,0.0,0.0,0.0,0.0,0.0,0.0,0.0,0.0,0.0,0.0,0.0,0.0,0.0,0.0,0.0,0.0,0.0,0.0,0.0,0.0,0.0,0.0,0.0,0.0,0.0,0.0,0.0,0.0,0.0,0.0,0.0,0.0,0.0,0.0,0.0,0.0,0.0,0.0,0.0,0.0,0.0,0.0,0.0,0.0,0.0,0.0,0.0,0.0,0.0,0.0,0.0,0.0,4.3563,4.446,4.6989,5.0998,4.6716,4.3723,0.0,0.0,0.0,0.0,0.0,0.0,0.0,0.0,0.0,0.0,0.0,0.0,0.0,0.0,0.0,0.0,0.0,0.0,0.0,0.0,0.0,0.0,0.0,0.0,0.0,0.0,0.0,0.0,0.0,0.0,0.0,0.0,0.0,0.0,0.0,0.0,0.0,0.0,0.0,0.0,0.0,0.0,0.0,0.0,0.0,0.0,0.0,0.0,0.0,0.0,0.0,0.0,0.0,0.0,0.0,0.0,0.0,0.0,0.0,0.0,0.0,0.0,0.0,0.0,0.0,0.0,0.0,0.0,0.0,0.0,0.0,0.0,0.0,0.0,0.0,0.0,0.0,0.0,0.0,0.0,0.0,0.0,0.0,0.0,0.0,0.0,0.0,0.0,0.0,0.0,0.0,0.0,0.0,0.0,0.0,0.0,0.0,0.0,0.0,0.0,0.0,0.0,0.0,0.0,0.0,0.0,0.0,0.0,0.0,4.3945,0.0,4.9246,0.0,4.69,4.3426,0.0,0.0,0.0,0.0,0.0,0.0,0.0,0.0,0.0,0.0,0.0,0.0,0.0,0.0,0.0,0.0,0.0,0.0,0.0,0.0,0.0,0.0,0.0,0.0,0.0,0.0,0.0,0.0,0.0,0.0,0.0,0.0,0.0,0.0,0.0,0.0,0.0,0.0,0.0,0.0,0.0,0.0,0.0,0.0,0.0,0.0,0.0,0.0,0.0,0.0,0.0,0.0,0.0,0.0,0.0,0.0,0.0,0.0,0.0,0.0,0.0,0.0,0.0,0.0,0.0,0.0,0.0,0.0,0.0,0.0,0.0,0.0,0.0,0.0,0.0,0.0,0.0,0.0,0.0,0.0,0.0,0.0,0.0,0.0,0.0,0.0,0.0,0.0,0.0,0.0,0.0,0.0,0.0,0.0,0.0,0.0,0.0,0.0,0.0,0.0,0.0,0.0,0.0,0.0,0.0,0.0,0.0,0.0,0.0,4.9844,5.2422,5.2226,4.918,4.8047,4.3945,0.0,0.0,0.0,0.0,0.0,0.0,0.0,0.0,0.0,0.0,0.0,0.0,0.0,0.0,0.0,0.0,0.0,0.0,0.0,0.0,0.0,0.0,0.0,0.0,0.0,0.0,0.0,0.0,0.0,0.0,0.0,0.0,0.0,0.0,0.0,0.0,0.0,0.0,0.0,0.0,0.0,0.0,0.0,0.0,0.0,0.0,0.0,0.0,0.0,0.0,0.0,0.0,0.0,0.0,0.0,0.0,0.0,0.0,0.0,0.0,0.0,0.0,0.0,0.0,0.0,0.0,0.0,0.0,0.0,0.0,0.0,0.0,0.0,0.0,0.0,0.0,0.0,0.0,0.0,0.0,0.0,0.0,0.0,0.0,0.0,0.0,0.0,0.0,0.0,0.0,0.0,0.0,0.0,0.0,0.0,0.0,0.0,0.0,0.0,0.0,0.0,0.0,0.0,0.0,0.0,0.0,0.0,0.0,0.0,4.9297,5.1211,5.3125,5.4805,4.9062,4.5547,0.0,0.0,0.0,0.0,0.0,0.0,0.0,0.0,0.0,0.0,0.0,0.0,0.0,0.0,0.0,0.0,0.0,0.0,0.0,0.0,0.0,0.0,0.0,0.0,0.0,0.0,0.0,0.0,0.0,0.0,0.0,0.0,0.0,0.0,0.0,0.0,0.0,0.0,0.0,0.0,0.0,0.0,0.0,0.0,0.0,0.0,0.0,0.0,0.0,0.0,0.0,0.0,0.0,0.0,0.0,0.0,0.0,0.0,0.0,0.0,0.0,0.0,0.0,0.0,0.0,0.0,0.0,0.0,0.0,0.0,0.0,0.0,0.0,0.0,0.0,0.0,0.0,0.0,0.0,0.0,0.0,0.0,0.0,0.0,0.0,0.0,0.0,0.0,0.0,0.0,0.0,0.0,0.0,0.0,0.0,0.0,0.0,0.0,0.0,0.0,0.0,0.0,0.0,0.0,0.0,0.0,0.0,0.0,0.0,5.4219,5.5508,5.6914,5.8359,5.1875,4.7891,4.6875,0.0,0.0,0.0,0.0,0.0,0.0,0.0,0.0,0.0,0.0,0.0,0.0,0.0,0.0,0.0,0.0,0.0,0.0,0.0,0.0,0.0,0.0,0.0,0.0,0.0,0.0,0.0,0.0,0.0,0.0,0.0,0.0,0.0,0.0,0.0,0.0,0.0,0.0,0.0,0.0,0.0,0.0,0.0,0.0,0.0,0.0,0.0,0.0,0.0,0.0,0.0,0.0,0.0,0.0,0.0,0.0,0.0,0.0,0.0,0.0,0.0,0.0,0.0,0.0,0.0,0.0,0.0,0.0,0.0,0.0,0.0,0.0,0.0,0.0,0.0,0.0,0.0,0.0,0.0,0.0,0.0,0.0,0.0,0.0,0.0,0.0,0.0,0.0,0.0,0.0,0.0,0.0,0.0,0.0,0.0,0.0,0.0,0.0,0.0,0.0,0.0,0.0,0.0,0.0,0.0,0.0,0.0,0.0,6.3125,6.4453,6.3476,6.0117,5.625,5.1133,0.0,0.0,0.0,0.0,0.0,0.0,0.0,0.0,0.0,0.0,0.0,0.0,0.0,0.0,0.0,0.0,0.0,0.0,0.0,0.0,0.0,0.0,0.0,0.0,0.0,0.0,0.0,0.0,0.0,0.0,0.0,0.0,0.0,0.0,0.0,0.0,0.0,0.0,0.0,0.0,0.0,0.0,0.0,0.0,0.0,0.0,0.0,0.0,0.0,0.0,0.0,0.0,0.0,0.0,0.0,0.0,0.0,0.0,0.0,0.0,0.0,0.0,0.0,0.0,0.0,0.0,0.0,0.0,0.0,0.0,0.0,0.0,0.0,0.0,0.0,0.0,0.0,0.0,0.0,0.0,0.0,0.0,0.0,0.0,0.0,0.0,0.0,0.0,0.0,0.0,0.0,0.0,0.0,0.0,0.0,0.0,0.0,0.0,0.0,0.0,0.0,0.0,0.0,0.0,0.0,0.0,0.0,0.0,0.0,6.5859,7.168,7.2812,6.8672,6.1015,5.5742,0.0,0.0,0.0,0.0,0.0,0.0,0.0,0.0,0.0,0.0,0.0,0.0,0.0,0.0,0.0,0.0,0.0,0.0,0.0,0.0,0.0,0.0,0.0,0.0,0.0,0.0,0.0,0.0,0.0,0.0,0.0,0.0,0.0,0.0,0.0,0.0,0.0,0.0,0.0,0.0,0.0,0.0,0.0,0.0,0.0,0.0,0.0,0.0,0.0,0.0,0.0,0.0,0.0,0.0,0.0,0.0,0.0,0.0,0.0,0.0,0.0,0.0,0.0,0.0,0.0,0.0,0.0,0.0,0.0,0.0,0.0,0.0,0.0,0.0,0.0,0.0,0.0,0.0,0.0,0.0,0.0,0.0,0.0,0.0,0.0,0.0,0.0,0.0,0.0,0.0,0.0,0.0,0.0,0.0,0.0,0.0,0.0,0.0,0.0,0.0,0.0,0.0,0.0,0.0,0.0,0.0,0.0,0.0,6.5039,7.0078,7.7031,7.9609,7.7461,6.8242,6.1172,0.0,0.0,0.0,0.0,0.0,0.0,0.0,0.0,0.0,0.0,0.0,0.0,0.0,0.0,0.0,0.0,0.0,0.0,0.0,0.0,0.0,0.0,0.0,0.0,0.0,0.0,0.0,0.0,0.0,0.0,0.0,0.0,0.0,0.0,0.0,0.0,0.0,0.0,0.0,0.0,0.0,0.0,0.0,0.0,0.0,0.0,0.0,0.0,0.0,0.0,0.0,0.0,0.0,0.0,0.0,0.0,0.0,0.0,0.0,0.0,0.0,0.0,0.0,0.0,0.0,0.0,0.0,0.0,0.0,0.0,0.0,0.0,0.0,0.0,0.0,0.0,0.0,0.0,0.0,0.0,0.0,0.0,0.0,0.0,0.0,0.0,0.0,0.0,0.0,0.0,0.0,0.0,0.0,0.0,0.0,0.0,0.0,0.0,0.0,0.0,0.0,0.0,0.0,0.0,0.0,0.0,0.0,0.0,6.9023,7.4922,8.0976,8.4453,8.4844,7.5703,6.6406,0.0,0.0,0.0,0.0,0.0,0.0,0.0,0.0,0.0,0.0,0.0,0.0,0.0,0.0,0.0,0.0,0.0,0.0,0.0,0.0,0.0,0.0,0.0,0.0,0.0,0.0,0.0,0.0,0.0,0.0,0.0,0.0,0.0,0.0,0.0,0.0,0.0,0.0,0.0,0.0,0.0,0.0,0.0,0.0,0.0,0.0,0.0,0.0,0.0,0.0,0.0,0.0,0.0,0.0,0.0,0.0,0.0,0.0,0.0,0.0,0.0,0.0,0.0,0.0,0.0,0.0,0.0,0.0,0.0,0.0,0.0,0.0,0.0,0.0,0.0,0.0,0.0,0.0,0.0,0.0,0.0,0.0,0.0,0.0,0.0,0.0,0.0,0.0,0.0,0.0,0.0,0.0,0.0,0.0,0.0,0.0,0.0,0.0,0.0,0.0,0.0,0.0,0.0,0.0,0.0,0.0,0.0,0.0,7.2226,7.7617,8.4179,8.7383,8.6914,7.5781,6.7226,0.0,0.0,0.0,0.0,0.0,0.0,0.0,0.0,0.0,0.0,0.0,0.0,0.0,0.0,0.0,0.0,0.0,0.0,0.0,0.0,0.0,0.0,0.0,0.0,0.0,0.0,0.0,0.0,0.0,0.0,0.0,0.0,0.0,0.0,0.0,0.0,0.0,0.0,0.0,0.0,0.0,0.0,0.0,0.0,0.0,0.0,0.0,0.0,4.4128,0.0,0.0,0.0,0.0,0.0,0.0,0.0,0.0,0.0,0.0,0.0,0.0,0.0,0.0,0.0,0.0,0.0,0.0,0.0,0.0,0.0,0.0,0.0,0.0,0.0,0.0,0.0,0.0,0.0,0.0,0.0,0.0,0.0,0.0,0.0,0.0,0.0,0.0,0.0,0.0,0.0,0.0,0.0,0.0,0.0,0.0,0.0,0.0,0.0,0.0,0.0,0.0,0.0,0.0,0.0,0.0,0.0,0.0,0.0,7.4844,8.0781,8.6406,8.9101,8.8359,7.9336,7.1133,0.0,0.0,0.0,0.0,0.0,0.0,0.0,0.0,0.0,0.0,0.0,0.0,0.0,0.0,0.0,0.0,0.0,0.0,0.0,0.0,0.0,0.0,0.0,0.0,0.0,0.0,0.0,0.0,0.0,0.0,0.0,0.0,0.0,0.0,0.0,0.0,0.0,0.0,0.0,0.0,0.0,0.0,0.0,0.0,0.0,0.0,0.0,0.0,0.0,0.0,0.0,0.0,0.0,0.0,0.0,0.0,0.0,0.0,0.0,0.0,0.0,0.0,0.0,0.0,0.0,0.0,0.0,0.0,0.0,0.0,0.0,0.0,0.0,0.0,0.0,0.0,0.0,0.0,0.0,0.0,0.0,0.0,0.0,0.0,0.0,0.0,0.0,0.0,0.0,0.0,0.0,0.0,0.0,0.0,0.0,0.0,0.0,0.0,0.0,0.0,0.0,0.0,0.0,0.0,0.0,0.0,0.0,6.8906,7.6758,8.414,8.8203,9.0117,8.9922,8.3711,7.5781,6.6367,0.0,0.0,0.0,0.0,0.0,0.0,0.0,0.0,0.0,0.0,0.0,0.0,0.0,0.0,0.0,0.0,0.0,0.0,0.0,0.0,0.0,0.0,0.0,0.0,0.0,0.0,0.0,0.0,0.0,0.0,0.0,0.0,0.0,0.0,0.0,0.0,0.0,0.0,3.9706,4.3188,0.0,0.0,0.0,0.0,0.0,0.0,0.0,0.0,4.5812,0.0,0.0,0.0,0.0,0.0,0.0,0.0,0.0,0.0,0.0,0.0,0.0,0.0,0.0,0.0,0.0,0.0,0.0,0.0,0.0,0.0,0.0,0.0,0.0,0.0,0.0,0.0,0.0,0.0,0.0,0.0,0.0,0.0,0.0,0.0,0.0,0.0,0.0,0.0,0.0,0.0,0.0,0.0,0.0,0.0,0.0,0.0,0.0,0.0,0.0,0.0,0.0,0.0,0.0,0.0,0.0,6.7539,7.0703,7.7265,8.7578,8.9961,9.0742,8.9922,8.5429,7.8203,6.8203,0.0,0.0,0.0,0.0,0.0,0.0,0.0,0.0,0.0,0.0,0.0,0.0,0.0,0.0,0.0,0.0,0.0,0.0,0.0,0.0,0.0,0.0,0.0,0.0,0.0,0.0,0.0,0.0,0.0,0.0,0.0,0.0,0.0,0.0,0.0,0.0,0.0,0.0,0.0,4.9616,5.1206,0.0,0.0,0.0,0.0,0.0,0.0,0.0,0.0,4.814,0.0,0.0,0.0,0.0,0.0,0.0,0.0,0.0,0.0,0.0,0.0,0.0,0.0,0.0,0.0,0.0,0.0,0.0,0.0,0.0,0.0,0.0,0.0,0.0,0.0,0.0,0.0,0.0,0.0,0.0,0.0,0.0,0.0,0.0,0.0,0.0,0.0,0.0,0.0,0.0,0.0,0.0,0.0,0.0,0.0,0.0,0.0,0.0,0.0,0.0,0.0,0.0,0.0,0.0,0.0,6.8398,7.3984,8.1015,8.9726,9.1328,9.1328,8.9922,8.3711,7.6484,0.0,0.0,0.0,0.0,0.0,0.0,0.0,0.0,0.0,0.0,0.0,0.0,0.0,0.0,0.0,0.0,0.0,0.0,0.0,0.0,0.0,0.0,0.0,0.0,0.0,0.0,0.0,0.0,0.0,0.0,0.0,0.0,0.0,0.0,0.0,0.0,0.0,0.0,0.0,0.0,5.2508,5.4465,5.6697,0.0,0.0,0.0,0.0,0.0,0.0,5.0619,4.9714,0.0,0.0,0.0,0.0,0.0,0.0,0.0,0.0,0.0,0.0,0.0,0.0,0.0,0.0,0.0,0.0,0.0,0.0,0.0,0.0,0.0,0.0,0.0,0.0,0.0,0.0,0.0,0.0,0.0,0.0,0.0,0.0,0.0,0.0,0.0,0.0,0.0,0.0,0.0,0.0,0.0,0.0,0.0,0.0,0.0,0.0,0.0,0.0,0.0,0.0,0.0,0.0,0.0,0.0,0.0,6.8086,7.6328,8.4101,9.1211,9.2226,9.1836,9.0156,8.2265,7.4883,0.0,0.0,0.0,0.0,0.0,0.0,0.0,0.0,0.0,0.0,0.0,0.0,0.0,0.0,0.0,0.0,0.0,0.0,0.0,0.0,0.0,0.0,0.0,0.0,0.0,0.0,0.0,0.0,0.0,0.0,0.0,0.0,0.0,0.0,0.0,0.0,0.0,0.0,0.0,0.0,0.0,5.7954,6.0916,5.825,0.0,0.0,0.0,0.0,5.2858,5.3818,0.0,0.0,0.0,0.0,0.0,0.0,0.0,0.0,0.0,0.0,0.0,0.0,0.0,0.0,0.0,0.0,0.0,0.0,0.0,0.0,0.0,0.0,0.0,0.0,0.0,0.0,0.0,0.0,0.0,0.0,0.0,0.0,0.0,0.0,0.0,0.0,0.0,0.0,0.0,0.0,0.0,0.0,0.0,0.0,0.0,0.0,0.0,0.0,0.0,0.0,0.0,0.0,0.0,0.0,0.0,0.0,6.8008,7.5195,8.3203,9.1914,9.2539,9.2148,9.1094,8.4258,7.668,0.0,0.0,0.0,0.0,0.0,0.0,0.0,0.0,0.0,0.0,0.0,0.0,0.0,0.0,0.0,0.0,0.0,0.0,0.0,0.0,0.0,0.0,0.0,0.0,0.0,0.0,0.0,0.0,0.0,0.0,0.0,0.0,0.0,0.0,0.0,0.0,0.0,0.0,0.0,0.0,0.0,6.271,6.1779,5.9999,5.8633,0.0,0.0,0.0,6.2182,6.4646,0.0,0.0,0.0,0.0,0.0,0.0,0.0,0.0,0.0,0.0,0.0,0.0,0.0,0.0,0.0,0.0,0.0,0.0,0.0,0.0,0.0,0.0,0.0,0.0,0.0,0.0,0.0,0.0,0.0,0.0,0.0,0.0,0.0,0.0,0.0,0.0,0.0,0.0,0.0,0.0,0.0,0.0,0.0,0.0,0.0,0.0,0.0,0.0,0.0,0.0,0.0,0.0,0.0,0.0,0.0,6.0937,6.8906,7.8594,8.6758,9.3047,9.3828,9.3164,9.1328,8.2734,7.4765,0.0,0.0,0.0,0.0,0.0,0.0,0.0,0.0,0.0,0.0,0.0,0.0,0.0,0.0,0.0,0.0,0.0,0.0,0.0,0.0,0.0,0.0,0.0,0.0,0.0,0.0,0.0,0.0,0.0,0.0,0.0,0.0,0.0,0.0,0.0,0.0,0.0,0.0,0.0,0.0,0.0,0.0,6.5971,6.5508,0.0,0.0,0.0,6.3398,6.289,0.0,0.0,0.0,0.0,0.0,0.0,0.0,0.0,0.0,0.0,0.0,0.0,0.0,0.0,0.0,0.0,0.0,0.0,0.0,0.0,0.0,0.0,0.0,0.0,0.0,0.0,0.0,0.0,0.0,0.0,0.0,0.0,0.0,0.0,0.0,0.0,0.0,0.0,0.0,0.0,0.0,0.0,0.0,0.0,0.0,0.0,0.0,0.0,0.0,0.0,0.0,0.0,0.0,0.0,0.0,0.0,0.0,6.9492,8.1562,8.9883,9.4062,9.4883,9.4179,9.1875,8.2773,0.0,0.0,0.0,0.0,0.0,0.0,0.0,0.0,0.0,0.0,0.0,0.0,0.0,0.0,0.0,0.0,0.0,0.0,0.0,0.0,0.0,0.0,0.0,0.0,0.0,0.0,0.0,3.0469,0.0,0.0,0.0,0.0,0.0,0.0,0.0,0.0,0.0,0.0,0.0,0.0,0.0,0.0,6.6332,6.8825,6.9531,6.9726,0.0,0.0,6.75,6.5547,6.9609,6.9453,0.0,0.0,0.0,0.0,0.0,0.0,0.0,0.0,0.0,0.0,0.0,0.0,0.0,0.0,0.0,0.0,0.0,0.0,0.0,0.0,0.0,0.0,0.0,0.0,0.0,0.0,0.0,0.0,0.0,0.0,0.0,0.0,0.0,0.0,0.0,0.0,0.0,0.0,0.0,0.0,0.0,0.0,0.0,0.0,0.0,0.0,0.0,0.0,0.0,0.0,0.0,0.0,0.0,0.0,0.0,6.9687,8.2109,9.0742,9.4922,9.5156,9.4726,9.3633,8.6797,7.8359,0.0,0.0,0.0,0.0,0.0,0.0,0.0,0.0,0.0,0.0,0.0,0.0,0.0,0.0,0.0,0.0,0.0,0.0,0.0,0.0,0.0,0.0,0.0,0.0,0.0,0.0,0.0,0.0,0.0,0.0,0.0,0.0,0.0,0.0,0.0,0.0,0.0,0.0,0.0,0.0,0.0,6.625,6.8047,6.9648,7.2031,0.0,0.0,7.2383,7.457,7.918,7.8047,6.4648,0.0,0.0,0.0,0.0,0.0,0.0,0.0,0.0,0.0,0.0,0.0,0.0,0.0,0.0,0.0,0.0,0.0,0.0,0.0,0.0,0.0,0.0,0.0,0.0,0.0,0.0,0.0,0.0,0.0,0.0,0.0,0.0,0.0,0.0,0.0,0.0,0.0,0.0,0.0,0.0,0.0,0.0,0.0,0.0,0.0,0.0,0.0,0.0,0.0,0.0,0.0,0.0,0.0,6.5312,7.1094,8.375,9.2148,9.582,9.6484,9.5859,9.3945,8.8242,8.0351,0.0,0.0,0.0,0.0,0.0,0.0,0.0,0.0,0.0,0.0,0.0,0.0,0.0,0.0,0.0,0.0,0.0,0.0,0.0,0.0,0.0,0.0,0.0,0.0,0.0,0.0,0.0,0.0,4.043,4.0819,4.0262,0.0,0.0,0.0,0.0,0.0,0.0,0.0,0.0,0.0,0.0,6.957,7.3906,7.5508,0.0,0.0,7.7539,7.5937,7.5898,7.7109,7.4648,6.4609,6.0781,0.0,0.0,0.0,0.0,0.0,0.0,0.0,0.0,0.0,0.0,0.0,0.0,0.0,0.0,0.0,0.0,0.0,0.0,0.0,0.0,0.0,0.0,0.0,0.0,0.0,0.0,0.0,0.0,0.0,0.0,0.0,0.0,0.0,0.0,0.0,0.0,0.0,0.0,0.0,0.0,0.0,0.0,0.0,0.0,0.0,0.0,0.0,0.0,0.0,0.0,0.0,0.0,6.5976,7.1992,8.4726,9.2969,9.6445,9.7265,9.6601,9.4258,8.9765,8.2695,0.0,0.0,0.0,0.0,0.0,0.0,0.0,0.0,0.0,0.0,0.0,0.0,0.0,0.0,0.0,0.0,0.0,0.0,0.0,0.0,0.0,0.0,0.0,0.0,0.0,0.0,0.0,0.0,4.3476,4.332,4.1055,0.0,0.0,0.0,0.0,0.0,0.0,0.0,0.0,0.0,0.0,7.207,7.6992,7.8437,7.9258,8.0117,7.8398,7.6601,7.5664,7.543,7.2656,6.4687,0.0,0.0,0.0,0.0,0.0,0.0,0.0,0.0,0.0,0.0,0.0,0.0,0.0,0.0,0.0,0.0,0.0,0.0,0.0,0.0,0.0,0.0,0.0,0.0,0.0,0.0,0.0,0.0,0.0,0.0,0.0,0.0,0.0,0.0,0.0,0.0,0.0,0.0,0.0,0.0,0.0,0.0,0.0,0.0,0.0,0.0,0.0,0.0,0.0,0.0,0.0,0.0,0.0,0.0,7.207,8.4804,9.3008,9.6406,9.7304,9.6875,9.5156,9.1758,8.5859,7.7109,0.0,0.0,0.0,0.0,0.0,0.0,0.0,0.0,0.0,0.0,0.0,0.0,0.0,0.0,0.0,0.0,0.0,0.0,0.0,0.0,0.0,0.0,0.0,0.0,0.0,0.0,4.2461,4.2461,4.1875,0.0,0.0,0.0,0.0,0.0,0.0,0.0,0.0,0.0,0.0,6.7109,7.293,7.5625,7.6758,7.7734,7.8594,7.5781,7.3789,7.4648,7.5976,7.4219,0.0,0.0,0.0,0.0,0.0,0.0,0.0,0.0,0.0,0.0,0.0,0.0,0.0,0.0,0.0,0.0,0.0,0.0,0.0,0.0,0.0,0.0,0.0,0.0,0.0,0.0,0.0,4.9894,4.7432,0.0,0.0,0.0,0.0,0.0,0.0,0.0,0.0,0.0,0.0,0.0,6.075,6.215,0.0,0.0,0.0,0.0,0.0,0.0,0.0,0.0,0.0,0.0,0.0,0.0,6.7969,7.4765,8.6172,9.3828,9.7187,9.7539,9.7187,9.6054,9.3242,8.6367,7.4961,0.0,0.0,0.0,0.0,0.0,0.0,0.0,0.0,0.0,0.0,0.0,0.0,0.0,0.0,0.0,0.0,0.0,0.0,0.0,0.0,0.0,0.0,0.0,0.0,0.0,4.3476,0.0,0.0,0.0,0.0,0.0,0.0,0.0,0.0,0.0,0.0,0.0,5.7461,6.3125,6.8594,7.3398,7.7109,7.8359,7.9765,0.0,0.0,0.0,0.0,0.0,0.0,0.0,0.0,0.0,0.0,0.0,0.0,0.0,0.0,6.1992,5.3437,5.1406,5.1172,5.1719,0.0,0.0,0.0,0.0,0.0,0.0,0.0,0.0,0.0,0.0,0.0,0.0,0.0,0.0,0.0,0.0,5.4472,0.0,0.0,0.0,0.0,0.0,0.0,0.0,0.0,6.2661,6.6096,6.7983,6.9088,6.9029,0.0,6.5712,6.0923,0.0,0.0,0.0,0.0,0.0,0.0,0.0,0.0,6.8945,7.5898,8.6601,9.3789,9.7109,9.7539,9.7329,9.6469,9.3029,8.6015,7.5195,6.8555,6.2187,0.0,0.0,0.0,0.0,0.0,0.0,0.0,0.0,0.0,0.0,0.0,0.0,0.0,0.0,0.0,0.0,0.0,0.0,0.0,0.0,0.0,0.0,0.0,4.5742,0.0,0.0,0.0,0.0,0.0,0.0,0.0,0.0,0.0,5.3633,5.7695,6.2578,6.8008,7.2148,7.5508,7.7734,0.0,0.0,0.0,0.0,0.0,0.0,0.0,7.1289,6.9805,6.9219,6.8906,6.914,7.1015,7.2031,7.0625,0.0,0.0,6.1172,5.914,5.9101,5.9687,6.0,6.0625,6.2031,6.2969,6.3711,0.0,0.0,0.0,0.0,0.0,0.0,0.0,0.0,6.2704,6.2166,0.0,6.0319,0.0,0.0,0.0,0.0,0.0,0.0,0.0,0.0,7.1486,7.5264,7.6002,7.4543,7.4649,7.6018,7.4379,7.1063,6.6038,5.9026,0.0,0.0,0.0,0.0,0.0,0.0,6.9062,7.5898,8.6054,9.2969,9.6289,9.7187,9.7182,9.622,9.1236,8.5234,7.8281,7.3945,6.8555,6.1914,5.5195,0.0,0.0,0.0,0.0,0.0,0.0,0.0,0.0,0.0,0.0,0.0,0.0,0.0,0.0,0.0,0.0,0.0,0.0,0.0,0.0,4.7344,0.0,0.0,0.0,0.0,0.0,0.0,0.0,0.0,0.0,0.0,5.8711,6.2695,6.793,7.3633,0.0,0.0,0.0,0.0,7.9883,7.6875,7.5508,7.5,7.5078,7.6953,7.7578,7.5156,0.0,0.0,7.6953,7.6328,7.5664,7.3086,7.5586,7.6445,7.3086,7.0117,6.8437,6.8437,6.7851,6.7617,6.8398,6.9453,7.0469,7.2091,0.0,0.0,0.0,0.0,6.632,6.8898,7.2976,7.3553,7.1591,6.8013,6.8398,0.0,0.0,0.0,0.0,0.0,0.0,6.6436,7.1014,7.4207,7.7314,8.0482,8.0623,8.0638,8.0453,7.8792,7.663,7.3986,7.0658,6.3703,5.3607,0.0,0.0,0.0,0.0,7.2245,7.9058,8.6817,9.2187,9.5018,9.5303,9.47,9.3236,9.0563,8.6979,8.2491,7.9432,7.4646,6.7887,6.2329,0.0,0.0,0.0,0.0,0.0,0.0,0.0,0.0,0.0,0.0,0.0,0.0,0.0,0.0,0.0,0.0,0.0,0.0,0.0,4.5625,4.7148,4.7969,0.0,0.0,0.0,0.0,0.0,0.0,0.0,0.0,0.0,6.8515,6.9062,7.0117,0.0,0.0,7.6562,7.5508,7.8594,8.1289,8.2187,0.0,0.0,0.0,8.0508,7.9336,7.918,8.2461,8.4844,8.4258,8.4648,8.4804,8.3945,8.4219,8.4179,8.3086,7.8906,7.5781,7.5547,7.5781,7.6094,7.6406,7.7539,7.8711,8.1823,7.6092,7.1745,7.136,7.3668,7.4091,7.6553,8.0323,8.0823,7.9092,7.5938,7.613,7.2245,6.5474,6.4474,0.0,0.0,0.0,7.1783,7.6553,7.7553,7.9892,8.3226,8.351,8.3516,8.3292,8.1977,8.0631,7.9246,7.7207,7.164,6.2925,0.0,0.0,6.1504,6.8559,7.502,8.0779,8.6892,9.1361,9.389,9.3977,9.3124,9.1316,8.9948,8.7743,8.4599,8.2336,7.8807,7.3744,6.8121,6.2035,0.0,0.0,0.0,0.0,0.0,0.0,0.0,0.0,0.0,0.0,0.0,4.1172,3.875,0.0,0.0,0.0,4.4453,4.6875,4.9609,5.0664,0.0,0.0,0.0,0.0,0.0,0.0,0.0,6.1133,6.6484,7.1172,7.4414,7.5117,7.5625,7.6484,7.7969,7.875,7.8242,0.0,8.3633,8.5195,8.4961,8.4922,8.5781,8.4726,8.4062,8.4922,8.5859,8.6992,8.7812,8.8164,8.8203,8.8164,8.7812,8.75,8.75,8.4453,8.1914,8.1601,8.1367,8.1328,8.1679,8.2851,8.3906,8.9748,8.8402,8.0669,7.8592,8.0439,8.1285,8.2978,8.517,8.5209,8.467,8.3747,8.2939,7.9862,7.5091,7.2706,0.0,0.0,7.5476,7.8323,8.1516,8.1554,8.2894,8.5087,8.4395,8.4439,8.5176,8.4247,8.3401,8.2477,8.0092,7.763,7.5207,7.2327,6.9848,6.8185,7.288,7.7497,8.1649,8.6588,9.0406,9.2938,9.2888,9.2002,9.0201,8.9239,8.7512,8.5022,8.3264,8.1305,7.8838,7.2571,6.6792,6.1781,0.0,0.0,0.0,0.0,0.0,0.0,0.0,0.0,0.0,0.0,0.0,0.0,0.0,0.0,0.0,5.0547,0.0,5.5469,5.6289,0.0,0.0,0.0,5.6953,5.9805,6.289,6.5547,6.7383,0.0,0.0,0.0,0.0,8.2969,8.3984,8.3906,8.3789,8.3711,8.5234,8.6523,8.6601,8.6679,8.6992,8.7812,8.8828,8.9804,9.0586,8.9453,8.8359,8.8789,8.8437,8.789,8.7851,8.7734,8.7734,8.7695,8.7422,8.7265,8.6328,8.5,8.414,8.4687,8.5508,8.6367,9.2672,9.2326,9.0325,8.8017,8.5632,8.5824,8.6594,8.7786,8.7786,8.694,8.5517,8.5286,8.3131,7.9515,7.8246,7.8169,7.9092,8.0939,8.2901,8.4901,8.5593,8.6588,8.7776,8.7589,8.7594,8.7671,8.6247,8.5401,8.5132,8.3285,8.1439,7.9631,7.943,7.6899,7.2371,7.5793,7.9818,8.4027,8.656,8.9102,9.1518,9.0437,8.9552,8.909,8.7589,8.6209,8.4945,8.3874,8.2144,7.9607,7.5027,7.046,6.6,5.7312,0.0,0.0,0.0,0.0,0.0,0.0,0.0,0.0,0.0,4.7539,4.2773,0.0,4.8594,0.0,5.3516,5.6406,5.8125,5.7851,0.0,0.0,6.1211,6.2226,6.7383,6.8672,7.0351,7.3398,7.6523,7.9648,8.2695,8.4336,8.6094,8.8125,8.6797,8.5312,8.4804,8.7187,8.9101,8.9179,9.0117,9.0898,9.0429,9.0703,9.125,9.2148,9.1719,9.125,9.0742,9.0547,9.0195,8.957,8.9414,8.9414,8.9336,8.8398,8.7773,8.7929,8.7265,8.6406,8.6015,8.6562,8.7422,9.4864,9.4788,9.4018,9.2326,9.021,9.021,9.0479,9.0902,9.0941,8.9979,8.8325,8.7594,8.6017,8.3939,8.3824,8.3824,8.4016,8.5247,8.6363,8.7286,8.7748,8.8243,8.8666,8.8705,8.8709,8.8675,8.7748,8.7248,8.7171,8.594,8.5016,8.4478,8.4516,8.2939,7.9823,8.0029,8.1561,8.4304,8.6752,8.9025,9.1056,8.9556,8.8325,8.7517,8.5868,8.4066,8.2117,8.0849,7.9198,7.7047,7.3384,6.9778,6.62,5.9527,5.438,0.0,0.0,0.0,0.0,0.0,0.0,0.0,0.0,0.0,0.0,0.0,5.2617,0.0,5.8008,0.0,6.2461,6.3203,6.4883,6.7969,6.7812,6.9219,7.3711,7.4492,7.5742,7.8437,8.0664,8.3047,8.5703,8.7109,8.8515,9.0351,8.9687,8.875,8.8086,8.9453,9.0703,9.1133,9.1992,9.2461,9.1914,9.1523,9.1445,9.1875,9.1679,9.1289,9.082,9.0703,9.0547,9.0117,9.0,9.0,8.9961,8.8945,8.8203,8.8437,8.8047,8.7383,8.6914,8.7386,8.8079,9.6634,9.648,9.498,9.4364,9.4326,9.4364,9.4095,9.3672,9.3672,9.2903,9.1441,8.9748,8.8594,8.794,8.844,8.8286,8.7632,8.844,8.8863,8.8863,8.8979,8.9017,8.9017,8.9017,8.9021,8.9025,8.8867,8.8825,8.8825,8.7979,8.7902,8.8479,8.7748,8.7363,8.7094,8.4247,8.3163,8.3965,8.7098,8.9409,9.0825,8.9133,8.744,8.5824,8.4028,8.1618,7.8486,7.6824,7.5203,7.3522,7.0537,6.7889,6.5613,6.1377,5.7632,0.0,5.1978,0.0,0.0,0.0,0.0,0.0,0.0,0.0,0.0,5.6992,5.793,6.0312,6.3398,6.6015,6.7734,7.0078,7.2187,7.3789,7.4844,7.6406,7.8828,7.9765,8.0898,8.2734,8.4297,8.5898,8.7773,8.9297,9.0469,9.1523,9.2148,9.2226,9.1914,9.1679,9.1953,9.2656,9.2656,9.2578,9.2461,9.1953,9.1523,9.1445,9.1054,9.0312,9.0273,9.0273,9.0156,9.0039,9.0,9.0,9.0,8.9375,8.8867,8.8867,8.832,8.7851,8.7695,8.7992,8.8507,9.8327,9.8288,9.798,9.7827,9.7827,9.7827,9.6249,9.371,9.3672,9.3518,9.3095,9.1441,9.0633,9.0402,8.921,8.8632,8.8479,8.9325,8.9671,8.971,9.0402,9.071,9.0748,9.071,9.0748,9.071,9.0017,8.9671,8.9671,8.8863,8.8171,8.7671,8.7478,8.7055,0.0,0.0,0.0,0.0,8.7641,8.8833,8.9056,8.6829,8.5099,8.4055,8.1753,0.0,7.7623,7.6524,7.5234,7.3562,7.2211,0.0,0.0,0.0,0.0,0.0,0.0,0.0,0.0,0.0,0.0,0.0,6.1495,6.0742,5.9883,6.3398,6.6211,6.7422,6.9336,7.125,7.3008,7.4844,7.6406,7.7422,7.8867,8.0547,8.2383,8.2773,8.3789,8.6211,8.6797,8.7929,9.0078,9.0898,9.164,9.3047,9.3554,9.3867,9.4375,9.3789,9.3476,9.3594,9.3164,9.2656,9.2578,9.2461,9.2344,9.2304,9.2265,9.1797,9.1211,9.1054,9.0742,9.0234,9.0,9.0039,9.0039,8.9844,8.9685,8.9537,8.9367,8.904,8.8422,8.8328,8.8777,9.9442,0.0,9.8981,9.8788,0.0,9.8788,9.7827,9.6172,9.5749,9.5095,9.4249,9.2979,9.2441,9.2402,9.1556,9.1171,9.1171,9.1595,9.1787,9.1825,9.221,9.2402,9.2438,9.2402,9.2249,9.1825,9.1402,9.0941,9.0556,9.0133,8.971,8.9286,8.9286,8.9056,8.8632,8.8598,8.8214,8.741,8.8256,8.9102,8.9825,8.8282,8.655,8.4863,0.0,0.0,0.0,0.0,0.0,0.0,0.0,0.0,0.0,0.0,0.0,6.5855,6.3897,6.306,6.3924,6.443,6.582,6.8433,6.9595,6.8833,6.5741,6.9101,7.1914,7.3164,7.4453,7.5898,7.7617,7.9336,8.0547,8.1015,8.2148,8.332,8.414,8.5039,8.6015,8.7265,8.8242,8.9414,9.1094,9.1719,9.2461,9.3672,9.4297,9.4844,9.5547,9.5078,9.457,9.4531,9.4219,9.375,9.332,9.3242,9.3047,9.2734,9.2578,9.2422,9.2031,9.1914,9.1758,9.1367,9.1154,9.1058,9.1036,9.0665,9.0249,9.0128,8.9818,8.956,8.9255,8.8986,8.8944,10.0519,10.0442,9.9596,9.925,9.925,9.925,9.9173,9.8981,0.0,0.0,0.0,9.4518,9.4095,9.3941,9.3787,9.3672,9.3672,9.3672,9.3672,9.3672,9.3672,9.3708,9.3669,9.3708,9.3364,9.2746,9.271,9.2326,9.1672,9.1633,9.1633,9.1633,9.1633,9.1633,9.1633,9.1633,9.0979,8.964,8.8986,8.9409,9.0902,8.9975,8.8397,8.617,8.4318,8.1261,7.6889,7.5077,7.2789,6.9921,6.9047,6.8652,6.8681,6.852,6.8838,6.969,6.9732,7.0336,7.1706,7.2083,7.3053,7.4918,7.6617,7.6057,7.2456,7.4292,7.6349,7.8083,7.886,7.9922,8.1484,8.3203,8.4219,8.4297,8.5195,8.582,8.5898,8.7031,8.8008,8.8281,8.9414,9.0625,9.1679,9.2422,9.3242,9.4219,9.5039,9.5742,9.6367,9.5976,9.5429,9.5429,9.5156,9.4883,9.4336,9.414,9.3789,9.3047,9.2851,9.2773,9.2656,9.2578,9.2578,9.2461,9.2383,9.2171,9.2083,9.145,9.0828,9.0771,9.0218,8.9829,9.0252,8.9906,8.9521,10.2251,10.2174,10.1327,10.0981,10.0981,10.0943,10.0558,9.9827,9.9019,9.8057,9.7096,9.6288,9.5518,9.4788,9.4057,9.3672,9.3672,9.3672,9.3672,0.0,9.3672,9.371,9.371,9.371,9.3633,9.352,9.3557,9.348,9.3364,9.3326,9.3364,9.3326,9.3364,9.3326,9.3326,9.3361,9.3246,9.2941,9.0139,8.914,9.0056,8.8567,8.7222,8.6094,8.3824,8.1516,7.9345,7.7693,7.6209,7.4985,7.4822,7.4774,7.4703,7.3986,7.4004,7.4832,7.4928,7.5033,7.5284,7.6617,7.8269,8.0153,8.1215,8.0648,7.8233,7.8924,8.0279,8.1929,8.2167,8.2773,8.4023,8.5586,8.664,8.6992,8.832,8.9258,8.9101,8.9414,8.9922,9.0586,9.0937,9.1797,9.3164,9.3672,9.4375,9.5703,9.6133,9.6601,9.7109,9.6836,9.6367,9.6211,9.5664,9.5195,9.5039,9.5,9.4648,9.3828,9.3711,9.3476,9.289,9.2773,9.2773,9.2617,9.2443,9.2266,9.2245,9.1968,9.1592,9.1361,9.1159,9.1056,9.1095,9.0902,9.0825,10.3328,10.3251,10.2866,10.2712,10.2674,10.2212,10.1789,10.1366,10.0519,9.9404,9.8173,9.7326,9.6749,9.6288,9.548,9.5095,9.5095,9.5095,9.5095,9.5134,9.5134,9.5095,9.5134,9.5095,9.4864,9.4441,9.4403,9.4172,9.3749,9.3672,9.3672,9.3672,9.3672,9.3672,9.3672,9.3708,9.3708,9.3672,9.2172,9.1595,9.1941,9.1254,9.0181,8.8902,8.7252,8.5406,8.3317,8.2035,8.0619,7.8846,7.8769,7.8562,7.8083,7.7716,7.7839,7.8707,7.8767,7.896,7.9392,8.0568,8.1837,8.3195,8.3638,8.3847,8.366,8.2909,8.3007,8.4181,8.4723,8.5464,8.6549,8.7791,8.8594,8.8828,8.957,9.0,9.0117,9.0898,9.1562,9.2031,9.2851,9.3711,9.4492,9.5,9.5508,9.6445,9.6836,9.7304,9.7656,9.7422,9.7148,9.7109,9.6797,9.6406,9.5976,9.5898,9.5547,9.4765,9.4609,9.4375,9.3905,9.3785,9.37,9.3548,9.3037,9.258,9.2518,9.1941,9.1748,9.1979,9.1595,9.1479,9.171,9.1556,9.121,10.4174,10.4174,10.3982,10.3905,10.3828,10.3174,10.2904,10.2789,10.1981,10.0866,9.9635,9.8557,9.798,9.775,9.7134,9.6865,9.6865,9.6865,9.6865,9.6865,9.6865,9.6865,9.6865,9.6865,9.6403,9.5634,9.5557,9.5134,9.4364,9.4287,9.4287,9.4287,9.4287,9.4287,9.4287,9.4287,9.4287,9.4287,9.4285,9.417,9.4018,9.3982,9.3366,9.2133,9.1175,8.9636,8.7401,8.6445,8.495,8.2731,8.2539,8.2112,8.133,8.1222,8.1491,8.2131,8.2078,8.2309,8.3093,8.3984,8.483,8.5665,8.5753,8.6372,8.7594,8.6445,8.5681,8.6223,8.6786,8.7545,8.8321,8.9274,8.9922,9.0117,9.0525,9.082,9.0898,9.2087,9.299,9.3185,9.4278,9.5078,9.5411,9.5997,9.6523,9.6836,9.7377,9.7823,9.7901,9.7994,9.8106,9.8032,9.7885,9.7422,9.6836,9.6679,9.6289,9.5514,9.5312,9.503,9.477,9.4646,9.4613,9.4292,9.3698,9.3243,9.3018,9.2479,9.221,9.2595,9.2364,9.2095,9.2595,9.2326,9.1825,10.4982,10.4866,10.4251,10.3905,10.3943,10.3828,10.3789,10.3674,10.2866,10.2443,10.202,10.0558,9.9404,9.875,9.8557,9.8481,9.8481,9.8557,9.8519,9.8481,9.8557,9.8557,9.8481,9.8519,9.8096,9.7326,9.7211,9.6826,9.6095,9.6057,9.6057,9.6057,9.6057,9.6057,9.6057,9.6057,9.6057,9.6057,9.6057,9.5672,9.4941,9.4866,9.4789,9.4634,9.3787,9.2518,9.071,8.9906,8.864,8.703,8.6757,8.6368,8.5593,8.5517,8.5555,8.5555,8.4933,8.4901,8.5714,8.6555,8.7358,8.8238,8.8291,8.8717,8.9598,8.9483,8.9056,8.8709,8.8517,8.8786,8.8979,8.9864,9.0547,9.0881,9.2004,9.2922,9.2922,9.3661,9.4262,9.4245,9.4729,9.5041,9.5673,9.6273,9.6836,9.7472,9.7973,9.8394,9.8525,9.8862,9.9129,9.9039,9.847,9.7717,9.7392,9.7297,9.6798,9.5904,9.5664,9.5418,9.4976,9.4666,9.4439,9.4767,9.4236,9.398,9.3903,9.3672,9.3403,9.348,9.3441,9.3441,9.3557,9.3403,9.3287,10.5867,10.5828,10.552,10.5366,10.5328,10.4828,10.4597,10.452,10.3712,10.3366,10.3251,10.2097,10.0827,9.9558,9.9058,9.8788,9.8788,9.8788,9.8788,9.8788,9.8788,9.8788,9.8788,9.8788,9.8596,9.8288,9.8288,9.8096,9.7827,9.775,9.7788,9.7788,9.7788,9.7788,9.7788,9.7787,9.7787,9.7788,9.7787,9.7364,9.6519,9.6019,9.5518,9.5018,9.4634,9.3941,9.2787,9.2287,9.1364,8.9829,8.9636,8.9021,8.7714,8.7671,8.7632,8.7598,8.7358,8.7281,8.7602,8.7983,8.8748,9.0047,9.021,9.0752,9.2014,9.2133,9.2018,9.1675,9.1245,9.1202,9.1864,9.2328,9.2657,9.2896,9.3495,9.3921,9.393,9.4626,9.5168,9.5206,9.5739,9.6165,9.6507,9.711,9.7634,9.8082,9.8558,9.9022,9.9129,9.9347,9.9436,9.9452,9.9048,9.8574,9.8021,9.7413,9.7027,9.6653,9.6474,9.6203,9.5864,9.5676,9.5674,9.5481,9.5018,9.4711,9.4634,9.4134,9.3787,9.4134,9.4441,9.4441,9.448,9.4057,9.4095,10.6597,10.6444,10.6636,10.6867,10.7021,10.6174,10.579,10.5674,10.4713,10.4251,10.4135,10.3328,10.2289,10.1096,9.9981,9.9481,9.9481,9.9481,9.9481,9.9481,9.9481,9.9481,9.9481,9.9481,9.925,9.8904,9.9058,9.9019,9.8827,9.8788,9.8788,9.8788,9.8788,9.8788,9.8788,9.8788,9.8788,9.875,9.8788,9.8518,9.7827,9.7288,9.648,9.548,9.5365,9.4943,9.4095,9.4093,9.34,9.1982,9.1902,9.1328,9.0175,9.0094,8.9902,8.9483,8.9859,8.9859,8.9448,8.9793,9.0594,9.1703,9.1902,9.2482,9.3672,9.4093,9.421,9.4328,9.3862,9.382,9.3823,9.3982,9.4059,9.421,9.4364,9.4557,9.4595,9.5328,9.5978,9.6211,9.6784,9.7384,9.7704,9.8129,9.8447,9.8696,9.922,9.9693,9.9784,9.9865,10.0058,9.9981,9.9865,9.9351,9.8673,9.816,9.767,9.7403,9.7362,9.7052,9.6826,9.6711,9.648,9.5903,9.5557,9.5441,9.5403,9.4864,9.448,9.5057,9.5326,9.5288,9.5365,9.4788,9.5018,10.7175,10.6559,10.729,10.7944,10.8675,10.7829,10.7521,10.729,10.5751,10.5059,10.4943,10.4174,10.3789,10.352,10.1904,10.1212,10.1212,10.1212,10.1212,10.1212,10.1212,10.1212,10.1212,10.1173,10.0366,9.925,9.9635,9.9558,9.8865,9.8865,9.8788,9.8865,9.8942,9.8865,9.8942,9.8981,9.8827,9.8981,9.8981,9.8827,9.875,9.8711,9.7865,9.648,9.6249,9.5865,9.5097,9.4943,9.452,9.3637,9.3559,9.348,9.3361,9.3361,9.2595,9.1441,9.2515,9.2669,9.1521,9.2364,9.3358,9.3551,9.3559,9.3983,9.4905,9.5172,9.548,9.6134,9.6095,9.5555,9.4362,9.4289,9.4099,9.4097,9.4672,9.5057,9.5095,9.6019,9.6596,9.725,9.7673,9.8132,9.9088,9.9016,9.9054,9.9404,9.9788,10.0172,10.0365,10.0788,10.1019,10.0943,10.0519,9.9865,9.9325,9.8786,9.8711,9.8481,9.7904,9.748,9.7211,9.6942,9.6596,9.6326,9.6134,9.6057,9.6172,9.6134,9.5942,9.6057,9.6019,9.6019,9.5903,9.6134,9.6211,10.6674,10.6444,10.6751,10.7367,10.8021,10.7213,10.7213,10.7559,10.6444,10.5944,10.579,10.502,10.4674,10.4636,10.3482,10.2943,10.2943,10.2981,10.2981,10.2943,10.2981,10.2981,10.2904,10.2443,10.1904,10.1212,10.0481,9.9942,9.975,10.0135,10.0404,10.0404,10.0404,10.0404,10.0404,10.0404,10.0404,10.0404,10.0404,10.0134,9.9673,9.9635,9.9058,9.7942,9.7365,9.6903,9.6634,9.6095,9.5443,9.456,9.4559,9.4289,9.3751,9.3713,9.3443,9.2941,9.3361,9.3438,9.2945,9.3366,9.3941,9.4513,9.5095,9.5712,9.6519,9.7096,9.7596,9.7788,9.7902,9.7479,9.7094,9.648,9.6135,9.6212,9.6903,9.7326,9.748,9.7711,9.8019,9.8288,9.8442,9.8634,9.9095,9.9365,9.9712,9.9904,10.0481,10.0827,10.0981,10.1212,10.1289,10.1289,10.1096,10.0789,10.0635,9.9481,9.8865,9.8788,9.8442,9.8019,9.7673,9.7442,9.7173,9.6711,9.6557,9.6365,9.6326,9.6249,9.6288,9.6288,9.6288,9.6288,9.6288,9.6288,9.6288,10.6597,10.679,10.6828,10.7328,10.7944,10.7175,10.7136,10.7598,10.679,10.6405,10.629,10.579,10.552,10.5443,10.4943,10.4713,10.4636,10.4174,10.3866,10.3905,10.3905,10.3905,10.3789,10.3289,10.2712,10.202,10.0789,10.0096,10.0212,10.1173,10.1712,10.1712,10.1712,10.175,10.1712,10.1481,10.1289,10.1289,10.1289,10.1019,10.0558,10.0442,10.0211,9.9596,9.8788,9.821,9.7941,9.7402,9.6826,9.6326,9.6249,9.5828,9.5058,9.4943,9.4789,9.4595,9.4785,9.4939,9.4982,9.5174,9.5634,9.6168,9.6711,9.7366,9.7904,9.8442,9.875,9.8788,9.8788,9.8788,9.8749,9.8481,9.8212,9.8058,9.8481,9.8788,9.8788,9.875,9.8904,9.9173,9.9519,9.9635,9.9673,10.0173,10.0442,10.048,10.1019,10.1289,10.1289,10.1289,10.1289,10.1289,10.1289,10.1212,10.1096,10.0366,9.9942,9.9827,9.9365,9.8827,9.8365,9.8096,9.7711,9.7211,9.6865,9.6596,9.6442,9.6326,9.6288,9.6288,9.6288,9.6288,9.6288,9.6288,9.6288,10.6905,10.7521,10.7675,10.7982,10.8482,10.779,10.7636,10.7521,10.679,10.6405,10.6367,10.6328,10.6251,10.629,10.6136,10.6251,10.5944,10.4789,10.4174,10.4135,10.4135,10.4097,10.4135,10.3866,10.2866,10.1481,10.0596,10.0212,10.0404,10.1827,10.2597,10.2597,10.2597,10.2597,10.2597,10.1943,10.1481,10.1558,10.1597,10.1443,10.1327,10.1443,10.1404,10.125,10.0596,9.9865,9.9056,9.8825,9.8518,9.8557,9.8557,9.8327,9.7442,9.7288,9.7094,9.6519,9.7017,9.7402,9.7479,9.8018,9.8249,9.8403,9.8711,9.8673,9.8789,9.8942,9.9058,9.9096,9.9058,9.8981,9.9135,9.9558,9.9673,9.898,9.8981,9.9096,9.9019,9.8904,9.9173,10.0058,10.0712,10.1212,10.125,10.1173,10.1135,10.1173,10.125,10.1404,10.1443,10.1404,10.1289,10.1366,10.1366,10.1289,10.1289,10.125,10.1212,10.1096,10.0442,9.9865,9.9442,9.9135,9.8634,9.8173,9.7711,9.7442,9.6788,9.6673,9.6442,9.6403,9.6365,9.6326,9.6288,9.6288,9.6288,10.6559,10.679,10.6828,10.729,10.7905,10.7175,10.7136,10.7598,10.679,10.6405,10.6405,10.6405,10.6405,10.6405,10.6405,10.6405,10.6328,10.5828,10.5636,10.5559,10.5559,10.5559,10.5405,10.4441,10.298,10.1634,10.1712,10.1827,10.1981,10.2943,10.3482,10.3482,10.3482,10.3482,10.3482,10.3213,10.3098,10.3097,10.3098,10.3098,10.3058,10.3097,10.3058,10.3058,10.2828,10.2597,10.2251,10.0058,9.8865,9.8865,9.8789,9.8673,9.8481,9.8403,9.8249,9.8095,9.825,9.8404,9.8404,9.8673,9.8904,9.8942,9.9365,9.9673,9.9788,10.0211,10.0519,10.0519,10.0558,10.0519,10.0558,10.075,10.0596,9.9788,10.0173,10.0481,10.0519,10.0519,10.0943,10.1558,10.152,10.1558,10.1904,10.1827,10.1481,10.1443,10.1404,10.1558,10.1981,10.175,10.1635,10.202,10.1712,10.1481,10.1712,10.1712,10.1558,10.1481,10.1058,10.0596,10.025,10.0019,9.9558,9.9058,9.8634,9.8096,9.7442,9.7096,9.698,9.6634,9.6557,9.648,9.6326,9.6442,9.6711,10.6405,10.6405,10.6405,10.6713,10.7136,10.6597,10.6713,10.7098,10.6636,10.6405,10.6405,10.6405,10.6405,10.6405,10.6405,10.6405,10.6405,10.6405,10.6405,10.6405,10.6405,10.6405,10.6174,10.4672,10.3403,10.248,10.252,10.2597,10.2674,10.3751,10.4366,10.4328,10.4328,10.4328,10.4251,10.3752,10.352,10.3789,10.3558,10.3558,10.3828,10.3905,10.3864,10.3905,10.3866,10.3866,10.3713,10.1749,10.0672,10.0634,10.0404,10.0096,9.9827,9.9712,9.9596,9.9442,9.9865,10.025,10.025,10.0634,10.0673,10.0788,10.1173,10.1519,10.1596,10.2057,10.2251,10.2289,10.1943,10.1904,10.2135,10.1943,10.1673,10.1557,10.1635,10.1943,10.2135,10.2251,10.2443,10.2828,10.2635,10.2597,10.2751,10.2712,10.2289,10.2251,10.2289,10.2135,10.2558,10.2443,10.2597,10.2558,10.2174,10.2135,10.2289,10.2135,10.1866,10.1712,10.1481,10.1096,10.075,10.0673,10.0366,9.9788,9.9288,9.8904,9.8288,9.8057,9.7865,9.7442,9.7096,9.7365,9.7557,9.748,9.7634,10.6559,10.6559,10.6559,10.6636,10.6636,10.6559,10.6559,10.6444,10.6405,10.6405,10.6405,10.6405,10.6405,10.6405,10.6405,10.6405,10.6405,10.6405,10.6405,10.6405,10.6405,10.6367,10.5982,10.4713,10.402,10.3751,10.3212,10.2943,10.3328,10.452,10.5174,10.5174,10.5174,10.5097,10.4789,10.3518,10.3328,10.3751,10.3247,10.3403,10.402,10.4134,10.4172,10.4172,10.4211,10.4251,10.4212,10.3941,10.3788,10.3752,10.2789,10.2097,10.1597,10.1443,10.1174,10.0635,10.1828,10.2327,10.2751,10.2904,10.3406,10.3367,10.3405,10.3864,10.3516,10.3441,10.3558,10.3558,10.3058,10.2944,10.3406,10.3136,10.302,10.3635,10.3097,10.302,10.3712,10.3751,10.3712,10.3866,10.3943,10.3905,10.3867,10.3789,10.3674,10.3674,10.3635,10.3366,10.3174,10.3212,10.3251,10.302,10.2558,10.2135,10.2058,10.1981,10.1712,10.1597,10.152,10.1327,10.1096,10.1058,10.1019,10.0481,10.0019,9.9596,9.925,9.8981,9.8673,9.8288,9.8327,9.8711,9.8634,9.8365,9.8327,10.8252,10.8252,10.8252,10.7905,10.7405,10.7367,10.6982,10.6444,10.6444,10.6521,10.6405,10.6405,10.6444,10.6405,10.6405,10.6405,10.6405,10.6444,10.6405,10.6405,10.6405,10.602,10.5518,10.5059,10.4751,10.4753,10.4482,10.4789,10.5405,10.5751,10.602,10.6059,10.5982,10.5674,10.5059,10.4595,10.4211,10.402,10.4364,10.4518,10.4828,10.5443,10.571,10.5751,10.5713,10.5713,10.5751,10.5751,10.5095,10.398,10.3711,10.348,10.3174,10.3175,10.2982,10.2905,10.3213,10.356,10.3595,10.3826,10.3903,10.3903,10.4057,10.3862,10.3901,10.3903,10.3905,10.3866,10.3635,10.3675,10.3829,10.3751,10.398,10.452,10.4097,10.3751,10.3943,10.3905,10.4097,10.4597,10.4289,10.4289,10.4482,10.4251,10.3905,10.3864,10.3941,10.402,10.3866,10.3674,10.3597,10.3212,10.2751,10.2097,10.1712,10.1635,10.1558,10.1481,10.1404,10.1366,10.125,10.1212,10.1212,10.1019,10.0789,10.0404,10.0058,9.975,9.9442,9.9211,9.9096,9.9211,9.8942,9.8711,9.8788,10.8906,10.8906,10.8906,10.8636,10.8213,10.8213,10.7905,10.7521,10.7444,10.7251,10.7098,10.7328,10.7059,10.6482,10.679,10.6713,10.6482,10.679,10.6751,10.6405,10.6405,10.6136,10.5674,10.5366,10.5251,10.5559,10.5251,10.5559,10.6213,10.6405,10.6405,10.6367,10.6405,10.6097,10.5713,10.5251,10.5097,10.4982,10.5136,10.5407,10.6174,10.6674,10.7136,10.7251,10.7136,10.6828,10.6482,10.6367,10.5864,10.5095,10.4634,10.4403,10.4364,10.4405,10.4251,10.3982,10.4522,10.4828,10.4557,10.471,10.4941,10.498,10.4941,10.4941,10.498,10.4982,10.4943,10.4982,10.4674,10.4636,10.4906,10.4982,10.5133,10.552,10.5213,10.4943,10.4943,10.502,10.5174,10.5328,10.4982,10.4559,10.5018,10.4366,10.402,10.3941,10.4289,10.4366,10.4366,10.4097,10.3828,10.352,10.3443,10.3058,10.2674,10.2558,10.1981,10.1789,10.1366,10.1327,10.1289,10.1289,10.1289,10.125,10.1289,10.1173,10.075,10.0481,10.0481,10.0212,9.9904,9.9788,9.9712,9.9481,9.9558,10.9175,10.9175,10.9175,10.9098,10.906,10.9021,10.8906,10.8829,10.8713,10.8406,10.8059,10.8559,10.7982,10.6713,10.7521,10.7444,10.6828,10.7559,10.7213,10.6867,10.6636,10.6521,10.6213,10.5674,10.5713,10.6097,10.5559,10.5751,10.6251,10.6405,10.6405,10.6405,10.6405,10.629,10.5905,10.5405,10.5482,10.5559,10.5291,10.5792,10.6908,10.7405,10.7864,10.8444,10.8098,10.7521,10.7021,10.6713,10.6521,10.6521,10.5672,10.5287,10.521,10.521,10.4941,10.4636,10.5443,10.5905,10.548,10.5826,10.6251,10.6174,10.6213,10.6405,10.6213,10.6136,10.6097,10.6059,10.5633,10.5636,10.5982,10.629,10.6213,10.6213,10.629,10.6328,10.629,10.629,10.629,10.6213,10.5443,10.5059,10.4789,10.4405,10.3866,10.3905,10.4212,10.4251,10.4251,10.402,10.3943,10.3982,10.402,10.4212,10.3905,10.3635,10.2828,10.2174,10.1558,10.1327,10.1289,10.1289,10.1289,10.1289,10.1289,10.1289,10.1212,10.1135,10.1135,10.1058,10.0635,10.0866,10.1096,10.0712,10.0596,11.0944,11.0944,11.0944,11.056,10.9983,10.9906,10.9521,10.8944,10.8944,10.8906,10.8713,10.8867,10.8713,10.8329,10.8482,10.8521,10.8252,10.8444,10.8175,10.7521,10.7405,10.6982,10.6559,10.6174,10.6251,10.6328,10.6251,10.6251,10.6367,10.6405,10.6405,10.6405,10.6367,10.6097,10.5482,10.5405,10.4828,10.4674,10.4905,10.583,10.6869,10.7594,10.8244,10.8902,10.8752,10.8562,10.8293,10.7754,10.7446,10.7175,10.6597,10.602,10.602,10.6059,10.5905,10.5867,10.602,10.629,10.6174,10.6251,10.6405,10.6405,10.6405,10.6405,10.6405,10.6405,10.6405,10.6405,10.6251,10.6174,10.6367,10.6405,10.6405,10.6405,10.6405,10.6174,10.5597,10.5403,10.5441,10.5251,10.4674,10.4135,10.4135,10.3982,10.3751,10.3866,10.3943,10.402,10.3943,10.3828,10.3905,10.3982,10.3712,10.3635,10.3212,10.2943,10.2481,10.2058,10.1635,10.1327,10.1327,10.1289,10.1289,10.1289,10.1289,10.1289,10.1289,10.1289,10.1212,10.1289,10.1289,10.1289,10.1289,10.1289,10.1289,11.1522,11.1522,11.1522,11.1252,11.0868,11.0791,11.056,11.0175,11.0137,10.9867,10.9675,10.9906,10.9675,10.8983,10.929,10.9329,10.8944,10.8906,10.8906,10.8713,10.8521,10.779,10.7175,10.6944,10.6867,10.6521,10.6405,10.6405,10.6405,10.6405,10.6405,10.6405,10.6405,10.6251,10.579,10.5713,10.5828,10.5905,10.6097,10.6908,10.8062,10.8636,10.8975,10.944,10.9444,10.9213,10.829,10.7902,10.7521,10.7098,10.6674,10.6405,10.6405,10.6405,10.6405,10.6405,10.6405,10.6405,10.6405,10.6405,10.6405,10.6405,10.6405,10.6405,10.6405,10.6405,10.6405,10.6405,10.6405,10.6405,10.6405,10.6405,10.6405,10.6405,10.6405,10.6174,10.579,10.5364,10.4903,10.452,10.3789,10.3405,10.3251,10.3366,10.2904,10.2712,10.3251,10.3366,10.3482,10.3405,10.3635,10.3597,10.3174,10.2789,10.2289,10.1981,10.1712,10.152,10.1443,10.1327,10.1289,10.1289,10.1289,10.1289,10.1289,10.1289,10.1289,10.1289,10.1289,10.1289,10.1289,10.1289,10.1289,10.1289,10.1289,11.1522,11.1522,11.1522,11.1522,11.1522,11.1483,11.1445,11.1445,11.1522,11.0944,11.0598,11.1214,11.056,10.9752,11.0098,10.9906,10.956,10.9406,10.9752,10.9829,10.9367,10.8636,10.8021,10.779,10.7598,10.6828,10.6521,10.6444,10.6405,10.6405,10.6405,10.6444,10.6636,10.6521,10.6444,10.6597,10.679,10.7254,10.7367,10.8255,10.9604,10.9983,11.0056,11.0367,11.0367,10.9709,10.871,10.8133,10.7594,10.6674,10.6482,10.6482,10.6559,10.6444,10.6559,10.6559,10.6559,10.6636,10.6944,10.6828,10.6674,10.6597,10.6636,10.6521,10.6444,10.6405,10.6405,10.6405,10.6405,10.6405,10.6405,10.6405,10.6405,10.6405,10.6405,10.6328,10.6097,10.548,10.4864,10.4328,10.3789,10.3366,10.302,10.2904,10.2174,10.1789,10.2366,10.2751,10.2943,10.2981,10.3174,10.2943,10.2443,10.2251,10.1789,10.1673,10.1327,10.1289,10.1289,10.1289,10.1289,10.1289,10.1289,10.1289,10.1289,10.1289,10.1289,10.1289,10.1289,10.1289,10.1289,10.1289,10.1289,10.1289,10.1289,11.1522,11.1522,11.1522,11.1522,11.1522,11.1522,11.1522,11.1522,11.1522,11.1445,11.1329,11.1445,11.1329,11.106,11.1175,11.1137,11.0868,11.0791,11.0637,11.0406,11.0021,10.9521,10.8867,10.8713,10.8559,10.8136,10.7328,10.6636,10.6559,10.6405,10.6713,10.6674,10.7175,10.7213,10.6944,10.7059,10.76,10.8024,10.8017,10.8829,10.9948,11.0329,11.0594,11.106,11.1137,11.0555,10.9748,10.9021,10.8332,10.7562,10.679,10.6905,10.7172,10.6905,10.6944,10.7213,10.6982,10.7136,10.7947,10.7793,10.7562,10.7485,10.7485,10.7059,10.6674,10.6444,10.6521,10.6405,10.6405,10.6405,10.6405,10.6405,10.6405,10.6405,10.6367,10.6174,10.5636,10.5366,10.5172,10.4905,10.4251,10.3558,10.3289,10.3135,10.2943,10.2789,10.3097,10.3135,10.302,10.2828,10.2635,10.2212,10.1558,10.152,10.1404,10.1404,10.1289,10.1289,10.1289,10.1289,10.1289,10.1289,10.1289,10.1289,10.1289,10.1289,10.1289,10.1289,10.1289,10.1289,10.1289,10.1289,10.1289,10.1289,10.1289,11.1522,11.1522,11.1522,11.1522,11.1522,11.1522,11.1522,11.1522,11.1522,11.1522,11.1522,11.1522,11.1522,11.1522,11.1522,11.1522,11.1522,11.1522,11.1252,11.0906,11.0829,11.0406,10.9675,10.956,10.9252,10.8787,10.8017,10.7675,10.7713,10.7752,10.7636,10.779,10.8175,10.8098,10.7867,10.8101,10.8562,10.8793,10.9017,10.9556,11.0718,11.0868,11.1175,11.1368,11.1483,11.1017,11.0286,10.9871,10.9181,10.8409,10.7908,10.7982,10.8059,10.8017,10.7905,10.8178,10.7905,10.7944,10.8716,10.8482,10.8325,10.8287,10.829,10.7908,10.7369,10.7059,10.6867,10.6521,10.6405,10.6405,10.6405,10.6405,10.6405,10.6405,10.6405,10.6174,10.5905,10.579,10.5751,10.5559,10.4634,10.402,10.3789,10.3751,10.3828,10.3866,10.3943,10.3674,10.3328,10.3135,10.2943,10.2251,10.175,10.152,10.1481,10.1481,10.1366,10.1327,10.1327,10.1327,10.1366,10.1366,10.1327,10.1289,10.1289,10.1289,10.1289,10.1289,10.1289,10.1289,10.1289,10.1289,10.1289,10.1289,10.1289,11.1314,11.1522,11.1522,11.1522,11.1522,11.1522,11.1522,11.1522,11.1522,11.1522,11.1522,11.1522,11.1522,11.1522,11.1522,11.1522,11.1522,11.1522,11.1483,11.1445,11.1406,11.106,11.0632,11.0406,11.0214,10.9786,10.9517,10.9213,10.8713,10.8675,10.8829,10.879,10.8944,10.9021,10.8867,10.8944,10.9643,10.9948,11.0214,11.0632,11.1291,11.1522,11.1522,11.1522,11.1522,11.1055,11.0286,11.0098,10.964,10.9063,10.8832,10.8906,10.9136,10.9171,10.9248,10.9332,10.9094,10.9098,10.9406,10.9213,10.921,10.921,10.9175,10.8675,10.8098,10.7675,10.7367,10.6828,10.6444,10.6405,10.6405,10.6405,10.6405,10.6405,10.6405,10.6367,10.6328,10.6251,10.6213,10.5749,10.4941,10.4672,10.4674,10.4789,10.4982,10.4982,10.502,10.4597,10.4289,10.4135,10.3789,10.2866,10.2212,10.1827,10.1712,10.1712,10.152,10.1327,10.1366,10.1404,10.1443,10.1481,10.1481,10.1558,10.1289,10.1289,10.1289,10.1289,10.1289,10.1289,10.1289,10.1289,10.1289,10.1289,10.1289,11.0788,11.1522,11.1522,11.1522,11.1522,11.1522,11.1522,11.1522,11.1522,11.1522,11.1522,11.1522,11.1522,11.1522,11.1522,11.1522,11.1522,11.1522,11.1522,11.1522,11.1522,11.1445,11.1329,11.1329,11.1137,11.0825,11.0983,11.0252,10.9521,10.9175,10.9021,10.9213,10.9713,10.9752,10.9367,10.979,11.0098,11.0217,11.0252,11.0632,11.1368,11.1522,11.1522,11.1522,11.1445,11.1175,11.0479,11.0367,10.994,10.9248,10.9056,10.9363,10.9902,11.0056,11.0517,11.0483,11.0098,10.956,11.0598,11.0402,11.0056,11.0056,11.0056,10.9594,10.8902,10.8175,10.7752,10.7598,10.6982,10.6597,10.6597,10.6482,10.6444,10.6444,10.6482,10.6444,10.6405,10.6405,10.6405,10.6367,10.5595,10.5749,10.5905,10.602,10.6174,10.6136,10.602,10.5559,10.5136,10.4905,10.4559,10.3635,10.302,10.2597,10.2404,10.2327,10.2135,10.175,10.1789,10.1827,10.2058,10.2212,10.202,10.1981,10.1673,10.1366,10.1289,10.1289,10.1289,10.1289,10.1289,10.1289,10.1289,10.1289,10.1289,11.0014,11.0788,11.1275,11.1522,11.1522,11.1522,11.1522,11.1522,11.1522,11.1522,11.1522,11.1522,11.1522,11.1522,11.1522,11.1522,11.1522,11.1522,11.1522,11.1522,11.1522,11.1522,11.1483,11.1522,11.1522,11.1637,11.1483,11.1214,11.0483,11.0367,11.0367,11.0367,11.0675,11.0829,11.0214,11.0714,11.0906,11.0944,11.0983,11.1175,11.1445,11.1522,11.1522,11.156,11.156,11.1329,11.1055,11.0902,11.0786,11.0363,11.0363,11.0517,11.0825,11.094,11.1175,11.1291,11.0868,11.0791,11.1291,11.1098,11.094,11.0902,11.0863,11.0555,10.9709,10.8902,10.8136,10.7713,10.7831,10.76,10.7213,10.7136,10.7136,10.7059,10.6867,10.6636,10.6559,10.6405,10.6405,10.6405,10.6405,10.6444,10.6444,10.6367,10.6328,10.629,10.6251,10.6059,10.5636,10.529,10.4905,10.4405,10.3905,10.352,10.3366,10.3251,10.3212,10.2981,10.2943,10.302,10.3135,10.3135,10.2866,10.2558,10.2251,10.1904,10.1481,10.1289,10.1289,10.1289,10.1289,10.1289,10.1289,10.1289,10.1289,10.9423,11.0267,11.1101,11.1522,11.1522,11.1522,11.1522,11.1522,11.1522,11.1522,11.1522,11.1522,11.1522,11.1522,11.1522,11.1522,11.1522,11.1522,11.1522,11.1522,11.156,11.1637,11.1829,11.1868,11.1983,11.206,11.1983,11.1983,11.2099,11.1868,11.1598,11.156,11.1329,11.1406,11.1483,11.1406,11.1406,11.1406,11.1406,11.1598,11.1829,11.1868,11.2022,11.2137,11.2099,11.2022,11.1829,11.1791,11.1752,11.1406,11.1329,11.1329,11.1406,11.1406,11.1406,11.156,11.1445,11.1522,11.1598,11.1445,11.1522,11.1522,11.1483,11.1137,11.0594,10.9752,10.9098,10.8559,10.8524,10.8447,10.8216,10.7982,10.7982,10.7829,10.7559,10.7213,10.7021,10.7136,10.7059,10.6982,10.6905,10.6636,10.6559,10.6444,10.6405,10.6405,10.6405,10.6405,10.6097,10.5713,10.5328,10.4943,10.4982,10.4443,10.3905,10.3866,10.3943,10.4059,10.4059,10.4097,10.4097,10.3905,10.3635,10.3289,10.2943,10.2404,10.1981,10.1635,10.1289,10.1289,10.1289,10.1289,10.1289,10.1327,10.1481,10.9423,11.0267,11.1101,11.1522,11.1522,11.1522,11.1522,11.1522,11.1522,11.1522,11.1522,11.1522,11.1522,11.1522,11.1522,11.1522,11.1522,11.1522,11.1598,11.1598,11.1598,11.2022,11.2368,11.2714,11.2945,11.3407,11.3022,11.306,11.3407,11.2829,11.2252,11.1637,11.1791,11.1637,11.156,11.1598,11.1637,11.1637,11.1714,11.2022,11.2368,11.2594,11.294,11.3522,11.3681,11.345,11.268,11.2522,11.2252,11.1714,11.1675,11.1675,11.1714,11.1868,11.1945,11.206,11.2368,11.2329,11.2099,11.1791,11.156,11.1522,11.1483,11.1445,11.1175,11.056,11.0098,10.9786,10.9525,10.914,10.8944,10.8787,10.8825,10.8713,10.8444,10.8213,10.8098,10.8252,10.8136,10.7752,10.7521,10.7328,10.7213,10.7175,10.6559,10.6521,10.6405,10.6405,10.6405,10.6059,10.5751,10.5559,10.5905,10.5443,10.4328,10.4328,10.4789,10.4751,10.4636,10.4789,10.4943,10.4713,10.452,10.4135,10.3789,10.3097,10.2443,10.202,10.1673,10.1404,10.1289,10.1289,10.1404,10.152,10.1866,10.9119,10.9541,11.0922,11.1522,11.1522,11.1522,11.1522,11.1522,11.1522,11.1522,11.1522,11.1522,11.1522,11.1522,11.1522,11.1522,11.1522,11.1522,11.1791,11.2099,11.2329,11.2714,11.3219,11.3522,11.3714,11.3939,11.3676,11.356,11.383,11.3637,11.3483,11.2983,11.2599,11.2291,11.2175,11.1906,11.1906,11.2175,11.2252,11.2445,11.2676,11.3286,11.367,11.3907,11.3984,11.383,11.3445,11.295,11.256,11.2329,11.2252,11.2252,11.2329,11.2637,11.2868,11.295,11.3334,11.3214,11.2906,11.2483,11.206,11.156,11.1522,11.1522,11.1522,11.1137,11.0675,11.0444,11.0406,11.0175,10.9752,10.9671,10.9671,10.956,10.9406,10.9175,10.9136,10.9252,10.9021,10.8598,10.8444,10.8329,10.8175,10.8062,10.729,10.6636,10.6521,10.6405,10.6405,10.6405,10.6059,10.5905,10.6213,10.6328,10.529,10.5405,10.5713,10.5482,10.5251,10.5443,10.5636,10.5828,10.5597,10.5174,10.4559,10.3828,10.3135,10.2481,10.1943,10.152,10.1327,10.1289,10.1481,10.1635,10.2058,10.8634,10.9019,11.0214,11.1055,11.1478,11.1522,11.1522,11.1522,11.1522,11.1522,11.1522,11.1522,11.1522,11.1522,11.1522,11.1522,11.1522,11.1598,11.206,11.2368,11.2714,11.3411,11.4027,11.445,11.4561,11.4555,11.4484,11.4484,11.4907,11.4522,11.4561,11.4445,11.3945,11.3522,11.2945,11.2637,11.256,11.2945,11.306,11.3334,11.356,11.4016,11.4632,11.4791,11.4907,11.4676,11.4407,11.3945,11.3483,11.3214,11.3099,11.3099,11.3291,11.356,11.3907,11.4104,11.422,11.4291,11.3863,11.3214,11.2445,11.206,11.1598,11.156,11.1522,11.1522,11.1137,11.0786,11.1137,11.1252,11.056,11.0598,11.0555,11.0483,11.0329,11.0137,11.0098,11.0137,10.9752,10.9367,10.929,10.9175,10.8713,10.8482,10.7982,10.7175,10.6597,10.6482,10.6405,10.6405,10.6328,10.6251,10.6328,10.6367,10.6328,10.6174,10.602,10.602,10.5867,10.602,10.6251,10.6405,10.6328,10.579,10.5174,10.452,10.3943,10.3366,10.2443,10.1481,10.1443,10.152,10.1366,10.1558,10.2058,10.8129,10.8829,10.8956,10.9959,11.1269,11.144,11.144,11.1522,11.1522,11.1522,11.1522,11.1522,11.1522,11.1522,11.1522,11.1522,11.156,11.1598,11.2099,11.2753,11.3214,11.3907,11.4714,11.533,11.5484,11.6022,11.5715,11.5561,11.6176,11.5561,11.5676,11.583,11.5291,11.4676,11.4022,11.3907,11.3945,11.3984,11.3989,11.4412,11.4791,11.5099,11.5599,11.5869,11.6022,11.5715,11.5291,11.4945,11.4445,11.4066,11.3984,11.3978,11.4016,11.4214,11.4368,11.4324,11.4945,11.4868,11.4132,11.3253,11.2906,11.268,11.2214,11.1752,11.1598,11.1522,11.1483,11.1214,11.1445,11.1522,11.1406,11.1406,11.1329,11.1214,11.1021,11.0944,11.0868,11.0829,11.0444,11.0252,11.0137,10.9906,10.9367,10.8867,10.8521,10.7867,10.6944,10.6636,10.6713,10.6828,10.6982,10.6751,10.6751,10.6521,10.6521,10.6444,10.6328,10.6405,10.6405,10.6405,10.6405,10.6405,10.629,10.6174,10.579,10.5174,10.4751,10.4366,10.3289,10.2289,10.1866,10.175,10.152,10.1789,10.2635,10.7773,10.8129,10.8634,10.9242,10.9809,11.0372,11.0922,11.144,11.1522,11.1522,11.1522,11.1522,11.1522,11.1522,11.156,11.156,11.1598,11.2214,11.2753,11.356,11.4022,11.5022,11.5792,11.6022,11.6215,11.633,11.6176,11.6099,11.6407,11.6099,11.6176,11.6292,11.6138,11.5676,11.4868,11.4484,11.4176,11.4753,11.4868,11.5022,11.533,11.5792,11.6215,11.6484,11.6484,11.6292,11.5984,11.5676,11.5215,11.4868,11.4824,11.4862,11.4978,11.5138,11.5522,11.5599,11.6022,11.5984,11.5522,11.4945,11.4176,11.3604,11.2873,11.2329,11.2252,11.1752,11.1598,11.1522,11.1522,11.1522,11.1483,11.1483,11.1445,11.1445,11.1329,11.1368,11.1329,11.1329,11.1175,11.1137,11.1021,11.0906,11.0521,10.9906,10.9483,10.9252,10.8521,10.8021,10.8021,10.8059,10.8136,10.7598,10.7328,10.6905,10.6674,10.6482,10.6405,10.6405,10.6405,10.6405,10.6405,10.6405,10.6367,10.629,10.6059,10.5828,10.5328,10.4789,10.3982,10.3212,10.3097,10.2828,10.2712,10.3289,10.4174,10.7172,10.7249,10.7738,10.8199,10.8568,10.9326,11.0267,11.1008,11.1358,11.1637,11.1829,11.1675,11.1714,11.1868,11.1945,11.1906,11.2022,11.2791,11.3637,11.4445,11.4984,11.5676,11.6176,11.6484,11.6407,11.6484,11.6484,11.6484,11.6484,11.6484,11.6484,11.6484,11.6484,11.6138,11.5638,11.5291,11.5215,11.5638,11.5715,11.5715,11.5907,11.6138,11.6446,11.6484,11.6484,11.6446,11.633,11.6061,11.5715,11.5715,11.5715,11.5715,11.5907,11.6138,11.6484,11.6484,11.6484,11.6446,11.6215,11.6061,11.533,11.4989,11.383,11.306,11.2753,11.2252,11.1829,11.1637,11.1598,11.156,11.156,11.156,11.1598,11.1598,11.1522,11.1522,11.1522,11.1522,11.1483,11.1483,11.1483,11.1522,11.1483,11.1137,11.056,11.0367,11.0137,10.9675,10.9136,10.906,10.8906,10.829,10.7713,10.729,10.6828,10.6444,10.6405,10.6405,10.6521,10.6636,10.6405,10.6405,10.6405,10.6405,10.6251,10.602,10.5713,10.5174,10.4828,10.4713,10.4789,10.4482,10.4097,10.4405,10.502,10.6376,10.6376,10.6376,10.6888,10.7665,10.8502,10.9364,11.0214,11.1055,11.1781,11.2478,11.1671,11.1791,11.2445,11.256,11.256,11.2753,11.3522,11.433,11.5022,11.5407,11.5945,11.6292,11.6484,11.6484,11.6484,11.6484,11.6484,11.6484,11.6484,11.6484,11.6484,11.6484,11.6369,11.6253,11.6176,11.6138,11.6215,11.6253,11.6253,11.6292,11.6407,11.6484,11.6484,11.6484,11.6484,11.6446,11.633,11.633,11.6369,11.6407,11.6407,11.6446,11.6484,11.6484,11.6484,11.6484,11.6484,11.6484,11.633,11.633,11.5869,11.4939,11.3907,11.3214,11.2945,11.2483,11.2099,11.1945,11.1791,11.1675,11.1714,11.1714,11.1637,11.156,11.1522,11.1522,11.1522,11.1522,11.1522,11.1522,11.1522,11.1522,11.1291,11.1137,11.1098,11.0829,11.0483,11.0021,10.9675,10.9367,10.8671,10.8136,10.7598,10.7213,10.7059,10.7098,10.7328,10.7098,10.7136,10.679,10.6713,10.6905,10.6944,10.6559,10.6251,10.5982,10.602,10.6097,10.6059,10.579,10.552,10.4905,10.4636,10.4943,10.6376,10.6376,10.6376,10.6507,10.6807,10.7591,10.8435,10.9364,11.0176,11.0793,11.0907,11.1346,11.1632,11.1829,11.1868,11.2252,11.2868,11.3599,11.4445,11.5176,11.583,11.6215,11.6407,11.6484,11.6484,11.6484,11.6484,11.6484,11.6484,11.6484,11.6484,11.6484,11.6484,11.6484,11.6484,11.6484,11.6484,11.6439,11.64,11.6484,11.6484,11.6484,11.6484,11.6484,11.6484,11.6484,11.6484,11.6484,11.6484,11.6484,11.6484,11.6484,11.6484,11.6484,11.6484,11.6484,11.6484,11.6484,11.6484,11.6484,11.6484,11.6484,11.5907,11.5484,11.4714,11.3945,11.3291,11.2791,11.256,11.2445,11.2175,11.206,11.2099,11.206,11.1945,11.1752,11.1752,11.1752,11.1714,11.1522,11.1522,11.1522,11.1522,11.1483,11.1368,11.1483,11.1406,11.106,11.0791,11.0483,10.9944,10.921,10.8944,10.8559,10.8367,10.8213,10.8252,10.8252,10.7982,10.7867,10.7944,10.7867,10.779,10.7482,10.7059,10.6674,10.6328,10.6405,10.6405,10.6405,10.6174,10.602,10.5828,10.5443,10.529,10.6376,10.6376,10.6376,10.6376,10.6423,10.6931,10.7441,10.8096,10.9181,10.9923,11.0687,11.0854,11.1339,11.2022,11.2099,11.2483,11.333,11.4214,11.5061,11.5792,11.6253,11.6369,11.6484,11.6484,11.6484,11.6484,11.6484,11.6484,11.6484,11.6484,11.6484,11.6484,11.6484,11.6484,11.6484,11.6484,11.6224,11.6224,11.6224,11.64,11.6439,11.64,11.6484,11.6484,11.6484,11.6446,11.6484,11.6484,11.6484,11.6484,11.6484,11.6484,11.6484,11.6484,11.6484,11.6484,11.6484,11.6484,11.6484,11.6484,11.6484,11.6484,11.6484,11.6176,11.5676,11.4945,11.4176,11.3522,11.3368,11.3219,11.2791,11.2483,11.256,11.2637,11.2329,11.206,11.2022,11.2022,11.1829,11.1598,11.1522,11.1522,11.1522,11.1522,11.1522,11.1522,11.1522,11.1406,11.1252,11.1175,11.0598,10.9902,10.9786,10.9637,10.9444,10.9136,10.8983,10.8829,10.8598,10.8598,10.8906,10.879,10.8444,10.7982,10.7521,10.7213,10.6982,10.6521,10.6405,10.6444,10.6444,10.6251,10.6174,10.6097,10.6059,10.6376,10.6376,10.6376,10.6376,10.6376,10.646,10.6423,10.659,10.8026,10.9521,11.057,11.0373,11.0806,11.1487,11.1689,11.2521,11.3289,11.418,11.5163,11.6362,11.6407,11.6484,11.6484,11.6484,11.6484,11.6484,11.6484,11.6355,11.6355,11.6224,11.609,11.6309,11.609,11.5905,11.5817,11.5855,11.5581,11.5248,11.5533,11.5833,11.5982,11.6176,11.6355,11.6316,11.6324,11.6369,11.6446,11.6484,11.6484,11.6484,11.6484,11.6484,11.6484,11.6484,11.6484,11.6484,11.6484,11.6484,11.6484,11.6484,11.6484,11.6484,11.6484,11.6407,11.6022,11.5753,11.5022,11.4407,11.4214,11.4104,11.3714,11.3137,11.2983,11.306,11.2945,11.2791,11.2829,11.2599,11.2099,11.1791,11.1522,11.1522,11.1522,11.1522,11.1522,11.1522,11.1522,11.1522,11.1522,11.1522,11.1175,11.0517,11.0517,11.0444,11.0098,10.979,10.9521,10.9329,10.929,10.9444,10.9829,10.9521,10.9021,10.8675,10.8367,10.8021,10.7713,10.7213,10.6828,10.6713,10.6674,10.6444,10.6444,10.6559,10.6482,10.6376,10.6376,10.6376,10.6376,10.6376,10.6376,10.6376,10.6376,10.6763,10.7628,10.8455,10.9044,10.9439,10.9999,11.0132,11.108,11.2754,11.3393,11.4689,11.5716,11.6232,11.609,11.64,11.6147,11.6316,11.6484,11.64,11.6042,11.5663,11.5467,11.5172,11.4671,11.4671,11.479,11.4773,11.4756,11.4603,11.4225,11.4437,11.4561,11.4502,11.4611,11.4731,11.5238,11.5522,11.5939,11.6176,11.6484,11.6484,11.6484,11.6484,11.6484,11.6484,11.6484,11.6484,11.6484,11.6484,11.6484,11.6484,11.6484,11.6484,11.6484,11.6484,11.6484,11.6407,11.6292,11.5984,11.5445,11.5061,11.4868,11.4445,11.3791,11.3368,11.3445,11.3522,11.356,11.3599,11.306,11.2445,11.2022,11.1675,11.156,11.156,11.1522,11.1522,11.1522,11.1522,11.1522,11.1522,11.1522,11.1522,11.1094,11.1214,11.106,11.0714,11.0521,11.0329,11.0444,11.056,11.0675,11.0752,11.0329,10.9867,10.9637,10.929,10.8906,10.8444,10.7905,10.7521,10.7367,10.7136,10.7021,10.7021,10.7098,10.6828,10.5715,10.6339,10.6376,10.6376,10.6376,10.6376,10.6376,10.6376,10.6376,10.6636,10.7094,10.7955,10.8502,10.8829,10.8931,10.9623,11.1498,11.1953,11.3003,11.4333,11.5314,11.5266,11.5337,11.5472,11.526,11.5352,11.5282,11.5003,11.4671,11.4611,11.4263,11.3873,11.3806,11.3769,11.3826,11.3857,11.3586,11.329,11.3271,11.3095,11.3038,11.3375,11.3953,11.4578,11.5038,11.5447,11.583,11.6215,11.6484,11.6484,11.6484,11.6484,11.6484,11.6484,11.6484,11.6484,11.6484,11.6484,11.6484,11.6484,11.6484,11.6484,11.6484,11.6484,11.6484,11.6369,11.6369,11.5869,11.5324,11.5138,11.4247,11.3555,11.3599,11.3676,11.383,11.3907,11.4022,11.3868,11.3137,11.2406,11.2099,11.1906,11.1829,11.1522,11.1522,11.1522,11.1522,11.1522,11.1522,11.1522,11.1522,11.1522,11.1522,11.1522,11.1252,11.1175,11.1214,11.1406,11.1522,11.1368,11.1098,11.0944,11.0714,11.0444,11.0098,10.9675,10.9175,10.8713,10.8406,10.8213,10.7944,10.7713,10.7713,10.7713,10.7559,10.4834,10.6119,10.6339,10.6376,10.6376,10.6376,10.6376,10.6376,10.6376,10.6376,10.6507,10.7172,10.7955,10.8336,10.8606,10.9236,11.0018,11.0913,11.1808,11.2899,11.3768,11.425,11.4275,11.4047,11.4237,11.4194,11.4194,11.3987,11.3739,11.3671,11.3671,11.3603,11.3534,11.3464,11.3571,11.3464,11.3,11.2501,11.2306,11.1948,11.2206,11.2684,11.3315,11.386,11.4392,11.4908,11.534,11.5792,11.6253,11.6484,11.6484,11.6484,11.6484,11.6484,11.6484,11.6484,11.6484,11.6484,11.6484,11.6484,11.6484,11.6484,11.6484,11.6484,11.6484,11.6484,11.6484,11.6253,11.5753,11.5247,11.4401,11.3863,11.3984,11.4214,11.4368,11.4407,11.4522,11.4522,11.3676,11.2791,11.2406,11.2214,11.1906,11.1598,11.1522,11.1522,11.1522,11.1522,11.1522,11.1522,11.1522,11.1522,11.1522,11.1522,11.1522,11.1522,11.1522,11.1522,11.1522,11.1522,11.1483,11.1291,11.1175,11.1252,11.0868,11.0444,11.006,10.9598,10.9329,10.906,10.8598,10.829,10.8482,10.8482,10.8444,10.4467,10.5385,10.6082,10.6376,10.6376,10.6376,10.6376,10.6376,10.6376,10.6376,10.646,10.6507,10.6763,10.6888,10.6888,10.7616,10.8966,10.99,11.1296,11.2562,11.312,11.3558,11.3701,11.3351,11.3786,11.3749,11.3487,11.3399,11.2926,11.2738,11.2468,11.1938,11.1893,11.181,11.181,11.181,11.1893,11.157,11.157,11.1405,11.1368,11.1787,11.2059,11.2568,11.2918,11.3957,11.4794,11.5279,11.5869,11.6253,11.6484,11.6484,11.6484,11.6484,11.6484,11.6484,11.6484,11.6484,11.6484,11.6484,11.6484,11.6484,11.6484,11.6484,11.6484,11.6484,11.6484,11.6484,11.6138,11.6099,11.5445,11.4945,11.4907,11.5413,11.572,11.5407,11.533,11.4714,11.3945,11.3099,11.2368,11.2099,11.1829,11.1637,11.1598,11.156,11.156,11.1522,11.1522,11.1522,11.1522,11.1522,11.1522,11.1522,11.1522,11.1522,11.1522,11.1522,11.1522,11.1522,11.1522,11.1522,11.1483,11.1445,11.1445,11.1175,11.0829,11.0367,11.0175,10.9867,10.9175,10.8867,10.9136,10.9329,10.9367]},{"header":{"parameterUnit":"m.s-1","parameterCategory":1,"la1":31.0,"la2":29.5877,"lo1":-88.7671,"lo2":-86.6584,"dy":0.0162,"dx":0.0185,"nx":115,"ny":88,"refTime":"2026-05-01T00:00:00:Z","depth":0,"parameterNumber":3,"parameterNumberName":"V-component_of_WINDS"},"data":[0.0,0.0,0.0,0.0,0.0,0.0,0.0,0.0,0.0,0.0,0.0,0.0,0.0,0.0,0.0,0.0,0.0,0.0,0.0,0.0,0.0,0.0,0.0,0.0,0.0,0.0,0.0,0.0,0.0,0.0,0.0,0.0,0.0,0.0,0.0,0.0,0.0,0.0,0.0,0.0,0.0,0.0,0.0,0.0,0.0,0.0,0.0,0.0,0.0,0.0,0.0,0.0,0.0,0.0,0.0,0.0,0.0,0.0,0.0,0.0,0.0,0.0,0.0,0.0,0.0,0.0,0.0,0.0,0.0,0.0,0.0,0.0,0.0,0.0,0.0,0.0,0.0,0.0,0.0,0.0,0.0,0.0,0.0,0.0,0.0,0.0,0.0,0.0,0.0,0.0,0.0,0.0,0.0,0.0,0.0,0.0,0.0,0.0,0.0,0.0,0.0,0.0,0.0,0.0,0.0,0.0,0.0,0.0,0.0,0.0,0.0,0.0,0.0,0.0,0.0,0.0,0.0,0.0,0.0,0.0,0.0,0.0,0.0,0.0,0.0,0.0,0.0,0.0,0.0,0.0,0.0,0.0,0.0,0.0,0.0,0.0,0.0,0.0,0.0,0.0,0.0,0.0,0.0,0.0,0.0,0.0,0.0,0.0,0.0,0.0,0.0,0.0,0.0,0.0,0.0,0.0,0.0,0.0,0.0,0.0,0.0,0.0,0.0,0.0,0.0,0.0,0.0,0.0,0.0,0.0,0.0,0.0,0.0,0.0,0.0,0.0,0.0,0.0,0.0,0.0,0.0,0.0,0.0,0.0,0.0,0.0,0.0,0.0,0.0,0.0,0.0,0.0,0.0,0.0,0.0,0.0,0.0,0.0,0.0,0.0,0.0,0.0,0.0,0.0,0.0,0.0,0.0,0.0,0.0,0.0,0.0,0.0,0.0,0.0,0.0,0.0,0.0,0.0,0.0,0.0,0.0,0.0,0.0,0.0,0.0,0.0,0.0,0.0,0.0,0.0,0.0,0.0,0.0,0.0,0.0,0.0,0.0,0.0,0.0,0.0,0.0,0.0,0.0,0.0,0.0,0.0,0.0,0.0,0.0,0.0,0.0,0.0,0.0,0.0,0.0,0.0,0.0,0.0,0.0,0.0,0.0,0.0,0.0,0.0,0.0,0.0,0.0,0.0,0.0,0.0,0.0,0.0,0.0,0.0,0.0,0.0,0.0,0.0,0.0,0.0,0.0,0.0,0.0,0.0,0.0,0.0,0.0,0.0,0.0,0.0,0.0,0.0,0.0,0.0,0.0,0.0,0.0,0.0,0.0,0.0,0.0,0.0,0.0,0.0,0.0,0.0,0.0,0.0,0.0,0.0,0.0,0.0,0.0,0.0,0.0,0.0,0.0,0.0,0.0,0.0,0.0,0.0,0.0,0.0,0.0,0.0,0.0,0.0,0.0,0.0,0.0,0.0,0.0,0.0,0.0,0.0,0.0,0.0,0.0,0.0,0.0,0.0,0.0,0.0,0.0,0.0,0.0,0.0,0.0,0.0,0.0,0.0,0.0,0.0,0.0,0.0,0.0,0.0,0.0,0.0,0.0,0.0,0.0,0.0,0.0,0.0,0.0,0.0,0.0,0.0,0.0,0.0,0.0,0.0,0.0,0.0,0.0,0.0,0.0,0.0,0.0,0.0,0.0,0.0,0.0,0.0,0.0,0.0,0.0,0.0,0.0,0.0,0.0,0.0,0.0,0.0,0.0,0.0,0.0,0.0,0.0,0.0,0.0,0.0,0.0,0.0,0.0,0.0,0.0,0.0,0.0,0.0,0.0,0.0,0.0,0.0,0.0,0.0,0.0,0.0,0.0,0.0,0.0,0.0,0.0,0.0,0.0,0.0,0.0,0.0,0.0,0.0,0.0,0.0,0.0,0.0,0.0,0.0,0.0,0.0,0.0,0.0,0.0,0.0,0.0,0.0,0.0,0.0,0.0,0.0,0.0,0.0,0.0,0.0,0.0,0.0,0.0,0.0,0.0,0.0,0.0,0.0,0.0,0.0,0.0,0.0,0.0,0.0,0.0,0.0,0.0,0.0,0.0,0.0,0.0,0.0,0.0,0.0,0.0,0.0,0.0,0.0,0.0,0.0,0.0,0.0,0.0,0.0,0.0,0.0,0.0,0.0,0.0,0.0,0.0,0.0,0.0,0.0,0.0,0.0,0.0,0.0,0.0,0.0,0.0,0.0,0.0,0.0,0.0,0.0,0.0,0.0,0.0,0.0,0.0,0.0,0.0,0.0,0.0,0.0,0.0,0.0,0.0,0.0,0.0,0.0,0.0,0.0,0.0,0.0,0.0,0.0,0.0,0.0,0.0,0.0,0.0,0.0,0.0,0.0,0.0,0.0,0.0,0.0,0.0,0.0,0.0,0.0,0.0,0.0,0.0,0.0,0.0,0.0,0.0,0.0,0.0,0.0,0.0,0.0,0.0,0.0,0.0,0.0,0.0,0.0,0.0,0.0,0.0,0.0,0.0,0.0,0.0,0.0,0.0,0.0,0.0,0.0,0.0,0.0,0.0,0.0,0.0,0.0,0.0,0.0,0.0,0.0,0.0,0.0,0.0,0.0,0.0,0.0,0.0,0.0,0.0,0.0,0.0,0.0,0.0,0.0,0.0,0.0,0.0,0.0,0.0,0.0,0.0,0.0,0.0,0.0,0.0,0.0,0.0,0.0,0.0,0.0,0.0,0.0,0.0,0.0,0.0,0.0,0.0,0.0,0.0,0.0,0.0,0.0,0.0,0.0,0.0,0.0,0.0,0.0,0.0,0.0,0.0,0.0,0.0,0.0,0.0,0.0,0.0,0.0,0.0,0.0,0.0,0.0,0.0,0.0,0.0,0.0,0.0,0.0,0.0,0.0,0.0,0.0,0.0,0.0,0.0,0.0,0.0,0.0,0.0,0.0,0.0,0.0,0.0,0.0,0.0,0.0,0.0,0.0,0.0,0.0,0.0,0.0,0.0,0.0,0.0,0.0,0.0,0.0,0.0,0.0,0.0,0.0,0.0,0.0,0.0,0.0,0.0,0.0,0.0,0.0,0.0,0.0,0.0,0.0,0.0,0.0,0.0,0.0,0.0,0.0,0.0,0.0,0.0,0.0,0.0,0.0,0.0,0.0,0.0,0.0,0.0,0.0,0.0,0.0,0.0,0.0,0.0,0.0,0.0,0.0,0.0,0.0,0.0,0.0,0.0,0.0,0.0,0.0,0.0,0.0,0.0,0.0,0.0,0.0,0.0,0.0,0.0,0.0,0.0,0.0,0.0,0.0,0.0,0.0,0.0,0.0,0.0,0.0,0.0,0.0,0.0,0.0,0.0,0.0,0.0,0.0,0.0,0.0,0.0,0.0,0.0,0.0,0.0,0.0,0.0,0.0,0.0,0.0,0.0,0.0,0.0,0.0,0.0,0.0,0.0,0.0,0.0,0.0,0.0,0.0,0.0,0.0,0.0,0.0,0.0,0.0,0.0,0.0,0.0,0.0,0.0,0.0,0.0,0.0,0.0,0.0,0.0,0.0,0.0,0.0,0.0,0.0,0.0,0.0,0.0,0.0,0.0,0.0,0.0,0.0,0.0,0.0,0.0,0.0,0.0,0.0,0.0,0.0,0.0,0.0,0.0,0.0,0.0,0.0,0.0,0.0,0.0,0.0,0.0,0.0,0.0,0.0,0.0,0.0,0.0,0.0,0.0,0.0,0.0,0.0,0.0,0.0,0.0,0.0,0.0,0.0,0.0,0.0,0.0,0.0,0.0,0.0,0.0,0.0,0.0,0.0,0.0,0.0,0.0,0.0,0.0,0.0,0.0,0.0,0.0,0.0,0.0,0.0,0.0,0.0,0.0,0.0,0.0,0.0,0.0,0.0,0.0,0.0,0.0,0.0,0.0,0.0,0.0,0.0,0.0,0.0,0.0,0.0,0.0,0.0,0.0,0.0,0.0,0.0,0.0,0.0,0.0,0.0,0.0,0.0,0.0,0.0,0.0,0.0,0.0,0.0,0.0,0.0,0.0,0.0,0.0,0.0,0.0,0.0,0.0,0.0,0.0,0.0,0.0,0.0,0.0,0.0,0.0,0.0,0.0,0.0,0.0,0.0,0.0,0.0,0.0,0.0,0.0,0.0,0.0,0.0,0.0,0.0,0.0,0.0,0.0,0.0,0.0,0.0,0.0,0.0,0.0,0.0,0.0,0.0,0.0,0.0,0.0,0.0,0.0,0.0,0.0,0.0,-0.6311,0.0,0.0,0.0,0.0,0.0,0.0,0.0,0.0,0.0,0.0,0.0,0.0,0.0,0.0,0.0,0.0,0.0,0.0,0.0,0.0,0.0,0.0,0.0,0.0,0.0,0.0,0.0,0.0,0.0,0.0,0.0,0.0,0.0,0.0,0.0,0.0,0.0,0.0,0.0,0.0,0.0,0.0,0.0,0.0,0.0,0.0,0.0,0.0,0.0,0.0,0.0,0.0,0.0,0.0,0.0,0.0,0.0,0.0,0.0,0.0,0.0,0.0,0.0,0.0,0.0,0.0,0.0,0.0,0.0,0.0,0.0,0.0,0.0,0.0,0.0,0.0,0.0,0.0,0.0,0.0,0.0,0.0,0.0,0.0,0.0,0.0,0.0,0.0,0.0,0.0,0.0,0.0,0.0,0.0,0.0,0.0,0.0,0.0,0.0,0.0,0.0,0.0,0.0,0.0,0.0,0.0,0.0,0.0,0.0,0.0,-0.684,-0.6993,-0.6764,-0.6525,-0.6297,0.0,0.0,0.0,0.0,0.0,0.0,0.0,0.0,0.0,0.0,0.0,0.0,0.0,0.0,0.0,0.0,0.0,0.0,0.0,0.0,0.0,0.0,0.0,0.0,0.0,0.0,0.0,0.0,0.0,0.0,0.0,0.0,0.0,0.0,0.0,0.0,0.0,0.0,0.0,0.0,0.0,0.0,0.0,0.0,0.0,0.0,0.0,0.0,0.0,0.0,0.0,0.0,0.0,0.0,0.0,0.0,0.0,0.0,0.0,0.0,0.0,0.0,0.0,0.0,0.0,0.0,0.0,0.0,0.0,0.0,0.0,0.0,0.0,0.0,0.0,0.0,0.0,0.0,0.0,0.0,0.0,0.0,0.0,0.0,0.0,0.0,0.0,0.0,0.0,0.0,0.0,0.0,0.0,0.0,0.0,0.0,0.0,0.0,0.0,0.0,0.0,0.0,0.0,0.0,0.0,0.0,0.0,0.0,0.0,0.0,0.0,0.0,-0.7073,-0.6817,-0.6292,0.0,0.0,0.0,0.0,0.0,0.0,0.0,0.0,0.0,0.0,0.0,0.0,0.0,0.0,0.0,0.0,0.0,0.0,0.0,0.0,0.0,0.0,0.0,0.0,0.0,0.0,0.0,0.0,0.0,0.0,0.0,0.0,0.0,0.0,0.0,0.0,0.0,0.0,0.0,0.0,0.0,0.0,0.0,0.0,0.0,0.0,0.0,0.0,0.0,0.0,0.0,0.0,0.0,0.0,0.0,0.0,0.0,0.0,0.0,0.0,0.0,0.0,0.0,0.0,0.0,0.0,0.0,0.0,0.0,0.0,0.0,0.0,0.0,0.0,0.0,0.0,0.0,0.0,0.0,0.0,0.0,0.0,0.0,0.0,0.0,0.0,0.0,0.0,0.0,0.0,0.0,0.0,0.0,0.0,0.0,0.0,0.0,0.0,0.0,0.0,0.0,0.0,0.0,0.0,0.0,0.0,0.0,0.0,0.0,0.0,-0.6923,-0.712,-0.7597,0.0,-0.6373,0.0,0.0,0.0,0.0,0.0,0.0,0.0,0.0,0.0,0.0,0.0,0.0,0.0,0.0,0.0,0.0,0.0,0.0,0.0,0.0,0.0,0.0,0.0,0.0,0.0,0.0,0.0,0.0,0.0,0.0,0.0,0.0,0.0,0.0,0.0,0.0,0.0,0.0,0.0,0.0,0.0,0.0,0.0,0.0,0.0,0.0,0.0,0.0,0.0,0.0,0.0,0.0,0.0,0.0,0.0,0.0,0.0,0.0,0.0,0.0,0.0,0.0,0.0,0.0,0.0,0.0,0.0,0.0,0.0,0.0,0.0,0.0,0.0,0.0,0.0,0.0,0.0,0.0,0.0,0.0,0.0,0.0,0.0,0.0,0.0,0.0,0.0,0.0,0.0,0.0,0.0,0.0,0.0,0.0,0.0,0.0,0.0,0.0,0.0,0.0,0.0,0.0,0.0,0.0,0.0,0.0,0.0,0.0,0.0,0.0,0.0,-0.7828,-0.7624,-0.7309,0.0,0.0,0.0,0.0,0.0,0.0,0.0,0.0,0.0,0.0,0.0,0.0,0.0,0.0,0.0,0.0,0.0,0.0,0.0,0.0,0.0,0.0,0.0,0.0,0.0,0.0,0.0,0.0,0.0,0.0,0.0,0.0,0.0,0.0,0.0,0.0,0.0,0.0,0.0,0.0,0.0,0.0,0.0,0.0,0.0,0.0,0.0,0.0,0.0,0.0,0.0,0.0,0.0,0.0,0.0,0.0,0.0,0.0,0.0,0.0,0.0,0.0,0.0,0.0,0.0,0.0,0.0,0.0,0.0,0.0,0.0,0.0,0.0,0.0,0.0,0.0,0.0,0.0,0.0,0.0,0.0,0.0,0.0,0.0,0.0,0.0,0.0,0.0,0.0,0.0,0.0,0.0,0.0,0.0,0.0,0.0,0.0,0.0,0.0,0.0,0.0,0.0,0.0,0.0,0.0,0.0,0.0,0.0,0.0,0.0,-0.7959,0.0,-0.6153,-0.6702,-0.7409,-0.8136,0.0,0.0,0.0,0.0,0.0,0.0,0.0,0.0,0.0,0.0,0.0,0.0,0.0,0.0,0.0,0.0,0.0,0.0,0.0,0.0,0.0,0.0,0.0,0.0,0.0,0.0,0.0,0.0,0.0,0.0,0.0,0.0,0.0,0.0,0.0,0.0,0.0,0.0,0.0,0.0,0.0,0.0,0.0,0.0,0.0,0.0,0.0,0.0,0.0,0.0,0.0,0.0,0.0,0.0,0.0,0.0,0.0,0.0,0.0,0.0,0.0,0.0,0.0,0.0,0.0,0.0,0.0,0.0,0.0,0.0,0.0,0.0,0.0,0.0,0.0,0.0,0.0,0.0,0.0,0.0,0.0,0.0,0.0,0.0,0.0,0.0,0.0,0.0,0.0,0.0,0.0,0.0,0.0,0.0,0.0,0.0,0.0,0.0,0.0,0.0,0.0,0.0,0.0,0.0,0.0,0.0,0.0,0.0,0.0,-0.7071,-0.5001,-0.0825,-0.4739,-0.7875,0.0,0.0,0.0,0.0,0.0,0.0,0.0,0.0,0.0,0.0,0.0,0.0,0.0,0.0,0.0,0.0,0.0,0.0,0.0,0.0,0.0,0.0,0.0,0.0,0.0,0.0,0.0,0.0,0.0,0.0,0.0,0.0,0.0,0.0,0.0,0.0,0.0,0.0,0.0,0.0,0.0,0.0,0.0,0.0,0.0,0.0,0.0,0.0,0.0,0.0,0.0,0.0,0.0,0.0,0.0,0.0,0.0,0.0,0.0,0.0,0.0,0.0,0.0,0.0,0.0,0.0,0.0,0.0,0.0,0.0,0.0,0.0,0.0,0.0,0.0,0.0,0.0,0.0,0.0,0.0,0.0,0.0,0.0,0.0,0.0,0.0,0.0,0.0,0.0,0.0,0.0,0.0,0.0,0.0,0.0,0.0,0.0,0.0,0.0,0.0,0.0,0.0,0.0,0.0,0.0,0.0,0.0,0.0,0.0,-0.2474,-0.2525,-0.2771,-0.3119,-0.2755,-0.4788,0.0,0.0,0.0,0.0,0.0,0.0,0.0,0.0,0.0,0.0,0.0,0.0,0.0,0.0,0.0,0.0,0.0,0.0,0.0,0.0,0.0,0.0,0.0,0.0,0.0,0.0,0.0,0.0,0.0,0.0,0.0,0.0,0.0,0.0,0.0,0.0,0.0,0.0,0.0,0.0,0.0,0.0,0.0,0.0,0.0,0.0,0.0,0.0,0.0,0.0,0.0,0.0,0.0,0.0,0.0,0.0,0.0,0.0,0.0,0.0,0.0,0.0,0.0,0.0,0.0,0.0,0.0,0.0,0.0,0.0,0.0,0.0,0.0,0.0,0.0,0.0,0.0,0.0,0.0,0.0,0.0,0.0,0.0,0.0,0.0,0.0,0.0,0.0,0.0,0.0,0.0,0.0,0.0,0.0,0.0,0.0,0.0,0.0,0.0,0.0,0.0,0.0,0.0,0.0,0.0,0.0,0.0,0.0,0.0,0.0,0.0,-0.1075,0.0,-0.1126,-0.2086,0.0,0.0,0.0,0.0,0.0,0.0,0.0,0.0,0.0,0.0,0.0,0.0,0.0,0.0,0.0,0.0,0.0,0.0,0.0,0.0,0.0,0.0,0.0,0.0,0.0,0.0,0.0,0.0,0.0,0.0,0.0,0.0,0.0,0.0,0.0,0.0,0.0,0.0,0.0,0.0,0.0,0.0,0.0,0.0,0.0,0.0,0.0,0.0,0.0,0.0,0.0,0.0,0.0,0.0,0.0,0.0,0.0,0.0,0.0,0.0,0.0,0.0,0.0,0.0,0.0,0.0,0.0,0.0,0.0,0.0,0.0,0.0,0.0,0.0,0.0,0.0,0.0,0.0,0.0,0.0,0.0,0.0,0.0,0.0,0.0,0.0,0.0,0.0,0.0,0.0,0.0,0.0,0.0,0.0,0.0,0.0,0.0,0.0,0.0,0.0,0.0,0.0,0.0,0.0,0.0,0.0,0.0,0.0,0.0,0.0,0.0,0.0,0.0,0.0,0.0,0.0,0.0,0.0,0.0,0.0,0.0,0.0,0.0,0.0,0.0,0.0,0.0,0.0,0.0,0.0,0.0,0.0,0.0,0.0,0.0,0.0,0.0,0.0,0.0,0.0,0.0,0.0,0.0,0.0,0.0,0.0,0.0,0.0,0.0,0.0,0.0,0.0,0.0,0.0,0.0,0.0,0.0,0.0,0.0,0.0,0.0,0.0,0.0,0.0,0.0,0.0,0.0,0.0,0.0,0.0,0.0,0.0,0.0,0.0,0.0,0.0,0.0,0.0,0.0,0.0,0.0,0.0,0.0,0.0,0.0,0.0,0.0,0.0,0.0,0.0,0.0,0.0,0.0,0.0,0.0,0.0,0.0,0.0,0.0,0.0,0.0,0.0,0.0,0.0,0.0,0.0,0.0,0.0,0.0,0.0,0.0,0.0,0.0,0.0,0.0,0.0,0.0,0.0,0.0,0.0,0.0,0.0,0.0,0.0,0.0,0.0,0.0,0.0,0.0,0.0,0.0,0.0,0.0,0.0,0.0,0.0,0.0,0.0,0.0,0.0,0.0,0.0,0.0,0.0,0.0,0.0,0.0,0.0,0.0,0.0,0.0,0.0,0.0,0.0,0.0,0.0,0.0,0.0,0.0,0.0,0.0,0.0,0.0,0.0,0.0,0.0,0.0,0.0,0.0,0.0,0.0,0.0,0.0,0.0,0.0,0.0,0.0,0.0,0.0,0.0,0.0,0.0,0.0,0.0,0.0,0.0,0.0,0.0,0.0,0.0,0.0,0.0,0.0,0.0,0.0,0.0,0.0,0.0,0.0,0.0,0.0,0.0,0.0,0.0,0.0,0.0,0.0,0.0,0.0,0.0,0.0,0.0,0.0,0.0,0.0,0.0,0.0,0.0,0.0,0.0,0.0,0.0,0.0,0.0,0.0,0.0,0.0,0.0,0.0,0.0,0.0,0.0,0.0,0.0,0.0,0.0,0.0,0.0,0.0,0.0,0.0,0.0,0.0,0.0,0.0,0.0,0.0,0.0,0.0,0.0,0.0,0.0,0.0,0.0,0.0,0.0,0.0,0.0,0.0,0.0,0.0,0.0,0.0,0.0,0.0,0.0,0.0,0.0,0.0,0.0,0.0,0.0,0.0,0.0,0.0,0.0,0.0,0.0,0.0,0.0,0.0,0.0,0.0,0.0,0.0,0.0,0.0,0.0,0.0,0.0,0.0,0.0,0.0,0.0,0.0,0.0,0.0,0.0,0.0,0.0,0.0,0.0,0.0,0.0,0.0,0.0,0.0,0.0,0.0,0.0,0.0,0.0,0.0,0.0,0.0,0.0,0.0,0.0,0.0,0.0,0.0,0.0,0.0,0.0,0.0,0.0,0.0,0.0,0.0,0.0,0.0,0.0,0.0,0.0,0.0,0.0,0.0,0.0,0.0,0.0,0.0,0.0,0.0,0.0,0.0,0.0,0.0,0.0,0.0,0.0,0.0,0.0,0.0,0.0,0.0,0.0,0.0,0.0,0.0,0.0,0.0,0.0,0.0,0.0,0.0,0.0,0.0,0.0,0.0,0.0,0.0,0.0,0.0,0.0,0.0,0.0,0.0,0.0,0.0,0.0,0.0,0.0,0.0,0.0,0.0,0.0,0.0,0.0,0.0,0.0,0.0,0.0,0.0,0.0,0.0,0.0,0.0,0.0,0.0,0.0,0.0,0.0,0.0,0.0,0.0,0.0,0.0,0.0,0.0,0.0,0.0,0.0,0.0,0.0,0.0,0.0,0.0,0.0,0.0,0.0,0.0,0.0,0.0,0.0,0.0,0.0,0.0,0.0,0.0,0.0,0.0,0.0,0.0,0.0,0.0,0.0,0.0,0.0,0.0,0.0,0.0,0.0,0.0,0.0,0.0,0.0,0.0,0.0,0.0,0.0,0.0,0.0,0.0,0.0,0.0,0.0,0.0,0.0,0.0,0.0,0.0,0.0,0.0,0.0,0.0,0.0,0.0,0.0,0.0,0.0,0.0,0.0,0.0,0.0,0.0,0.0,0.0,0.0,0.0,0.0,0.0,0.0,0.0,0.0,0.0,0.0,0.0,0.0,0.0,0.0,0.0,0.0,0.0,0.0,0.0,0.0,0.0,0.0,0.0,0.0,0.0,0.0,0.0,0.0,0.0,0.0,0.0,0.0,0.0,0.0,0.0,0.0,0.0,0.0,0.0,0.0,0.0,0.0,0.0,0.0,0.0,0.0,0.0,0.0,0.0,0.0,0.0,0.0,0.0,0.0,0.0,0.0,0.0,0.0,0.0,0.0,0.0,0.0,0.0,0.0,0.0,0.0,0.0,0.0,0.0,0.0,0.0,0.0,0.0,0.0,0.0,0.0,0.0,0.0,0.0,0.0,0.0,0.0,0.0,0.0,0.0,0.0,0.0,0.0,0.0,0.0,0.0,0.0,0.0,0.0,0.0,0.0,0.0,0.0,0.0,0.0,0.0,0.0,0.0,0.0,0.0,0.0,0.0,0.0,0.0,0.0,0.0,0.0,0.0,0.0,0.0,0.0,0.0,0.0,0.0,0.0,0.0,0.0,0.0,0.0,0.0,0.0,0.0,0.0,0.0,0.0,0.0,0.0,0.0,0.0,0.0,0.0,0.0,0.0,0.0,0.0,0.0,0.0,0.0,0.0,0.0,0.0,0.0,0.0,0.0,0.0,0.0,0.0,0.0,0.0,0.0,0.0,0.0,0.0,0.0,0.0,0.0,0.0,0.0,0.0,0.0,0.0,0.0,0.0,0.0,0.0,0.0,0.0,0.0,0.0,0.0,0.0,0.0,0.0,0.0,0.0,0.0,0.0,0.0,0.0,0.0,0.0,0.0,0.0,0.0,0.0,0.0,0.0,0.0,0.0,0.0,0.0,0.0,0.0,0.0,0.0,0.0,0.0,0.0,0.0,0.0,0.0,0.0,0.0,0.0,0.0,0.0,0.0,0.0,0.0,0.0,0.0,0.0,0.0,0.0,0.0,0.0,0.0,0.0,0.0,0.0,0.0,0.0,0.0,0.0,0.0,0.0,0.0,0.0,0.0,0.0,0.0,0.0,0.0,0.0,0.0,0.0,0.0,0.0,0.0,0.0,0.0,0.0,0.0,0.0,0.0,0.0,0.0,0.0,0.0,0.0,0.0,0.0,0.0,0.0,0.0,0.0,0.0,0.0,0.0,0.0,0.0,0.0,0.0,0.0,0.0,0.0,0.0,0.0,0.0,0.0,0.0,0.0,0.0,0.0,0.0,0.0,0.0,0.0,0.0,0.0,0.0,0.0,0.0,0.0,0.0,0.0,0.0,0.0,0.0,0.0,0.0,0.0,0.0,0.0,0.0,0.0,0.0,0.0,0.0,0.0,0.0,0.0,0.0,0.0,0.0,0.0,0.0,0.0,0.0,0.0,0.0,0.0,0.0,0.0,0.0,0.0,0.0,0.0,0.0,0.0,0.0,0.0,0.0,0.0,0.0,0.0,0.0,0.0,0.0,0.0,0.0,0.0,0.0,0.0,0.0,0.0,0.0,0.0,0.0,0.0,0.0,0.0,0.0,0.0,0.0,0.0,0.0,0.0,0.0,0.0,0.0,0.0,0.0,0.0,0.0,0.0,0.0,0.0,0.0,0.0,0.0,0.0,0.0,0.0,0.0,0.0,0.0,0.0,0.0,0.0,0.0,0.0,0.0,0.0,0.0,0.0,0.0,0.0,0.0,0.0,0.0,0.0,0.0,0.0,0.0,0.0,0.0,-0.798,0.0,0.0,0.0,0.0,0.0,0.0,0.0,0.0,0.0,0.0,0.0,0.0,0.0,0.0,0.0,0.0,0.0,0.0,0.0,0.0,0.0,0.0,0.0,0.0,0.0,0.0,0.0,0.0,0.0,0.0,0.0,0.0,0.0,0.0,0.0,0.0,0.0,0.0,0.0,0.0,0.0,0.0,0.0,0.0,0.0,0.0,0.0,0.0,0.0,0.0,0.0,0.0,0.0,0.0,0.0,0.0,0.0,0.0,0.0,0.0,0.0,0.0,0.0,0.0,0.0,0.0,0.0,0.0,0.0,0.0,0.0,0.0,0.0,0.0,0.0,0.0,0.0,0.0,0.0,0.0,0.0,0.0,0.0,0.0,0.0,0.0,0.0,0.0,0.0,0.0,0.0,0.0,0.0,0.0,0.0,0.0,0.0,0.0,0.0,0.0,0.0,0.0,0.0,0.0,0.0,0.0,0.0,0.0,0.0,0.0,0.0,0.0,0.0,0.0,0.0,0.0,0.0,0.0,0.0,0.0,0.0,0.0,0.0,0.0,0.0,0.0,0.0,0.0,0.0,0.0,0.0,0.0,0.0,0.0,0.0,0.0,0.0,0.0,0.0,0.0,0.0,0.0,0.0,0.0,0.0,0.0,0.0,0.0,0.0,0.0,0.0,0.0,0.0,0.0,0.0,0.0,0.0,0.0,0.0,0.0,0.0,0.0,0.0,0.0,0.0,0.0,0.0,0.0,0.0,0.0,0.0,0.0,0.0,0.0,0.0,0.0,0.0,0.0,0.0,0.0,0.0,0.0,0.0,0.0,0.0,0.0,0.0,0.0,0.0,0.0,0.0,0.0,0.0,0.0,0.0,0.0,0.0,0.0,0.0,0.0,0.0,0.0,0.0,0.0,0.0,0.0,0.0,0.0,0.0,0.0,0.0,0.0,0.0,0.0,0.0,0.0,0.0,0.0,0.0,0.0,-0.6734,-0.7227,0.0,0.0,0.0,0.0,0.0,0.0,0.0,0.0,-0.7153,0.0,0.0,0.0,0.0,0.0,0.0,0.0,0.0,0.0,0.0,0.0,0.0,0.0,0.0,0.0,0.0,0.0,0.0,0.0,0.0,0.0,0.0,0.0,0.0,0.0,0.0,0.0,0.0,0.0,0.0,0.0,0.0,0.0,0.0,0.0,0.0,0.0,0.0,0.0,0.0,0.0,0.0,0.0,0.0,0.0,0.0,0.0,0.0,0.0,0.0,0.0,0.0,0.0,0.0,0.0,0.0,0.0,0.0,0.0,0.0,0.0,0.0,0.0,0.0,0.0,0.0,0.0,0.0,0.0,0.0,0.0,0.0,0.0,0.0,0.0,0.0,0.0,0.0,0.0,0.0,0.0,0.0,0.0,0.0,0.0,0.0,0.0,0.0,0.0,0.0,0.0,0.0,0.0,0.0,0.0,0.0,0.0,0.0,0.0,0.0,0.0,0.0,0.0,0.0,0.0,-0.7858,-0.7539,0.0,0.0,0.0,0.0,0.0,0.0,0.0,0.0,-0.5698,0.0,0.0,0.0,0.0,0.0,0.0,0.0,0.0,0.0,0.0,0.0,0.0,0.0,0.0,0.0,0.0,0.0,0.0,0.0,0.0,0.0,0.0,0.0,0.0,0.0,0.0,0.0,0.0,0.0,0.0,0.0,0.0,0.0,0.0,0.0,0.0,0.0,0.0,0.0,0.0,0.0,0.0,0.0,0.0,0.0,0.0,0.0,0.0,0.0,0.0,0.0,0.0,0.0,0.0,0.0,0.0,0.0,0.0,0.0,0.0,0.0,0.0,0.0,0.0,0.0,0.0,0.0,0.0,0.0,0.0,0.0,0.0,0.0,0.0,0.0,0.0,0.0,0.0,0.0,0.0,0.0,0.0,0.0,0.0,0.0,0.0,0.0,0.0,0.0,0.0,0.0,0.0,0.0,0.0,0.0,0.0,0.0,0.0,0.0,0.0,0.0,0.0,0.0,0.0,-0.7263,-0.5725,-0.496,0.0,0.0,0.0,0.0,0.0,0.0,-0.532,-0.5335,0.0,0.0,0.0,0.0,0.0,0.0,0.0,0.0,0.0,0.0,0.0,0.0,0.0,0.0,0.0,0.0,0.0,0.0,0.0,0.0,0.0,0.0,0.0,0.0,0.0,0.0,0.0,0.0,0.0,0.0,0.0,0.0,0.0,0.0,0.0,0.0,0.0,0.0,0.0,0.0,0.0,0.0,0.0,0.0,0.0,0.0,0.0,0.0,0.0,0.0,0.0,0.0,0.0,0.0,0.0,0.0,0.0,0.0,0.0,0.0,0.0,0.0,0.0,0.0,0.0,0.0,0.0,0.0,0.0,0.0,0.0,0.0,0.0,0.0,0.0,0.0,0.0,0.0,0.0,0.0,0.0,0.0,0.0,0.0,0.0,0.0,0.0,0.0,0.0,0.0,0.0,0.0,0.0,0.0,0.0,0.0,0.0,0.0,0.0,0.0,0.0,0.0,0.0,0.0,0.0,-0.4943,-0.466,-0.1907,0.0,0.0,0.0,0.0,-0.5322,-0.4236,0.0,0.0,0.0,0.0,0.0,0.0,0.0,0.0,0.0,0.0,0.0,0.0,0.0,0.0,0.0,0.0,0.0,0.0,0.0,0.0,0.0,0.0,0.0,0.0,0.0,0.0,0.0,0.0,0.0,0.0,0.0,0.0,0.0,0.0,0.0,0.0,0.0,0.0,0.0,0.0,0.0,0.0,0.0,0.0,0.0,0.0,0.0,0.0,0.0,0.0,0.0,0.0,0.0,0.0,0.0,0.0,0.0,0.0,0.0,0.0,0.0,0.0,0.0,0.0,0.0,0.0,0.0,0.0,0.0,0.0,0.0,0.0,0.0,0.0,0.0,0.0,0.0,0.0,0.0,0.0,0.0,0.0,0.0,0.0,0.0,0.0,0.0,0.0,0.0,0.0,0.0,0.0,0.0,0.0,0.0,0.0,0.0,0.0,0.0,0.0,0.0,0.0,0.0,0.0,0.0,0.0,-0.7561,-0.1483,-0.0262,0.0,0.0,0.0,0.0,-0.0814,-0.0564,0.0,0.0,0.0,0.0,0.0,0.0,0.0,0.0,0.0,0.0,0.0,0.0,0.0,0.0,0.0,0.0,0.0,0.0,0.0,0.0,0.0,0.0,0.0,0.0,0.0,0.0,0.0,0.0,0.0,0.0,0.0,0.0,0.0,0.0,0.0,0.0,0.0,0.0,0.0,0.0,0.0,0.0,0.0,0.0,0.0,0.0,0.0,0.0,0.0,0.0,0.0,0.0,0.0,0.0,0.0,0.0,0.0,0.0,0.0,0.0,0.0,0.0,0.0,0.0,0.0,0.0,0.0,0.0,0.0,0.0,0.0,0.0,0.0,0.0,0.0,0.0,0.0,0.0,0.0,0.0,0.0,0.0,0.0,0.0,0.0,0.0,0.0,0.0,0.0,0.0,0.0,0.0,0.0,0.0,0.0,0.0,0.0,0.0,0.0,0.0,0.0,0.0,0.0,0.0,0.0,0.0,0.0,-0.0864,0.0,0.0,0.0,0.0,0.0,0.0,0.0,0.0,0.0,0.0,0.0,0.0,0.0,0.0,0.0,0.0,0.0,0.0,0.0,0.0,0.0,0.0,0.0,0.0,0.0,0.0,0.0,0.0,0.0,0.0,0.0,0.0,0.0,0.0,0.0,0.0,0.0,0.0,0.0,0.0,0.0,0.0,0.0,0.0,0.0,0.0,0.0,0.0,0.0,0.0,0.0,0.0,0.0,0.0,0.0,0.0,0.0,0.0,0.0,0.0,0.0,0.0,0.0,0.0,0.0,0.0,0.0,0.0,0.0,0.0,0.0,0.0,0.0,0.0,0.0,0.0,0.0,0.0,0.0,0.0,0.0,0.0,0.0,0.0,0.0,0.0,0.0,0.0,0.0,0.0,0.0,0.0,0.0,0.0,0.0,0.0,0.0,0.0,0.0,0.0,0.0,0.0,0.0,0.0,0.0,0.0,0.0,0.0,0.0,0.0,0.0,0.0,0.0,-0.4493,-0.0601,0.0,0.0,0.0,0.0,0.0,0.0,0.0,0.0,0.0,0.0,0.0,0.0,0.0,0.0,0.0,0.0,0.0,0.0,0.0,0.0,0.0,0.0,0.0,0.0,0.0,0.0,0.0,0.0,0.0,0.0,0.0,0.0,0.0,0.0,0.0,0.0,0.0,0.0,0.0,0.0,0.0,0.0,0.0,0.0,0.0,0.0,0.0,0.0,0.0,0.0,0.0,0.0,0.0,0.0,0.0,0.0,0.0,0.0,0.0,0.0,0.0,0.0,0.0,0.0,0.0,0.0,0.0,0.0,0.0,0.0,0.0,0.0,0.0,0.0,0.0,0.0,0.0,0.0,0.0,0.0,0.0,0.0,0.0,0.0,0.0,0.0,0.0,0.0,0.0,0.0,0.0,0.0,0.0,0.0,0.0,0.0,0.0,0.0,0.0,0.0,0.0,0.0,0.0,0.0,0.0,0.0,0.0,0.0,0.0,0.0,0.0,0.0,0.0,0.0,-0.0,0.0,0.0,0.0,0.0,0.0,0.0,0.0,0.0,0.0,0.0,0.0,0.0,0.0,0.0,0.0,0.0,0.0,0.0,0.0,0.0,0.0,0.0,0.0,0.0,0.0,0.0,0.0,0.0,0.0,0.0,0.0,0.0,0.0,0.0,0.0,0.0,0.0,0.0,0.0,0.0,0.0,0.0,0.0,0.0,0.0,0.0,0.0,0.0,0.0,0.0,0.0,0.0,0.0,0.0,0.0,0.0,0.0,0.0,0.0,0.0,0.0,0.0,0.0,0.0,0.0,0.0,0.0,0.0,0.0,0.0,0.0,0.0,0.0,0.0,0.0,0.0,0.0,0.0,0.0,0.0,0.0,0.0,0.0,0.0,0.0,0.0,0.0,0.0,0.0,0.0,0.0,0.0,0.0,0.0,0.0,0.0,0.0,0.0,0.0,0.0,0.0,-0.0267,-0.0966,0.0,0.0,0.0,0.0,0.0,0.0,0.0,0.0,0.0,0.0,0.0,0.0,0.0,0.0,0.0,0.0,0.0,0.0,0.0,0.0,0.0,0.0,0.0,0.0,0.0,0.0,0.0,0.0,0.0,0.0,0.0,0.0,0.0,0.0,0.0,0.0,0.0,0.0,0.0,0.0,0.0,0.0,0.0,0.0,0.0,0.0,0.0,0.0,0.0,0.0,0.0,0.0,0.0,0.0,0.0,0.0,0.0,0.0,0.0,0.0,0.0,0.0,0.0,0.0,0.0,0.0,0.0,0.0,0.0,0.0,0.0,0.0,0.0,0.0,0.0,0.0,0.0,0.0,0.0,0.0,0.0,0.0,0.0,0.0,0.0,0.0,0.0,0.0,0.0,0.0,0.0,0.0,0.0,0.0,0.0,0.0,0.0,0.0,0.0,0.0,0.0,0.0,0.0,0.0,0.0,0.0,0.0,0.0,0.0,0.0,0.0,0.0,0.0,0.0,0.0,0.0,0.0,0.0,0.0,0.0,0.0,0.0,0.0,0.0,0.0,0.0,0.0,0.0,0.0,0.0,0.0,0.0,0.0,0.0,0.0,0.0,0.0,0.0,0.0,0.0,0.0,0.0,0.0,0.0,0.0,0.0,0.0,0.0,0.0,0.0,0.0,0.0,0.0,0.0,0.0,0.0,0.0,0.0,0.0,0.0,0.0,0.0,0.0,0.0,0.0,0.0,0.0,0.0,0.0,0.0,0.0,0.0,0.0,0.0,0.0,0.0,0.0,0.0,0.0,0.0,0.0,0.0,0.0,0.0,0.0,0.0,0.0,0.0,0.0,0.0,0.0,0.0,0.0,0.0,0.0,0.0,0.0,0.0,0.0,0.0,0.0,0.0,0.0,0.0,0.0,0.0,0.0,0.0,0.0,0.0,0.0,0.0,0.0,0.0,0.0,0.0,0.0,0.0,0.0,0.0,0.0,0.0,0.0,0.0,0.0,0.0,0.0,0.0,0.0,0.0,0.0,0.0,0.0,0.0,0.0,0.0,0.0,0.0,0.0,0.0,0.0,0.0,0.0,0.0,0.0,0.0,0.0,0.0,0.0,0.0,0.0,0.0,0.0,0.0,0.0,0.0,0.0,0.0,0.0,0.0,0.0,0.0,0.0,0.0,0.0,0.0,0.0,0.0,0.0,0.0,0.0,0.0,0.0,0.0,0.0,0.0,0.0,0.8798,0.8364,0.0,0.0,0.0,0.0,0.0,0.0,0.0,0.0,0.0,0.0,0.0,0.8403,1.0122,0.0,0.0,0.0,0.0,0.0,0.0,0.0,0.0,0.0,0.0,0.0,0.0,0.0,0.0,0.0,0.0,0.0,0.0,0.0,0.0,0.0,0.0,0.0,0.0,0.0,0.0,0.0,0.0,0.0,0.0,0.0,0.0,0.0,0.0,0.0,0.0,0.0,0.0,0.0,0.0,0.0,0.0,0.0,0.0,0.0,0.0,0.0,0.0,0.0,0.0,0.0,0.0,0.0,0.0,0.0,0.0,0.0,0.0,0.0,0.0,0.0,0.0,0.0,0.0,0.0,0.0,0.0,0.0,0.0,0.0,0.0,0.0,0.0,0.0,0.0,0.0,0.0,0.0,0.0,0.0,0.0,0.0,0.0,0.0,0.0,0.0,0.0,0.0,0.0,0.0,0.0,0.0,0.0,0.0,0.0,0.0,0.0,0.0,0.0,0.0,0.0,0.0,0.9605,0.0,0.0,0.0,0.0,0.0,0.0,0.0,0.0,1.2749,1.2698,1.26,1.3273,1.3574,0.0,1.2624,0.9377,0.0,0.0,0.0,0.0,0.0,0.0,0.0,0.0,0.0,0.0,0.0,0.0,0.0,0.0,0.1699,0.5056,0.1827,0.0,0.0,0.0,0.0,0.0,0.0,0.0,0.0,0.0,0.0,0.0,0.0,0.0,0.0,0.0,0.0,0.0,0.0,0.0,0.0,0.0,0.0,0.0,0.0,0.0,0.0,0.0,0.0,0.0,0.0,0.0,0.0,0.0,0.0,0.0,0.0,0.0,0.0,0.0,0.0,0.0,0.0,0.0,0.0,0.0,0.0,0.0,0.0,0.0,0.0,0.0,0.0,0.0,0.0,0.0,0.0,0.0,0.0,0.0,0.0,0.0,0.0,0.0,0.0,0.0,0.0,0.0,0.0,0.0,0.0,0.0,0.0,0.0,0.0,0.0,0.0,0.0,0.0,1.1056,1.0962,0.0,1.0636,0.0,0.0,0.0,0.0,0.0,0.0,0.0,0.0,1.2766,1.2933,1.2548,1.2976,1.3499,1.4261,1.345,1.269,1.1942,0.8033,0.0,0.0,0.0,0.0,0.0,0.0,0.0151,0.0,0.0,0.0,0.0,0.0,0.4881,1.3951,0.558,0.0,0.0,0.0,0.0,0.0,0.0,0.0,0.0,0.0,0.0,0.0,0.0,0.0,0.0,0.0,0.0,0.0,0.0,0.0,0.0,0.0,0.0,0.0,0.0,0.0,0.0,0.0,0.0,0.0,0.0,0.0,0.0,0.0,0.0,0.0,0.0,0.0,0.0,0.0,0.0,0.0,0.0,0.0,0.0,0.0,0.0,0.0,0.0,0.0,0.0,0.0,0.0,0.0,0.0,0.0,0.0,0.0,0.0,0.0,0.0,0.0,0.0,0.0,0.0,0.0,0.0,0.0,0.0,0.0,0.0,1.2712,0.0,0.0,0.0,0.0,1.1694,1.2149,1.2868,1.2969,1.2623,1.1993,1.206,0.0,0.0,0.0,0.0,0.0,0.0,1.1714,1.2522,1.3085,1.3459,1.3468,1.4035,1.44,1.4548,1.4071,1.3512,1.3212,1.1824,0.9805,0.7296,0.0,0.0,0.0,0.0,0.5052,0.0862,0.7595,0.9689,0.5812,0.562,0.7037,0.98,1.0519,1.0872,1.086,1.0457,0.9993,0.9541,0.3403,0.0,0.0,0.0,0.0,0.0,0.0,0.0,0.0,0.0,0.0,0.0,0.0,0.0,0.0,0.0,0.0,0.0,0.0,0.0,0.0,0.0,0.0,0.0,0.0,0.0,0.0,0.0,0.0,0.0,0.0,0.0,0.0,0.0,0.0,0.0,0.0,0.0,0.0,0.0,0.0,0.0,0.0,0.0,0.0,0.0,0.0,0.0,0.0,0.0,0.0,0.0,0.0,0.0,0.0,0.0,0.0,0.0,0.0,0.0,0.0,0.0,0.0,0.0,0.0,1.4428,1.3417,1.2651,1.2583,1.299,1.3064,1.3498,1.4163,1.4251,1.3946,1.339,1.3424,1.2739,1.1545,1.1369,0.0,0.0,0.0,1.2657,1.3498,1.3675,1.3907,1.4114,1.4537,1.4726,1.4874,1.4455,1.4217,1.3973,1.3614,1.2793,1.1379,0.0,0.0,0.9192,1.0859,0.9544,0.5649,1.2405,1.447,1.132,1.0915,1.0816,1.0808,1.3643,1.5274,1.5107,1.4889,1.4428,1.3668,0.8364,0.4882,0.0,0.0,0.0,0.0,0.0,0.0,0.0,0.0,0.0,0.0,0.0,0.0,0.0,0.0,0.0,0.0,0.0,0.0,0.0,0.0,0.0,0.0,0.0,0.0,0.0,0.0,0.0,0.0,0.0,0.0,0.0,0.0,0.0,0.0,0.0,0.0,0.0,0.0,0.0,0.0,0.0,0.0,0.0,0.0,0.0,0.0,0.0,0.0,0.0,0.0,0.0,0.0,0.0,0.0,0.0,0.0,0.0,0.0,0.0,0.0,0.0,0.0,0.0,1.5825,1.5588,1.4224,1.3858,1.4183,1.4333,1.4631,1.5018,1.5025,1.493,1.4767,1.4624,1.4082,1.3241,1.282,0.0,0.0,1.3308,1.381,1.4373,1.438,1.443,1.4812,1.4691,1.4889,1.521,1.4855,1.4706,1.4543,1.4122,1.3688,1.3261,1.2266,1.2159,1.2791,1.3179,1.3316,1.3115,1.5073,1.6144,1.6179,1.5544,1.5396,1.5499,1.5334,1.5234,1.5183,1.5244,1.4886,1.4256,1.3778,1.2379,1.02,0.0,0.0,0.0,0.0,0.0,0.0,0.0,0.0,0.0,0.0,0.0,0.0,0.0,0.0,0.0,0.0,0.0,0.0,0.0,0.0,0.0,0.0,0.0,0.0,0.0,0.0,0.0,0.0,0.0,0.0,0.0,0.0,0.0,0.0,0.0,0.0,0.0,0.0,0.0,0.0,0.0,0.0,0.0,0.0,0.0,0.0,0.0,0.0,0.0,0.0,0.0,0.0,0.0,0.0,0.0,0.0,0.0,0.0,0.0,0.0,0.0,0.0,1.6341,1.6279,1.5927,1.552,1.5099,1.5133,1.5269,1.5479,1.5479,1.533,1.5079,1.5038,1.4658,1.4021,1.3797,1.3783,1.3946,1.4272,1.4618,1.497,1.5092,1.5073,1.5083,1.5247,1.5445,1.5459,1.5208,1.5059,1.5011,1.4685,1.436,1.4041,1.3827,1.3559,1.2924,1.2853,1.3178,1.4061,1.5458,1.6112,1.6137,1.5743,1.5589,1.5509,1.5247,1.5201,1.5169,1.5167,1.4854,1.4395,1.4244,1.3377,1.1935,0.9206,0.0,0.0,0.0,0.0,0.0,0.0,0.0,0.0,0.0,0.0,0.0,0.0,0.0,0.0,0.0,0.0,0.0,0.0,0.0,0.0,0.0,0.0,0.0,0.0,0.0,0.0,0.0,0.0,0.0,0.0,0.0,0.0,0.0,0.0,0.0,0.0,0.0,0.0,0.0,0.0,0.0,0.0,0.0,0.0,0.0,0.0,0.0,0.0,0.0,0.0,0.0,0.0,0.0,0.0,0.0,0.0,0.0,0.0,0.0,0.0,0.0,1.6727,1.6714,1.6578,1.6279,1.5906,1.5906,1.5954,1.6029,1.6035,1.5866,1.5574,1.5445,1.5167,1.4801,1.478,1.478,1.4814,1.5031,1.5228,1.5391,1.5472,1.5361,1.5435,1.5442,1.5642,1.5835,1.5472,1.5384,1.5371,1.5153,1.4991,1.4896,1.4903,1.4624,1.4075,1.3572,1.3649,1.4297,1.5492,1.6098,1.6056,1.5791,1.5574,1.5432,1.5334,1.5202,1.5219,1.4985,1.4678,1.428,1.4098,1.3406,1.2568,1.063,0.9222,0.0,0.0,0.0,0.0,0.0,0.0,0.0,0.0,0.0,0.0,0.0,0.0,0.0,0.0,0.0,0.0,0.0,0.0,0.0,0.0,0.0,0.0,0.0,0.0,0.0,0.0,0.0,0.0,0.0,0.0,0.0,0.0,0.0,0.0,0.0,0.0,0.0,0.0,0.0,0.0,0.0,0.0,0.0,0.0,0.0,0.0,0.0,0.0,0.0,0.0,0.0,0.0,0.0,0.0,0.0,0.0,0.0,0.0,0.3624,0.5966,1.7039,1.7012,1.6748,1.6639,1.6632,1.6639,1.6592,1.6517,1.6517,1.6381,1.6123,1.5825,1.5622,1.5506,1.5594,1.5567,1.5452,1.5594,1.5669,1.5669,1.5689,1.5696,1.5696,1.5696,1.5897,1.6098,1.587,1.5662,1.5662,1.5513,1.5499,1.5601,1.5472,1.5404,1.5357,1.4855,1.4477,1.4428,1.5554,1.6168,1.6015,1.5716,1.5418,1.5133,1.5195,1.5127,1.5079,1.4412,1.3938,1.3792,1.3392,1.2889,1.2309,1.1792,1.1203,0.0,0.6497,0.0,0.0,0.0,0.0,0.0,0.0,0.0,0.0,0.0,0.0,0.0,0.0,0.0,0.0,0.0,0.0,0.0,0.0,0.0,0.0,0.0,0.0,0.0,0.0,0.0,0.0,0.0,0.0,0.0,0.0,0.0,0.0,0.0,0.0,0.0,0.0,0.0,0.0,0.0,0.0,0.0,0.0,0.0,0.0,0.0,0.0,0.0,0.0,0.0,0.0,0.0,0.0,0.0,0.0,0.0,0.0,0.886,1.1849,1.7338,1.7331,1.7277,1.7249,1.7249,1.7249,1.6971,1.6524,1.6517,1.649,1.6415,1.6123,1.5981,1.594,1.573,1.5628,1.5601,1.575,1.5811,1.5818,1.594,1.5995,1.6001,1.5995,1.6001,1.5995,1.5872,1.5811,1.5811,1.5669,1.5547,1.5459,1.5425,1.535,0.0,0.0,0.0,0.0,1.5848,1.6064,1.5703,1.5506,1.5197,1.4821,1.4599,0.0,1.4387,1.2977,1.1916,1.1487,1.1276,0.0,0.0,0.0,0.0,0.0,0.0,0.0,0.0,0.0,0.0,0.0,0.3627,0.0,0.0,0.0,0.0,0.0,0.0,0.0,0.0,0.0,0.0,0.0,0.0,0.0,0.0,0.0,0.0,0.0,0.0,0.0,0.0,0.0,0.0,0.0,0.0,0.0,0.0,0.0,0.0,0.0,0.0,0.0,0.0,0.0,0.0,0.0,0.0,0.0,0.0,0.0,0.0,0.0,0.0,0.0,0.0,0.0,0.274,1.1192,1.2759,1.3109,1.3018,1.4385,1.5255,1.7534,0.0,1.7453,1.7419,0.0,1.7419,1.7249,1.6958,1.6883,1.6768,1.6619,1.6395,1.63,1.6293,1.6144,1.6076,1.6076,1.6151,1.6185,1.6191,1.6259,1.6293,1.6091,1.6293,1.6266,1.6191,1.6117,1.6035,1.5967,1.5893,1.5818,1.5744,1.5744,1.5703,1.5628,1.5822,1.5753,1.5806,1.5959,1.6112,1.5839,1.5368,1.5066,1.4964,0.0,0.0,0.0,0.0,0.0,0.0,0.0,0.0,0.0,0.0,0.0,1.2503,1.1267,1.0836,1.1559,1.267,1.3092,1.2529,0.9162,0.5115,0.043,0.0,0.0,0.0,0.0,0.0,0.0,0.0,0.0,0.0,0.0,0.0,0.0,0.0,0.0,0.0,0.0,0.0,0.0,0.0,0.0,0.0,0.0,0.0,0.0,0.0,0.0,0.0,0.0,0.0,0.0,0.0,0.0,0.0,0.0,0.0,0.0,0.0,0.0,0.0,0.4179,0.7967,0.7765,0.5942,0.5717,1.0867,1.4226,1.5993,1.614,1.6091,1.5883,1.7724,1.7711,1.7561,1.75,1.75,1.75,1.7487,1.7453,0.0,0.0,0.0,1.6666,1.6592,1.6564,1.6537,1.6517,1.6517,1.6517,1.6517,1.6517,1.6517,1.6312,1.6306,1.6312,1.6463,1.6145,1.6347,1.6279,1.6164,1.6157,1.6157,1.6157,1.6157,1.6157,1.6157,1.6157,1.6042,1.621,1.6091,1.6168,1.6029,1.5663,1.5388,1.5194,1.4678,1.3781,1.2694,1.2395,1.2344,1.2644,1.2641,1.2414,1.1802,1.27,1.2914,1.2602,1.2139,1.2086,1.2644,1.3197,1.3539,1.3547,1.4027,1.0351,0.079,0.081,0.1666,0.2556,0.1032,0.0,0.0,0.0,0.0,0.0,0.0,0.0,0.0,0.0,0.0,0.0,0.0,0.0,0.0,0.0,0.0,0.0,0.0,0.0,0.0,0.0,0.0,0.0,0.0,0.0,0.0,0.0,0.0,0.0,0.0,0.0,0.0,0.0,0.0,0.0,0.0,1.4598,1.5616,1.2243,0.9546,0.934,1.288,1.6041,1.6117,1.6055,1.5986,1.803,1.8016,1.7867,1.7806,1.7806,1.7799,1.7731,1.7602,1.746,1.729,1.7121,1.6978,1.6842,1.6714,1.6585,1.6517,1.6517,1.6517,1.6517,0.0,1.6517,1.6524,1.6524,1.6524,1.651,1.6701,1.6497,1.6483,1.6463,1.6456,1.6463,1.6456,1.6463,1.6456,1.6456,1.6252,1.6232,1.6388,1.63,1.6119,1.5879,1.6215,1.5969,1.5181,1.478,1.4373,1.3634,1.4224,1.4297,1.3391,1.3193,1.3016,1.2501,1.3212,1.3549,1.3363,1.3043,1.2893,1.3275,1.4027,1.433,1.3773,1.4503,1.0796,0.1195,0.3964,0.8261,1.2062,0.5386,0.0,0.0,0.0,0.0,0.0,0.0,0.0,0.0,0.0,0.0,0.0,0.0,0.0,0.0,0.0,0.0,0.0,0.0,0.0,0.0,0.0,0.0,0.0,0.0,0.0,0.0,0.0,0.0,0.0,0.0,0.0,0.0,0.0,0.0,0.0,0.9105,1.5233,1.6058,1.5596,1.4507,1.447,1.5459,1.6056,1.6062,1.6029,1.6015,1.8219,1.8206,1.8138,1.8111,1.8104,1.8023,1.7948,1.7874,1.7724,1.7528,1.7311,1.7161,1.706,1.6978,1.6836,1.6768,1.6768,1.6768,1.6768,1.6775,1.6775,1.6768,1.6775,1.6768,1.6727,1.6653,1.6646,1.6605,1.653,1.6517,1.6517,1.6517,1.6517,1.6517,1.6517,1.6312,1.6312,1.6517,1.6252,1.6151,1.6212,1.6501,1.6511,1.5676,1.5581,1.5252,1.4504,1.5019,1.4942,1.4435,1.4421,1.4029,1.3593,1.3878,1.4076,1.3878,1.3535,1.3568,1.382,1.4569,1.4798,1.4295,1.4936,1.3468,0.8608,1.0364,1.2776,1.5222,1.0966,0.8229,0.7953,0.3258,0.0,0.0,0.0,0.0,0.0,0.0,0.0,0.0,0.0,0.0,0.0,0.0,0.0,0.0,0.0,0.0,0.0,0.0,0.0,0.0,0.0,0.0,0.0,0.0,0.0,0.0,0.0,0.0,0.7184,0.903,0.7786,0.5517,1.1218,1.5493,1.6313,1.6212,1.6178,1.6218,1.6151,1.613,1.6171,1.6144,1.6083,1.8369,1.8369,1.8335,1.8321,1.8308,1.8192,1.8145,1.8124,1.7982,1.7785,1.7568,1.7378,1.7277,1.7236,1.7127,1.708,1.708,1.708,1.708,1.708,1.708,1.708,1.708,1.708,1.6998,1.6863,1.6849,1.6775,1.6639,1.6625,1.6625,1.6625,1.6625,1.6625,1.6625,1.6625,1.6625,1.6625,1.6413,1.6393,1.6578,1.6783,1.6673,1.6246,1.6282,1.6007,1.5411,1.5437,1.5361,1.5333,1.5298,1.5033,1.4524,1.4687,1.4736,1.4482,1.4104,1.4143,1.4652,1.4998,1.5149,1.4912,1.5313,1.5619,1.5445,1.5437,1.5494,1.5786,1.5303,1.5043,1.4186,0.8596,0.0,0.0,0.1975,0.0,0.0,0.2009,0.1826,0.183,0.1851,0.0,0.1874,0.1885,0.0,0.0,0.1062,0.2348,0.3633,0.3208,0.1927,0.1711,0.1068,0.0,0.2747,0.0,0.0,0.2501,0.0,0.5604,1.1846,1.5202,1.5409,1.1578,1.3377,1.6022,1.6402,1.6307,1.6259,1.6327,1.6286,1.6239,1.6327,1.6279,1.6191,1.8511,1.8491,1.8382,1.8321,1.8328,1.8308,1.8301,1.828,1.8138,1.8063,1.7989,1.7731,1.7528,1.7412,1.7378,1.7365,1.7365,1.7378,1.7372,1.7365,1.7378,1.7378,1.7365,1.7372,1.7297,1.7161,1.7141,1.7073,1.6944,1.6937,1.6937,1.6937,1.6937,1.6937,1.6937,1.6937,1.6937,1.6937,1.6937,1.687,1.6741,1.6941,1.6927,1.6686,1.6537,1.6313,1.5995,1.6055,1.6029,1.5934,1.5688,1.5423,1.5092,1.5079,1.5086,1.5086,1.4785,1.497,1.5307,1.5262,1.5207,1.5162,1.5767,1.6043,1.6,1.598,1.5703,1.5642,1.5608,1.5655,1.5689,1.4434,1.1921,0.7751,0.7443,0.7721,0.7721,0.7783,0.7626,0.7831,0.7663,0.7689,0.711,0.6943,0.5499,0.234,0.4706,0.8825,1.2971,1.0827,0.8019,0.7143,0.4084,0.5121,1.1312,1.5193,1.2314,0.8601,0.7739,0.9188,1.1451,1.4571,1.644,1.5434,1.577,1.6571,1.6558,1.6517,1.6469,1.6483,1.6476,1.6476,1.6497,1.6469,1.6449,1.8667,1.866,1.8606,1.8579,1.8572,1.8484,1.8443,1.843,1.8287,1.8226,1.8206,1.8002,1.7779,1.7555,1.7467,1.7419,1.7419,1.7419,1.7419,1.7419,1.7419,1.7419,1.7419,1.7419,1.7385,1.7331,1.7331,1.7297,1.7249,1.7236,1.7243,1.7243,1.7243,1.7243,1.7243,1.7023,1.7023,1.7243,1.7023,1.6949,1.7019,1.6931,1.6842,1.6754,1.6686,1.6564,1.6361,1.6273,1.611,1.6041,1.6007,1.5897,1.5664,1.5459,1.5452,1.5643,1.5207,1.5194,1.5841,1.5712,1.5649,1.5473,1.5906,1.6206,1.6018,1.6246,1.6225,1.6371,1.5884,1.5671,1.6198,1.6488,1.5505,1.3469,1.314,1.32,1.341,1.3509,1.3587,1.3592,1.3455,1.2021,0.9293,0.871,0.9401,0.9228,1.0359,1.1501,1.6589,1.5735,1.4639,1.3977,1.1942,1.0578,1.2905,1.5211,1.5151,1.4229,1.3558,1.352,1.3686,1.494,1.7085,1.7051,1.6754,1.67,1.6686,1.6598,1.6537,1.6598,1.6653,1.6653,1.6659,1.6585,1.6592,1.8796,1.8769,1.8803,1.8843,1.8871,1.8721,1.8654,1.8633,1.8464,1.8382,1.8362,1.8219,1.8036,1.7826,1.7629,1.7541,1.7541,1.7541,1.7541,1.7541,1.7541,1.7541,1.7541,1.7541,1.75,1.7439,1.7467,1.746,1.7426,1.7419,1.7419,1.7419,1.7419,1.7419,1.7419,1.7197,1.7197,1.7412,1.7197,1.715,1.7249,1.7154,1.7012,1.6836,1.6815,1.6955,1.6592,1.6379,1.6259,1.6426,1.6205,1.6309,1.6103,1.5886,1.5852,1.598,1.5643,1.5643,1.6175,1.6237,1.5974,1.5757,1.6205,1.6515,1.6517,1.6379,1.6612,1.6845,1.6339,1.6121,1.6333,1.6783,1.6797,1.6612,1.6639,1.6673,1.668,1.7023,1.6708,1.6965,1.6631,1.5642,1.1996,1.1397,1.2961,1.5853,1.3944,1.2462,1.6698,1.7834,1.7643,1.7854,1.7609,1.5958,1.2115,1.4451,1.6783,1.7175,1.673,1.6459,1.7073,1.7053,1.7012,1.691,1.6849,1.6829,1.6822,1.6727,1.6659,1.6761,1.6809,1.6802,1.6815,1.6714,1.6754,1.8898,1.8789,1.8918,1.9033,1.9162,1.9013,1.8959,1.8918,1.8647,1.8525,1.8504,1.8369,1.8301,1.8253,1.7968,1.7846,1.7846,1.7846,1.7846,1.7846,1.7846,1.7846,1.7846,1.784,1.7697,1.75,1.7568,1.7555,1.7433,1.7433,1.7419,1.7433,1.7446,1.7433,1.7446,1.7453,1.7426,1.7453,1.7676,1.7648,1.7412,1.7405,1.7256,1.7012,1.6971,1.6904,1.6982,1.6955,1.6879,1.6932,1.6707,1.6483,1.6252,1.6252,1.6327,1.6123,1.6105,1.6132,1.6344,1.6286,1.6042,1.6075,1.6707,1.6995,1.6948,1.6781,1.6836,1.6951,1.6944,1.6634,1.6426,1.6838,1.7016,1.6804,1.6693,1.6761,1.6768,1.6931,1.7032,1.7148,1.7222,1.6862,1.636,1.6792,1.6798,1.7528,1.7371,1.7213,1.7471,1.7998,1.7812,1.7799,1.7724,1.7384,1.7067,1.6975,1.7183,1.7365,1.7263,1.7188,1.7141,1.7093,1.7032,1.6985,1.6951,1.6937,1.6958,1.6951,1.6917,1.6937,1.6931,1.6931,1.691,1.6951,1.6965,1.881,1.8769,1.8823,1.8932,1.9047,1.8905,1.8905,1.8966,1.8769,1.8681,1.8654,1.8518,1.8457,1.845,1.8247,1.8152,1.8152,1.8158,1.8158,1.8152,1.8158,1.8158,1.8145,1.8063,1.7968,1.7846,1.7492,1.7398,1.7589,1.7656,1.7704,1.7704,1.7704,1.7704,1.7704,1.7704,1.7704,1.7704,1.793,1.7882,1.7575,1.7568,1.7467,1.727,1.7168,1.7087,1.7039,1.6944,1.7044,1.7099,1.6886,1.6838,1.6742,1.6735,1.6687,1.6388,1.6252,1.6266,1.6807,1.6673,1.6564,1.624,1.6768,1.7092,1.7019,1.7121,1.7209,1.7243,1.7043,1.6969,1.6902,1.7012,1.7168,1.7181,1.7087,1.7161,1.7188,1.7229,1.7283,1.7331,1.7358,1.7392,1.725,1.7521,1.7582,1.7841,1.7717,1.7779,1.7806,1.7846,1.786,1.786,1.7826,1.7772,1.7745,1.7541,1.7433,1.7419,1.7358,1.7283,1.7222,1.7182,1.7134,1.7053,1.7026,1.6992,1.6985,1.6971,1.6978,1.6978,1.6978,1.6978,1.6978,1.6978,1.6978,1.8796,1.883,1.8837,1.8925,1.9033,1.8898,1.8891,1.8972,1.883,1.8762,1.8742,1.8654,1.8606,1.8593,1.8504,1.8464,1.845,1.8369,1.8314,1.8321,1.8321,1.8321,1.8301,1.8213,1.8111,1.7989,1.7545,1.7425,1.767,1.784,1.7935,1.7935,1.7935,1.7941,1.7935,1.7894,1.786,1.786,1.786,1.7812,1.7731,1.7937,1.7895,1.7561,1.7419,1.7096,1.7049,1.6956,1.7073,1.6985,1.6971,1.7113,1.6975,1.6955,1.6927,1.668,1.65,1.6527,1.6962,1.6996,1.6863,1.6525,1.7053,1.7387,1.7263,1.7358,1.7412,1.7419,1.7197,1.7197,1.719,1.7365,1.7538,1.7511,1.7365,1.7419,1.7419,1.7412,1.7439,1.7487,1.7548,1.7568,1.7575,1.7663,1.7711,1.7944,1.7812,1.786,1.786,1.786,1.786,1.786,1.786,1.7846,1.7826,1.7697,1.7623,1.7602,1.7521,1.7426,1.7344,1.7297,1.7229,1.7141,1.708,1.7032,1.7005,1.6985,1.6978,1.6978,1.6978,1.6978,1.6978,1.6978,1.6978,1.885,1.8959,1.8986,1.904,1.9128,1.9006,1.8979,1.8959,1.883,1.8762,1.8755,1.8749,1.8735,1.8742,1.8715,1.8735,1.8681,1.8477,1.8369,1.8362,1.8362,1.8355,1.8362,1.8314,1.8138,1.7894,1.7738,1.767,1.7704,1.7955,1.8091,1.8091,1.8091,1.8091,1.8091,1.7975,1.7894,1.7907,1.7914,1.7887,1.7867,1.7887,1.788,1.7853,1.7964,1.7609,1.7021,1.6981,1.715,1.7157,1.7157,1.7338,1.7182,1.7154,1.6902,1.7019,1.6889,1.6956,1.6969,1.7063,1.7103,1.713,1.7183,1.7621,1.7641,1.7669,1.7467,1.7696,1.7689,1.7453,1.748,1.7779,1.7799,1.7899,1.7676,1.7473,1.746,1.7439,1.7487,1.7643,1.7758,1.7846,1.7853,1.784,1.7833,1.784,1.7853,1.788,1.7887,1.788,1.786,1.7874,1.7874,1.786,1.786,1.7853,1.7846,1.7826,1.7711,1.7609,1.7534,1.748,1.7392,1.7311,1.7229,1.7182,1.7066,1.7046,1.7005,1.6998,1.6992,1.6985,1.6978,1.6978,1.6978,1.8789,1.883,1.8837,1.8918,1.9027,1.8898,1.8891,1.8972,1.883,1.8762,1.8762,1.8762,1.8762,1.8762,1.8762,1.8762,1.8749,1.866,1.8626,1.8613,1.8613,1.8613,1.8586,1.8651,1.839,1.815,1.7935,1.7955,1.7982,1.8152,1.8247,1.8247,1.8247,1.8247,1.8247,1.7967,1.7947,1.8179,1.7947,1.7947,1.8172,1.8179,1.8172,1.8172,1.8131,1.786,1.757,1.7643,1.7655,1.7655,1.7641,1.7621,1.7365,1.713,1.7103,1.7076,1.7324,1.7573,1.7573,1.7621,1.7662,1.7669,1.7744,1.7799,1.782,1.7895,1.7724,1.795,1.7731,1.7724,1.7731,1.7765,1.7964,1.782,1.7889,1.7717,1.7724,1.7724,1.7799,1.7907,1.7901,1.7907,1.7968,1.7955,1.7894,1.7887,1.788,1.7907,1.7982,1.7941,1.7921,1.7989,1.7935,1.7894,1.7935,1.7935,1.7907,1.7894,1.7819,1.7738,1.7677,1.7636,1.7555,1.7467,1.7392,1.7297,1.7182,1.7121,1.71,1.7039,1.7026,1.7012,1.6985,1.7005,1.7053,1.8762,1.8762,1.8762,1.8816,1.8891,1.8796,1.8816,1.8884,1.8803,1.8762,1.8762,1.8762,1.8762,1.8762,1.8762,1.8762,1.8762,1.8762,1.8762,1.8762,1.8762,1.8762,1.8721,1.8692,1.8465,1.8301,1.8077,1.8091,1.8104,1.8294,1.8403,1.8396,1.8396,1.8396,1.8382,1.8061,1.8253,1.8301,1.826,1.826,1.8308,1.8321,1.8548,1.8321,1.8314,1.8314,1.8054,1.817,1.8204,1.7971,1.793,1.7875,1.7602,1.7582,1.7337,1.7311,1.7609,1.7902,1.7902,1.7971,1.7978,1.7998,1.8067,1.8129,1.8143,1.8225,1.803,1.8036,1.7975,1.7968,1.8009,1.7975,1.7928,1.8136,1.7921,1.7975,1.8009,1.803,1.8063,1.8131,1.8097,1.8091,1.7887,1.8111,1.8036,1.803,1.8036,1.8009,1.8084,1.8063,1.8091,1.8084,1.8016,1.8009,1.8036,1.8009,1.7962,1.7935,1.7894,1.7826,1.7765,1.7751,1.7697,1.7595,1.7507,1.7439,1.7331,1.729,1.7256,1.7182,1.7121,1.7168,1.7202,1.7188,1.7216,1.8789,1.8789,1.8789,1.8803,1.8803,1.8789,1.8789,1.8769,1.8762,1.8762,1.8762,1.8762,1.8762,1.8762,1.8762,1.8762,1.8762,1.8762,1.8762,1.8762,1.8762,1.8755,1.8687,1.8464,1.8342,1.8294,1.8199,1.8152,1.8219,1.843,1.8545,1.8545,1.8545,1.8531,1.8477,1.8486,1.8219,1.8294,1.867,1.8465,1.8342,1.8596,1.8603,1.8603,1.861,1.8382,1.8375,1.8562,1.8534,1.8061,1.8124,1.8002,1.7914,1.7887,1.7612,1.7518,1.7726,1.8043,1.7887,1.8145,1.8001,1.7994,1.8233,1.8548,1.8719,1.8472,1.826,1.826,1.8172,1.792,1.8001,1.7954,1.8165,1.8274,1.8179,1.8165,1.8287,1.8294,1.8287,1.8314,1.8328,1.8321,1.8081,1.8301,1.828,1.828,1.8274,1.8226,1.8192,1.8199,1.8206,1.8165,1.8084,1.8009,1.7996,1.7982,1.7935,1.7914,1.7901,1.7867,1.7826,1.7819,1.7812,1.7717,1.7636,1.7561,1.75,1.7453,1.7399,1.7331,1.7338,1.7405,1.7392,1.7344,1.7338,1.9088,1.9088,1.9088,1.9027,1.8938,1.8932,1.8864,1.8769,1.8769,1.8782,1.8762,1.8762,1.8769,1.8762,1.8762,1.8762,1.8762,1.8769,1.8762,1.8762,1.8762,1.8694,1.8843,1.8525,1.847,1.8235,1.8423,1.8477,1.8586,1.8647,1.8694,1.8701,1.8687,1.8633,1.8525,1.8678,1.861,1.8342,1.8637,1.8665,1.8484,1.8593,1.8877,1.8647,1.864,1.864,1.8647,1.8647,1.8768,1.8568,1.852,1.8479,1.8192,1.796,1.7927,1.7914,1.7967,1.8027,1.85,1.8541,1.8555,1.8555,1.8582,1.8781,1.8788,1.8555,1.8321,1.8314,1.8274,1.8048,1.8074,1.8294,1.8568,1.843,1.8355,1.8294,1.8328,1.8321,1.8355,1.8443,1.8389,1.8389,1.8423,1.8382,1.8321,1.8548,1.8562,1.8342,1.8314,1.828,1.8267,1.8199,1.8118,1.8002,1.7935,1.7921,1.7907,1.7894,1.788,1.7874,1.7853,1.7846,1.7846,1.7812,1.7772,1.7704,1.7643,1.7589,1.7534,1.7494,1.7473,1.7494,1.7446,1.7405,1.7419,1.9203,1.9203,1.9203,1.9156,1.9081,1.9081,1.9027,1.8959,1.8945,1.8911,1.8884,1.8925,1.8877,1.8776,1.883,1.8816,1.8776,1.883,1.8823,1.8762,1.8762,1.8715,1.8633,1.8579,1.8559,1.8613,1.8559,1.8613,1.8728,1.8762,1.8762,1.8755,1.8762,1.8708,1.864,1.8559,1.8531,1.8511,1.8538,1.8349,1.8721,1.881,1.8891,1.8911,1.8891,1.8837,1.8776,1.8755,1.8905,1.8768,1.8685,1.8644,1.8637,1.8409,1.8382,1.8335,1.8195,1.8484,1.8671,1.8699,1.874,1.8747,1.874,1.874,1.8747,1.8511,1.8504,1.8511,1.8457,1.845,1.8262,1.8511,1.8774,1.8606,1.8552,1.8504,1.8504,1.8518,1.8545,1.8572,1.8511,1.8437,1.8754,1.8403,1.8342,1.8562,1.8389,1.8403,1.8403,1.8355,1.8308,1.8253,1.824,1.8172,1.8104,1.8084,1.7982,1.7948,1.7874,1.7867,1.786,1.786,1.786,1.7853,1.786,1.784,1.7765,1.7717,1.7717,1.767,1.7616,1.7595,1.7582,1.7541,1.7555,1.925,1.925,1.925,1.9237,1.923,1.9223,1.9203,1.9189,1.9169,1.9115,1.9054,1.9142,1.904,1.8816,1.8959,1.8945,1.8837,1.8966,1.8905,1.8843,1.8803,1.8782,1.8728,1.8633,1.864,1.8708,1.8613,1.8647,1.8735,1.8762,1.8762,1.8762,1.8762,1.8742,1.8674,1.8586,1.8599,1.8613,1.8329,1.8416,1.861,1.8938,1.9262,1.9122,1.9061,1.8959,1.8871,1.8816,1.8782,1.8782,1.8871,1.8802,1.8788,1.8788,1.874,1.845,1.8593,1.8674,1.8836,1.8898,1.8735,1.8721,1.8728,1.8762,1.8728,1.8715,1.8708,1.8701,1.8864,1.8626,1.8687,1.8742,1.8728,1.8728,1.8742,1.8749,1.8742,1.8742,1.8742,1.8728,1.8593,1.8525,1.8477,1.8409,1.8314,1.8321,1.8375,1.8382,1.8382,1.8342,1.8328,1.8335,1.8342,1.8375,1.8321,1.8274,1.8131,1.8016,1.7907,1.7867,1.786,1.786,1.786,1.786,1.786,1.786,1.7846,1.7833,1.7833,1.7819,1.7745,1.7785,1.7826,1.7758,1.7738,1.9563,1.9563,1.9563,1.9495,1.9393,1.9379,1.9312,1.921,1.921,1.9203,1.9169,1.9196,1.9169,1.9101,1.9128,1.9135,1.9088,1.9122,1.9074,1.8959,1.8938,1.8864,1.8789,1.8721,1.8735,1.8749,1.8735,1.8735,1.8755,1.8762,1.8762,1.8762,1.8755,1.8708,1.8599,1.8586,1.8484,1.8457,1.8498,1.8423,1.8604,1.9214,1.9574,1.9447,1.9176,1.8898,1.8851,1.8758,1.8704,1.8898,1.8796,1.8694,1.8694,1.8701,1.8674,1.8667,1.8694,1.8742,1.8721,1.8735,1.8762,1.8762,1.8762,1.8762,1.8762,1.8762,1.8762,1.8762,1.8735,1.8721,1.8755,1.8762,1.8762,1.8762,1.8762,1.8721,1.862,1.8823,1.8829,1.8559,1.8457,1.8362,1.8362,1.8335,1.8294,1.8314,1.8328,1.8342,1.8328,1.8308,1.8321,1.8335,1.8287,1.8274,1.8199,1.8152,1.807,1.7996,1.7921,1.7867,1.7867,1.786,1.786,1.786,1.786,1.786,1.786,1.786,1.7846,1.786,1.786,1.786,1.786,1.786,1.786,1.9664,1.9664,1.9664,1.9617,1.9549,1.9535,1.9495,1.9427,1.942,1.9373,1.9339,1.9379,1.9339,1.9217,1.9271,1.9278,1.921,1.9203,1.9203,1.9169,1.9135,1.9006,1.8898,1.8857,1.8843,1.8782,1.8762,1.8762,1.8762,1.8762,1.8762,1.8762,1.8762,1.8735,1.8654,1.864,1.866,1.8674,1.8708,1.861,1.8811,1.9156,1.9706,1.9544,1.9298,1.9257,1.9094,1.9269,1.8959,1.8884,1.881,1.8762,1.8762,1.8762,1.8762,1.8762,1.8762,1.8762,1.8762,1.8762,1.8762,1.8762,1.8762,1.8762,1.8762,1.8762,1.8762,1.8762,1.8762,1.8762,1.8762,1.8762,1.8762,1.8762,1.8762,1.8721,1.8654,1.8816,1.8733,1.843,1.8301,1.8233,1.8206,1.8226,1.8145,1.8111,1.8206,1.8226,1.8247,1.8233,1.8274,1.8267,1.8192,1.8124,1.8036,1.7982,1.7935,1.7901,1.7887,1.7867,1.786,1.786,1.786,1.786,1.786,1.786,1.786,1.786,1.786,1.786,1.786,1.786,1.786,1.786,1.786,1.9664,1.9664,1.9664,1.9664,1.9664,1.9657,1.9651,1.9651,1.9664,1.9563,1.9501,1.961,1.9495,1.9352,1.9413,1.9379,1.9318,1.9291,1.9352,1.9366,1.9284,1.9156,1.9047,1.9006,1.8972,1.8837,1.8782,1.8769,1.8762,1.8762,1.8762,1.8769,1.8803,1.8782,1.8769,1.8796,1.883,1.8671,1.8932,1.8845,1.8833,1.9393,1.9653,1.9461,1.9461,1.9592,1.9413,1.931,1.9214,1.881,1.8776,1.8776,1.8789,1.8769,1.8789,1.8789,1.8789,1.8803,1.8857,1.8837,1.881,1.8796,1.8803,1.8782,1.8769,1.8762,1.8762,1.8762,1.8762,1.8762,1.8762,1.8762,1.8762,1.8762,1.8762,1.8749,1.8708,1.8836,1.8726,1.8396,1.8301,1.8226,1.8165,1.8145,1.8016,1.7948,1.805,1.8118,1.8152,1.8158,1.8192,1.8152,1.8063,1.803,1.7948,1.7928,1.7867,1.786,1.786,1.786,1.786,1.786,1.786,1.786,1.786,1.786,1.786,1.786,1.786,1.786,1.786,1.786,1.786,1.786,1.786,1.9664,1.9664,1.9664,1.9664,1.9664,1.9664,1.9664,1.9664,1.9664,1.9651,1.963,1.9651,1.963,1.9583,1.9603,1.9596,1.9549,1.9535,1.9508,1.9468,1.94,1.9312,1.9196,1.9169,1.9142,1.9067,1.8925,1.8803,1.8789,1.8762,1.8816,1.881,1.8898,1.8905,1.8857,1.8877,1.8731,1.8805,1.9289,1.9189,1.914,1.9454,1.975,1.9583,1.9596,1.9743,1.9598,1.9223,1.8858,1.8724,1.883,1.885,1.9138,1.885,1.8857,1.8905,1.8864,1.8891,1.8791,1.8764,1.8724,1.8711,1.8711,1.8877,1.881,1.8769,1.8782,1.8762,1.8762,1.8762,1.8762,1.8762,1.8762,1.8762,1.8755,1.8721,1.8626,1.8579,1.8781,1.8498,1.8382,1.826,1.8213,1.8186,1.8152,1.8124,1.8179,1.8186,1.8165,1.8131,1.8097,1.8023,1.7907,1.7901,1.788,1.788,1.786,1.786,1.786,1.786,1.786,1.786,1.786,1.786,1.786,1.786,1.786,1.786,1.786,1.786,1.786,1.786,1.786,1.786,1.786,1.9664,1.9664,1.9664,1.9664,1.9664,1.9664,1.9664,1.9664,1.9664,1.9664,1.9664,1.9664,1.9664,1.9664,1.9664,1.9664,1.9664,1.9664,1.9617,1.9556,1.9542,1.9468,1.9339,1.9318,1.9264,1.9427,1.9289,1.8986,1.8993,1.9,1.8979,1.9006,1.9074,1.9061,1.902,1.8818,1.8898,1.8939,1.9468,1.9564,1.9274,1.9549,1.9603,1.9637,1.9657,1.9825,1.9695,1.9126,1.8761,1.8872,1.8784,1.904,1.9054,1.9289,1.9027,1.8831,1.9027,1.9033,1.8925,1.9128,1.9344,1.9338,1.9094,1.8784,1.8691,1.8877,1.8843,1.8782,1.8762,1.8762,1.8762,1.8762,1.8762,1.8762,1.8762,1.8721,1.8674,1.8654,1.8647,1.8613,1.8685,1.8342,1.8301,1.8294,1.8308,1.8314,1.8328,1.828,1.8219,1.8186,1.8152,1.803,1.7941,1.7901,1.7894,1.7894,1.7874,1.7867,1.7867,1.7867,1.7874,1.7874,1.7867,1.786,1.786,1.786,1.786,1.786,1.786,1.786,1.786,1.786,1.786,1.786,1.786,2.038,1.9664,1.9664,1.9664,1.9664,1.9664,1.9664,1.9664,1.9664,1.9664,1.9664,1.9664,1.9664,1.9664,1.9664,1.9664,1.9664,1.9664,1.9657,1.9651,1.9644,1.9583,1.9756,1.9468,1.9434,1.9605,1.9557,1.9257,1.9169,1.9162,1.9189,1.9183,1.921,1.9223,1.9196,1.921,1.884,1.914,1.9434,1.9756,1.9624,1.9664,1.9664,1.9664,1.9664,1.9832,1.9695,1.9413,1.9086,1.8985,1.8945,1.9203,1.9244,1.9495,1.9509,1.9032,1.9482,1.9237,1.9291,1.9257,1.9502,1.9502,1.925,1.9162,1.9061,1.8986,1.8932,1.8837,1.8769,1.8762,1.8762,1.8762,1.8762,1.8762,1.8762,1.8755,1.8749,1.8735,1.8728,1.8884,1.874,1.8692,1.8457,1.8477,1.8511,1.8511,1.8518,1.8443,1.8389,1.8362,1.8301,1.8138,1.8023,1.7955,1.7935,1.7935,1.7901,1.7867,1.7874,1.788,1.7887,1.7894,1.7894,1.7907,1.786,1.786,1.786,1.786,1.786,1.786,1.786,1.786,1.786,1.786,1.786,2.2288,1.9664,1.9664,1.9664,1.9664,1.9664,1.9664,1.9664,1.9664,1.9664,1.9664,1.9664,1.9664,1.9664,1.9664,1.9664,1.9664,1.9664,1.9664,1.9664,1.9664,1.9651,1.963,1.963,1.9596,1.9791,1.9569,1.944,1.9312,1.925,1.9223,1.9257,1.9345,1.9352,1.9284,1.9359,1.9413,1.9186,1.944,1.9756,1.9637,1.9664,1.9664,1.9664,1.9651,1.9603,1.9729,1.9461,1.9633,1.9509,1.9475,1.953,1.9626,1.9653,1.9736,1.9481,1.9413,1.9318,1.9501,1.9715,1.9653,1.9653,1.9653,1.9571,1.9447,1.9074,1.9,1.8972,1.8864,1.8796,1.8796,1.8776,1.8769,1.8769,1.8776,1.8769,1.8762,1.8762,1.8762,1.8755,1.8857,1.8884,1.8674,1.8694,1.8721,1.8715,1.8694,1.8613,1.8538,1.8498,1.8437,1.8274,1.8165,1.8091,1.8057,1.8043,1.8009,1.7941,1.7948,1.7955,1.7996,1.8023,1.7989,1.7982,1.7928,1.7874,1.786,1.786,1.786,1.786,1.786,1.786,1.786,1.786,1.786,2.5146,2.2288,2.0373,1.9664,1.9664,1.9664,1.9664,1.9664,1.9664,1.9664,1.9664,1.9664,1.9664,1.9664,1.9664,1.9664,1.9664,1.9664,1.9664,1.9664,1.9664,1.9664,1.9657,1.9664,1.9664,1.9685,1.9657,1.961,1.9481,1.9461,1.9461,1.9461,1.9515,1.9542,1.9434,1.9522,1.9556,1.9563,1.9569,1.9603,1.9651,1.9664,1.9664,1.9671,1.9671,1.963,1.9832,1.9805,1.9784,1.9708,1.9708,1.9736,1.9791,1.9811,1.9603,1.9624,1.9549,1.9535,1.9624,1.959,1.9811,1.9805,1.9798,1.9743,1.9592,1.9447,1.9067,1.8993,1.8771,1.8731,1.8905,1.8891,1.8891,1.8877,1.8843,1.8803,1.8789,1.8762,1.8762,1.8762,1.8762,1.8769,1.8769,1.8755,1.8749,1.8742,1.8735,1.8701,1.8626,1.8565,1.8498,1.8409,1.8321,1.8253,1.8226,1.8206,1.8199,1.8158,1.8152,1.8165,1.8186,1.8186,1.8138,1.8084,1.803,1.7968,1.7894,1.786,1.786,1.786,1.786,1.786,1.786,1.786,1.786,2.7282,2.4193,2.1093,1.9664,1.9664,1.9664,1.9664,1.9664,1.9664,1.9664,1.9664,1.9664,1.9664,1.9664,1.9664,1.9664,1.9664,1.9664,1.9664,1.9664,1.9671,1.9685,1.9719,1.9725,1.9746,1.9759,1.9746,1.9746,1.9766,1.9725,1.9678,1.9671,1.963,1.9644,1.9657,1.9644,1.9644,1.9644,1.9644,1.9678,1.9719,1.9725,1.9752,1.9773,1.9766,1.9752,1.9719,1.9712,1.9705,1.9644,1.963,1.963,1.9644,1.9644,1.9644,1.9671,1.9651,1.9664,1.9678,1.9651,1.9664,1.9664,1.9657,1.9596,1.975,1.9352,1.9237,1.9142,1.8892,1.8878,1.8838,1.904,1.904,1.9013,1.8966,1.8905,1.8871,1.8891,1.8877,1.8864,1.885,1.8803,1.8789,1.8769,1.8762,1.8762,1.8762,1.8762,1.8708,1.864,1.8572,1.8504,1.8511,1.8416,1.8321,1.8314,1.8328,1.8348,1.8348,1.8355,1.8355,1.8321,1.8274,1.8213,1.8152,1.8057,1.7982,1.7921,1.786,1.786,1.786,1.786,1.786,1.7867,1.7894,2.7282,2.4193,2.1093,1.9664,1.9664,1.9664,1.9664,1.9664,1.9664,1.9664,1.9664,1.9664,1.9664,1.9664,1.9664,1.9664,1.9664,1.9664,1.9678,1.9678,1.9678,1.9752,1.9813,1.9875,1.9915,1.9997,1.9929,1.9936,1.9997,1.9895,1.9793,1.9685,1.9712,1.9685,1.9671,1.9678,1.9685,1.9685,1.9698,1.9752,1.9813,2.0107,2.0168,2.0017,1.9789,1.9749,1.9615,1.9841,1.9793,1.9698,1.9691,1.9691,1.9698,1.9725,1.9739,1.9759,1.9813,1.9807,1.9766,1.9712,1.9671,1.9664,1.9657,1.9651,1.9603,1.9495,1.9413,1.9605,1.9066,1.8999,1.921,1.9427,1.9434,1.9169,1.9122,1.9081,1.9061,1.9088,1.9067,1.9,1.8959,1.8925,1.8905,1.8898,1.8789,1.8782,1.8762,1.8762,1.8762,1.8701,1.8647,1.8613,1.8674,1.8593,1.8396,1.8396,1.8477,1.847,1.845,1.8477,1.8504,1.8464,1.843,1.8362,1.8301,1.8179,1.8063,1.7989,1.7928,1.788,1.786,1.786,1.788,1.7901,1.7962,2.8474,2.6805,2.1812,1.9664,1.9664,1.9664,1.9664,1.9664,1.9664,1.9664,1.9664,1.9664,1.9664,1.9664,1.9664,1.9664,1.9664,1.9664,1.9712,1.9766,1.9807,1.9875,1.9709,2.0017,2.0051,2.0347,2.0044,2.0024,2.0071,2.0037,2.001,1.9922,1.9854,1.98,1.978,1.9732,1.9732,1.978,1.9793,1.9827,1.9868,2.023,2.0299,2.0085,2.0098,2.0071,2.0003,1.9662,1.9847,1.9807,1.9793,1.9793,1.9807,1.9861,1.9902,1.9662,1.9729,1.9963,1.9908,1.9834,1.9759,1.9671,1.9664,1.9664,1.9664,1.9596,1.9515,1.9474,1.9468,1.9427,1.9352,1.9585,1.9585,1.9318,1.9291,1.925,1.9244,1.9264,1.9223,1.9149,1.9122,1.9101,1.9074,1.8811,1.8918,1.8803,1.8782,1.8762,1.8762,1.8762,1.8701,1.8674,1.8728,1.8749,1.8565,1.8586,1.864,1.8599,1.8559,1.8593,1.8626,1.866,1.862,1.8545,1.8437,1.8308,1.8186,1.807,1.7975,1.7901,1.7867,1.786,1.7894,1.7921,1.7996,3.0127,2.8702,2.4434,2.1336,1.9908,1.9664,1.9664,1.9664,1.9664,1.9664,1.9664,1.9664,1.9664,1.9664,1.9664,1.9664,1.9664,1.9678,1.9759,1.9813,1.9875,1.9742,1.985,1.9923,2.02,2.0457,2.0187,2.0187,2.0261,2.0193,2.02,2.018,2.0092,2.0017,1.9915,1.9861,1.9847,1.9915,1.9936,1.9729,2.0024,2.0361,2.0471,2.0241,2.0261,2.022,2.0173,2.0092,2.001,1.9963,1.9942,1.9942,1.9976,2.0024,2.0085,1.9863,1.9883,2.0153,2.0333,1.9963,1.9827,1.9759,1.9678,1.9671,1.9664,1.9664,1.9596,1.9784,1.9596,1.9617,1.9495,1.9501,1.9743,1.9481,1.9454,1.942,1.9413,1.942,1.9352,1.9284,1.9271,1.925,1.9169,1.9128,1.904,1.8898,1.8796,1.8776,1.8762,1.8762,1.8749,1.8735,1.8749,1.8755,1.8749,1.8721,1.8694,1.8694,1.8667,1.8694,1.8735,1.8762,1.8749,1.8654,1.8545,1.843,1.8328,1.8226,1.8063,1.7894,1.7887,1.7901,1.7874,1.7907,1.7996,3.2029,2.9415,2.894,2.5386,2.0622,1.9901,1.9901,1.9664,1.9664,1.9664,1.9664,1.9664,1.9664,1.9664,1.9664,1.9664,1.9671,1.9678,1.9766,1.9881,1.9963,2.0085,2.0227,2.0336,2.0363,2.0458,2.0404,2.0376,2.0485,2.0376,2.0397,2.0424,2.0329,2.022,2.0105,2.0085,2.0092,2.0098,1.9843,1.9917,2.0241,2.0295,2.0383,2.0431,2.0458,2.0404,2.0329,2.0268,2.018,1.9856,2.0098,2.0354,2.0361,2.0139,2.0166,2.0416,2.0268,2.0254,2.0381,1.9969,1.9908,1.9615,1.9786,1.9705,1.9678,1.9664,1.9657,1.961,1.9651,1.9664,1.9644,1.9644,1.963,1.961,1.9576,1.9563,1.9549,1.9542,1.9474,1.944,1.942,1.9379,1.9284,1.9196,1.9135,1.902,1.8857,1.8803,1.8816,1.8837,1.8864,1.8823,1.8823,1.8782,1.8782,1.8769,1.8749,1.8762,1.8762,1.8762,1.8762,1.8762,1.8742,1.8721,1.8654,1.8545,1.847,1.8403,1.8213,1.8036,1.7962,1.7941,1.7901,1.7948,1.8097,3.3207,3.2029,3.0127,2.7998,2.5857,2.3712,2.1812,1.9901,1.9664,1.9664,1.9664,1.9664,1.9664,1.9664,1.9671,1.9671,1.9678,1.9786,1.9881,2.0024,2.0105,2.0282,2.0417,2.0458,2.0492,2.0512,2.0485,2.0471,2.0526,2.0471,2.0485,2.0505,2.0478,2.0397,2.0254,2.0187,2.0132,2.0234,2.0254,2.0282,2.0336,2.0417,2.0492,2.0539,2.0539,2.0505,2.0451,2.0397,2.0315,2.0254,2.0505,2.0512,2.0532,2.0302,2.037,2.0383,2.0458,2.0451,2.037,2.0268,2.0132,1.9776,1.9649,1.9807,1.9793,1.9705,1.9678,1.9664,1.9664,1.9664,1.9657,1.9657,1.9651,1.9651,1.963,1.9637,1.963,1.963,1.9603,1.9596,1.9576,1.9556,1.9488,1.9379,1.9305,1.9264,1.9135,1.9047,1.9047,1.9054,1.9067,1.8972,1.8925,1.885,1.881,1.8776,1.8762,1.8762,1.8762,1.8762,1.8762,1.8762,1.8755,1.8742,1.8701,1.866,1.8572,1.8477,1.8335,1.8199,1.8179,1.8131,1.8111,1.8213,1.8369,3.5599,3.5365,3.3454,3.1793,3.0364,2.7511,2.4193,2.1578,2.0137,1.9685,1.9719,1.9691,1.9698,1.9725,1.9739,1.9732,1.9752,1.9888,2.0037,2.018,2.0275,2.0397,2.0485,2.0539,2.0526,2.0539,2.0539,2.0539,2.0539,2.0539,2.0539,2.0539,2.0539,2.0478,2.039,2.0329,2.0315,2.039,2.0404,2.0404,2.0438,2.0478,2.0532,2.0539,2.0539,2.0532,2.0512,2.0465,2.0404,2.0404,2.0404,2.0404,2.0438,2.0478,2.0539,2.0539,2.0539,2.0532,2.0492,2.0465,2.0336,2.0017,2.0071,1.9936,1.9881,1.9793,1.9719,1.9685,1.9678,1.9671,1.9671,1.9671,1.9678,1.9678,1.9664,1.9664,1.9664,1.9664,1.9657,1.9657,1.9657,1.9664,1.9657,1.9596,1.9495,1.9461,1.942,1.9339,1.9244,1.923,1.9203,1.9094,1.8993,1.8918,1.8837,1.8769,1.8762,1.8762,1.8782,1.8803,1.8762,1.8762,1.8762,1.8762,1.8735,1.8694,1.864,1.8545,1.8484,1.8464,1.8477,1.8423,1.8355,1.8409,1.8518,3.8718,3.8718,3.8718,3.6804,3.3688,3.0601,2.7521,2.4434,2.1336,2.0213,2.0086,1.9942,1.9712,1.9827,1.9847,1.9847,1.9881,2.0017,2.0159,2.0282,2.0349,2.0444,2.0505,2.0539,2.0539,2.0539,2.0539,2.0539,2.0539,2.0539,2.0539,2.0539,2.0539,2.0519,2.0499,2.0485,2.0478,2.0492,2.0499,2.0499,2.0505,2.0526,2.0539,2.0539,2.0539,2.0539,2.0532,2.0512,2.0512,2.0519,2.0526,2.0526,2.0532,2.0539,2.0539,2.0539,2.0539,2.0539,2.0539,2.0512,2.0512,2.0431,2.0526,2.0085,1.9963,1.9915,1.9834,1.9766,1.9739,1.9712,1.9691,1.9698,1.9698,1.9685,1.9671,1.9664,1.9664,1.9664,1.9664,1.9664,1.9664,1.9664,1.9664,1.9624,1.9596,1.959,1.9542,1.9481,1.94,1.9339,1.9284,1.9406,1.9067,1.8972,1.8905,1.8877,1.8884,1.8925,1.8884,1.8891,1.883,1.8816,1.885,1.8857,1.8789,1.8735,1.8687,1.8694,1.8708,1.8701,1.8654,1.8606,1.8498,1.845,1.8504,3.8718,3.8718,3.8718,3.824,3.7037,3.3923,3.0837,2.7521,2.4425,2.3045,2.3069,2.0637,1.9935,1.9719,1.9725,1.9793,1.9902,2.0031,2.018,2.0309,2.0424,2.0492,2.0526,2.0539,2.0539,2.0539,2.0539,2.0539,2.0539,2.0539,2.0539,2.0539,2.0539,2.0539,2.0539,2.0539,2.0539,2.0793,2.0786,2.0539,2.0539,2.0539,2.0539,2.0539,2.0539,2.0539,2.0539,2.0539,2.0539,2.0539,2.0539,2.0539,2.0539,2.0539,2.0539,2.0539,2.0539,2.0539,2.0539,2.0539,2.0539,2.0539,2.0438,2.0363,2.0227,2.0092,1.9976,1.9888,1.9847,1.9827,1.978,1.9759,1.9766,1.9759,1.9739,1.9705,1.9705,1.9705,1.9698,1.9664,1.9664,1.9664,1.9664,1.9657,1.9637,1.9657,1.9644,1.9583,1.9535,1.9481,1.9386,1.9502,1.921,1.9142,1.9108,1.9081,1.9088,1.9088,1.904,1.902,1.9033,1.902,1.9006,1.8952,1.8877,1.881,1.8749,1.8762,1.8762,1.8762,1.8721,1.8694,1.866,1.8593,1.8565,3.8718,3.8718,3.8718,3.8718,3.8472,3.6558,3.4651,3.2276,2.8236,2.5883,2.4286,2.2553,2.0887,1.9752,1.9766,1.9834,1.9983,2.0139,2.0288,2.0417,2.0499,2.0519,2.0539,2.0539,2.0539,2.0539,2.0539,2.0539,2.0539,2.0539,2.0539,2.0539,2.0539,2.0539,2.0539,2.0539,2.1541,2.1541,2.1541,2.0786,2.0793,2.0786,2.0539,2.0539,2.0539,2.0532,2.0539,2.0539,2.0539,2.0539,2.0539,2.0539,2.0539,2.0539,2.0539,2.0539,2.0539,2.0539,2.0539,2.0539,2.0539,2.0539,2.0539,2.0485,2.0397,2.0268,2.0132,2.0017,1.999,1.9709,1.9888,1.9834,1.9847,1.9861,1.9807,1.9759,1.9752,1.9752,1.9719,1.9678,1.9664,1.9664,1.9664,1.9664,1.9664,1.9664,1.9664,1.9644,1.9617,1.9603,1.9501,1.9626,1.9605,1.9332,1.9298,1.9244,1.9217,1.9189,1.9149,1.9149,1.9203,1.9183,1.9122,1.904,1.8959,1.8905,1.8864,1.8782,1.8762,1.8769,1.8769,1.8735,1.8721,1.8708,1.8701,3.8718,3.8718,3.8718,3.8718,3.8718,3.8485,3.8472,3.8007,3.2512,2.8324,2.6036,2.4975,2.3552,2.2176,2.1963,2.1363,2.1509,2.142,2.0825,2.078,2.0526,2.0539,2.0539,2.0539,2.0539,2.0539,2.0539,2.104,2.104,2.1541,2.204,2.1294,2.204,2.2792,2.3037,2.095,2.2205,2.555,2.5349,2.4885,2.2807,2.1794,2.104,2.1033,2.0773,2.0519,2.0532,2.0539,2.0539,2.0539,2.0539,2.0539,2.0539,2.0539,2.0539,2.0539,2.0539,2.0539,2.0539,2.0539,2.0539,2.0539,2.0539,2.0526,2.0458,2.041,2.0282,2.0173,2.0139,1.9863,2.0051,1.9949,1.9922,1.9936,1.9915,1.9888,1.9895,1.9854,1.9766,1.9712,1.9664,1.9664,1.9664,1.9664,1.9664,1.9664,1.9664,1.9664,1.9664,1.9664,1.9603,1.9736,1.9736,1.9474,1.9413,1.9359,1.9312,1.9278,1.9271,1.9298,1.9366,1.9312,1.9223,1.9162,1.9108,1.9047,1.8993,1.8905,1.8837,1.8816,1.881,1.8769,1.8769,1.8789,1.8776,3.8718,3.8718,3.8718,3.8718,3.8718,3.8718,3.8718,3.8718,3.7283,3.4452,3.1612,2.9218,2.754,2.6408,2.6186,2.539,2.3967,2.3586,2.2293,2.1708,2.128,2.204,2.0786,2.1527,2.1033,2.0539,2.0786,2.2294,2.3795,2.4543,2.5533,2.753,2.753,2.7029,2.6761,2.4131,2.4098,2.9009,3.2005,3.0964,2.8549,2.778,2.728,2.4495,2.2717,2.0704,2.0485,2.0539,2.0539,2.0539,2.0539,2.0539,2.0539,2.0539,2.0539,2.0539,2.0539,2.0539,2.0539,2.0539,2.0539,2.0539,2.0539,2.0539,2.0526,2.0505,2.0451,2.0356,2.0288,2.0254,2.018,2.0064,1.999,2.0003,2.0017,2.0024,2.0031,1.9936,1.9827,1.9752,1.9691,1.9671,1.9671,1.9664,1.9664,1.9664,1.9664,1.9664,1.9664,1.9664,1.9664,1.9839,1.961,1.9583,1.9522,1.9488,1.9454,1.9474,1.9495,1.9515,1.9529,1.9454,1.9373,1.9332,1.9271,1.9203,1.9122,1.9027,1.8959,1.8932,1.8891,1.8871,1.8871,1.8884,1.8837,3.8477,3.8704,3.8718,3.8718,3.8718,3.8718,3.8718,3.8718,3.8718,3.7762,3.5833,3.2748,3.0601,2.9415,2.9188,2.8861,2.7026,2.7136,2.6609,2.5347,2.4511,2.529,2.4779,2.3756,2.4762,2.4519,2.503,2.6286,2.753,2.778,2.9019,3.0512,3.0761,3.075,3.0234,2.7072,2.7532,3.2753,3.8175,3.7841,3.4559,3.4392,3.2138,2.8568,2.3928,2.1657,2.0424,2.0492,2.0539,2.0539,2.0539,2.0539,2.0539,2.0539,2.0539,2.0539,2.0539,2.0539,2.0539,2.0539,2.0539,2.0539,2.0539,2.0539,2.0539,2.0519,2.0519,2.0431,2.0594,2.0302,2.0402,2.0278,2.0031,2.0044,2.0071,2.0085,2.0105,2.0078,1.9949,1.982,1.9766,1.9732,1.9719,1.9664,1.9664,1.9664,1.9664,1.9664,1.9664,1.9664,1.9664,1.9664,1.9664,1.9664,1.9617,1.9603,1.961,1.9644,1.9664,1.9637,1.959,1.9563,1.9522,1.9474,1.9413,1.9339,1.925,1.9169,1.9115,1.9081,1.9033,1.8993,1.8993,1.8993,1.8966,3.8157,3.8624,3.8704,3.8718,3.8718,3.8718,3.8718,3.8718,3.8718,3.8718,3.824,3.5599,3.2748,3.1321,3.0374,3.0294,3.0252,3.0238,3.022,2.9461,2.9687,2.8751,2.8492,2.8435,2.9278,3.0065,3.0065,3.0543,3.1009,3.1257,3.1257,3.1505,3.1753,3.2,3.1763,3.2,3.374,3.6012,3.8944,4.0194,4.0286,4.0458,3.6545,3.1309,2.6673,2.2596,2.1377,2.0417,2.0499,2.0539,2.0539,2.0539,2.0539,2.0539,2.0539,2.0539,2.0539,2.0539,2.0539,2.0539,2.0539,2.0539,2.0539,2.0539,2.0539,2.0539,2.0539,2.0499,2.041,2.058,2.0429,2.0333,2.0098,2.0139,2.0166,2.0173,2.0193,2.0193,2.0044,1.9888,1.982,1.9786,1.9732,1.9678,1.9664,1.9664,1.9664,1.9664,1.9664,1.9664,1.9664,1.9664,1.9664,1.9664,1.9664,1.9664,1.9664,1.9664,1.9664,1.9664,1.9657,1.9624,1.9603,1.9617,1.9549,1.9474,1.9406,1.9325,1.9278,1.923,1.9149,1.9094,1.9128,1.9128,1.9122,3.8023,3.8357,3.8611,3.8718,3.8718,3.8718,3.8718,3.8718,3.8718,3.8718,3.8485,3.824,3.7283,3.6804,3.6804,3.5747,3.3314,3.36,3.1914,3.0424,3.1637,3.1226,3.0999,3.1968,3.3975,3.4505,3.4156,3.2517,3.3987,3.4737,3.5731,3.7726,3.7983,3.8227,3.8227,3.8227,3.7983,3.9509,3.9509,4.0548,4.0535,4.0411,4.0233,3.7938,3.7508,2.9737,2.4139,2.0846,2.0431,2.0499,2.0539,2.0539,2.0539,2.0539,2.0539,2.0539,2.0539,2.0539,2.0539,2.0539,2.0539,2.0539,2.0539,2.0539,2.0539,2.0539,2.0539,2.0539,2.0478,2.0471,2.0356,2.0268,2.0261,2.0091,2.0144,2.0349,2.0336,2.0227,2.0092,1.9942,1.9813,1.9766,1.9719,1.9685,1.9678,1.9671,1.9671,1.9664,1.9664,1.9664,1.9664,1.9664,1.9664,1.9664,1.9664,1.9664,1.9664,1.9664,1.9664,1.9664,1.9664,1.9664,1.9657,1.9651,1.9651,1.9603,1.9542,1.9461,1.9427,1.9373,1.925,1.9196,1.9244,1.9278,1.9284]}]]